<?xml version="1.0" encoding="UTF-8" standalone="no" ?>
<gpx xmlns="http://www.topografix.com/GPX/1/1" xmlns:xsi="http://www.w3.org/2001/XMLSchema-instance" xsi:schemaLocation="http://www.topografix.com/GPX/1/1 http://www.topografix.com/GPX/1/1/gpx.xsd" version="1.1" creator="VisuGPX - https://www.visugpx.com">
  <metadata>
    <name>CCFM 018   </name>
    <desc><![CDATA[⛳️/CS.Yvoz, Berleur, Limont, Ouffet, Seny, Terwagne, [b]MODAVE[/b], Pont de Bonne, Vyle et Tharoul, Tahier, Marchin, Ereffe, Huy, Vinalmont, Verlaine (Garmin: 1390 D+ et 115 Km)]]></desc>
  </metadata>
  <trk>
    <name><![CDATA[CCFM 018]]></name>
    <extensions>
      <line xmlns="http://www.topografix.com/GPX/gpx_style/0/2">
        <color>0000FF</color>
        <opacity>1</opacity>
        <width>4</width>
          <extensions>
            <sens>1</sens>
          </extensions>
      </line>
    </extensions>
    <trkseg>
      <trkpt lat="50.62194" lon="5.44825">
        <ele>189.3</ele>
        <extensions>
          <visugpx:TrkExtension xmlns:visugpx="https://www.visugpx.com/editgpx/">
            <visugpx:node>1</visugpx:node>
            </visugpx:TrkExtension>
        </extensions>
      </trkpt>
      <trkpt lat="50.62248" lon="5.44829">
        <ele>189.9</ele>
      </trkpt>
      <trkpt lat="50.62327" lon="5.44822">
        <ele>190.9</ele>
      </trkpt>
      <trkpt lat="50.62321" lon="5.44886">
        <ele>189.6</ele>
      </trkpt>
      <trkpt lat="50.62321" lon="5.4495">
        <ele>188</ele>
        <time>2016-10-11T03:48:04Z</time>
      </trkpt>
      <trkpt lat="50.6232" lon="5.45027">
        <ele>187</ele>
        <time>2016-10-11T03:50:04Z</time>
      </trkpt>
      <trkpt lat="50.62335" lon="5.45539">
        <ele>184.5</ele>
      </trkpt>
      <trkpt lat="50.62337" lon="5.45561">
        <ele>184.3</ele>
      </trkpt>
      <trkpt lat="50.62337" lon="5.45581">
        <ele>184</ele>
      </trkpt>
      <trkpt lat="50.62336" lon="5.45592">
        <ele>184</ele>
      </trkpt>
      <trkpt lat="50.6233" lon="5.45606">
        <ele>184</ele>
        <time>2016-10-11T03:58:04Z</time>
      </trkpt>
      <trkpt lat="50.62322" lon="5.45634">
        <ele>184</ele>
        <time>2016-10-11T04:00:04Z</time>
      </trkpt>
      <trkpt lat="50.62294" lon="5.45755">
        <ele>182</ele>
        <time>2016-10-11T04:02:04Z</time>
      </trkpt>
      <trkpt lat="50.62229" lon="5.45992">
        <ele>181</ele>
      </trkpt>
      <trkpt lat="50.62229" lon="5.45991">
        <ele>182</ele>
        <time>2016-10-09T17:10:04Z</time>
      </trkpt>
      <trkpt lat="50.62208" lon="5.45995">
        <ele>181</ele>
        <time>2016-10-09T17:12:04Z</time>
      </trkpt>
      <trkpt lat="50.62176" lon="5.46001">
        <ele>181</ele>
        <time>2016-10-09T17:14:04Z</time>
      </trkpt>
      <trkpt lat="50.6215" lon="5.46008">
        <ele>181</ele>
        <time>2016-10-09T17:16:04Z</time>
      </trkpt>
      <trkpt lat="50.62125" lon="5.46018">
        <ele>181</ele>
        <time>2016-10-09T17:18:04Z</time>
      </trkpt>
      <trkpt lat="50.62079" lon="5.46052">
        <ele>181</ele>
        <time>2016-10-09T17:20:04Z</time>
      </trkpt>
      <trkpt lat="50.61894" lon="5.46144">
        <ele>173</ele>
        <time>2016-10-09T17:22:04Z</time>
      </trkpt>
      <trkpt lat="50.61861" lon="5.46149">
        <ele>170</ele>
        <time>2016-10-09T17:24:04Z</time>
      </trkpt>
      <trkpt lat="50.61857" lon="5.46138">
        <ele>170</ele>
        <time>2016-10-09T17:26:04Z</time>
      </trkpt>
      <trkpt lat="50.61849" lon="5.46139">
        <ele>169</ele>
        <time>2016-10-09T17:28:04Z</time>
      </trkpt>
      <trkpt lat="50.61846" lon="5.4615">
        <ele>169</ele>
        <time>2016-10-09T17:30:04Z</time>
      </trkpt>
      <trkpt lat="50.61835" lon="5.46152">
        <ele>169</ele>
        <time>2016-10-09T17:32:04Z</time>
      </trkpt>
      <trkpt lat="50.61768" lon="5.46227">
        <ele>164</ele>
        <time>2016-10-09T17:34:04Z</time>
      </trkpt>
      <trkpt lat="50.61742" lon="5.46242">
        <ele>163</ele>
        <time>2016-10-09T17:36:04Z</time>
      </trkpt>
      <trkpt lat="50.61727" lon="5.46243">
        <ele>161</ele>
        <time>2016-10-09T17:38:04Z</time>
      </trkpt>
      <trkpt lat="50.61667" lon="5.46228">
        <ele>157</ele>
        <time>2016-10-09T17:40:04Z</time>
      </trkpt>
      <trkpt lat="50.61649" lon="5.4623">
        <ele>155</ele>
        <time>2016-10-09T17:42:04Z</time>
      </trkpt>
      <trkpt lat="50.61632" lon="5.46245">
        <ele>154</ele>
        <time>2016-10-09T17:44:04Z</time>
      </trkpt>
      <trkpt lat="50.61619" lon="5.46267">
        <ele>152</ele>
        <time>2016-10-09T17:46:04Z</time>
      </trkpt>
      <trkpt lat="50.61529" lon="5.4647">
        <ele>145</ele>
        <time>2016-10-09T17:48:04Z</time>
      </trkpt>
      <trkpt lat="50.61405" lon="5.46147">
        <ele>134</ele>
        <time>2016-10-09T17:50:04Z</time>
      </trkpt>
      <trkpt lat="50.61391" lon="5.46124">
        <ele>133</ele>
        <time>2016-10-09T17:52:04Z</time>
      </trkpt>
      <trkpt lat="50.61345" lon="5.46079">
        <ele>129</ele>
        <time>2016-10-09T17:54:04Z</time>
      </trkpt>
      <trkpt lat="50.61307" lon="5.45995">
        <ele>122</ele>
        <time>2016-10-09T17:56:04Z</time>
      </trkpt>
      <trkpt lat="50.61296" lon="5.45982">
        <ele>123</ele>
        <time>2016-10-09T17:58:04Z</time>
      </trkpt>
      <trkpt lat="50.61282" lon="5.45972">
        <ele>123</ele>
        <time>2016-10-09T18:00:04Z</time>
      </trkpt>
      <trkpt lat="50.61208" lon="5.45965">
        <ele>122</ele>
        <time>2016-10-09T18:02:04Z</time>
      </trkpt>
      <trkpt lat="50.61191" lon="5.45954">
        <ele>122</ele>
        <time>2016-10-09T18:04:04Z</time>
      </trkpt>
      <trkpt lat="50.61176" lon="5.45939">
        <ele>121</ele>
        <time>2016-10-09T18:06:04Z</time>
      </trkpt>
      <trkpt lat="50.61165" lon="5.45917">
        <ele>120</ele>
        <time>2016-10-09T18:08:04Z</time>
      </trkpt>
      <trkpt lat="50.61155" lon="5.45879">
        <ele>118</ele>
        <time>2016-10-09T18:10:04Z</time>
      </trkpt>
      <trkpt lat="50.61095" lon="5.45838">
        <ele>113</ele>
        <time>2016-10-09T18:12:04Z</time>
      </trkpt>
      <trkpt lat="50.60987" lon="5.45718">
        <ele>111</ele>
        <time>2016-10-09T18:14:04Z</time>
      </trkpt>
      <trkpt lat="50.60967" lon="5.45701">
        <ele>110</ele>
        <time>2016-10-09T18:16:04Z</time>
      </trkpt>
      <trkpt lat="50.6094" lon="5.45677">
        <ele>108</ele>
        <time>2016-10-09T18:18:04Z</time>
      </trkpt>
      <trkpt lat="50.60913" lon="5.4563">
        <ele>108</ele>
        <time>2016-10-09T18:20:04Z</time>
      </trkpt>
      <trkpt lat="50.60855" lon="5.45573">
        <ele>110</ele>
        <time>2016-10-09T18:22:04Z</time>
      </trkpt>
      <trkpt lat="50.60821" lon="5.45529">
        <ele>113</ele>
        <time>2016-10-09T18:24:04Z</time>
      </trkpt>
      <trkpt lat="50.60773" lon="5.45524">
        <ele>115</ele>
        <time>2016-10-09T18:26:04Z</time>
      </trkpt>
      <trkpt lat="50.60729" lon="5.45532">
        <ele>116</ele>
        <time>2016-10-09T18:28:04Z</time>
      </trkpt>
      <trkpt lat="50.60641" lon="5.45574">
        <ele>116</ele>
        <time>2016-10-09T18:30:04Z</time>
      </trkpt>
      <trkpt lat="50.60475" lon="5.45585">
        <ele>110</ele>
        <time>2016-10-09T18:32:04Z</time>
      </trkpt>
      <trkpt lat="50.60364" lon="5.45632">
        <ele>104</ele>
        <time>2016-10-09T18:34:04Z</time>
      </trkpt>
      <trkpt lat="50.60332" lon="5.4564">
        <ele>102</ele>
        <time>2016-10-09T18:36:04Z</time>
      </trkpt>
      <trkpt lat="50.60294" lon="5.45661">
        <ele>100</ele>
        <time>2016-10-09T18:38:04Z</time>
      </trkpt>
      <trkpt lat="50.60287" lon="5.45669">
        <ele>100</ele>
        <time>2016-10-09T18:40:04Z</time>
      </trkpt>
      <trkpt lat="50.60212" lon="5.45688">
        <ele>101</ele>
        <time>2016-10-09T18:42:04Z</time>
      </trkpt>
      <trkpt lat="50.60156" lon="5.45725">
        <ele>101</ele>
        <time>2016-10-09T18:44:04Z</time>
      </trkpt>
      <trkpt lat="50.60138" lon="5.45748">
        <ele>101</ele>
        <time>2016-10-09T18:46:04Z</time>
      </trkpt>
      <trkpt lat="50.60106" lon="5.45803">
        <ele>97</ele>
        <time>2016-10-09T18:48:04Z</time>
      </trkpt>
      <trkpt lat="50.60078" lon="5.45872">
        <ele>92</ele>
        <time>2016-10-09T18:50:04Z</time>
      </trkpt>
      <trkpt lat="50.60071" lon="5.45894">
        <ele>93</ele>
        <time>2016-10-09T18:52:04Z</time>
      </trkpt>
      <trkpt lat="50.60063" lon="5.45942">
        <ele>91</ele>
        <time>2016-10-09T18:54:04Z</time>
      </trkpt>
      <trkpt lat="50.60059" lon="5.46016">
        <ele>88</ele>
        <time>2016-10-09T18:56:04Z</time>
      </trkpt>
      <trkpt lat="50.60049" lon="5.46018">
        <ele>89</ele>
        <time>2016-10-09T18:58:04Z</time>
      </trkpt>
      <trkpt lat="50.60056" lon="5.46039">
        <ele>89</ele>
        <time>2016-10-09T19:00:04Z</time>
      </trkpt>
      <trkpt lat="50.60059" lon="5.461">
        <ele>89</ele>
        <time>2016-10-09T19:02:04Z</time>
      </trkpt>
      <trkpt lat="50.60066" lon="5.46225">
        <ele>88</ele>
        <time>2016-10-09T19:04:04Z</time>
      </trkpt>
      <trkpt lat="50.6009" lon="5.46316">
        <ele>88</ele>
        <time>2016-10-09T19:06:04Z</time>
      </trkpt>
      <trkpt lat="50.60095" lon="5.46346">
        <ele>89</ele>
        <time>2016-10-09T19:08:04Z</time>
      </trkpt>
      <trkpt lat="50.60106" lon="5.46468">
        <ele>90</ele>
        <time>2016-10-09T19:10:04Z</time>
      </trkpt>
      <trkpt lat="50.60101" lon="5.46504">
        <ele>87</ele>
        <time>2016-10-09T19:12:04Z</time>
      </trkpt>
      <trkpt lat="50.60094" lon="5.46527">
        <ele>84</ele>
        <time>2016-10-09T19:14:04Z</time>
      </trkpt>
      <trkpt lat="50.60085" lon="5.46543">
        <ele>80</ele>
        <time>2016-10-09T19:16:04Z</time>
      </trkpt>
      <trkpt lat="50.60008" lon="5.46613">
        <ele>73</ele>
        <time>2016-10-09T19:18:04Z</time>
      </trkpt>
      <trkpt lat="50.59969" lon="5.4649">
        <ele>72</ele>
        <time>2016-10-09T19:20:04Z</time>
      </trkpt>
      <trkpt lat="50.59933" lon="5.46346">
        <ele>74</ele>
        <time>2016-10-09T19:22:04Z</time>
      </trkpt>
      <trkpt lat="50.59914" lon="5.46333">
        <ele>73</ele>
        <time>2016-10-09T19:24:04Z</time>
      </trkpt>
      <trkpt lat="50.59825" lon="5.46423">
        <ele>67</ele>
        <time>2016-10-09T19:26:04Z</time>
      </trkpt>
      <trkpt lat="50.59796" lon="5.46442">
        <ele>67</ele>
        <time>2016-10-09T19:28:04Z</time>
      </trkpt>
      <trkpt lat="50.59732" lon="5.46458">
        <ele>67</ele>
        <time>2016-10-09T19:30:04Z</time>
      </trkpt>
      <trkpt lat="50.59706" lon="5.46459">
        <ele>67</ele>
        <time>2016-10-09T19:32:04Z</time>
      </trkpt>
      <trkpt lat="50.59702" lon="5.46448">
        <ele>67</ele>
        <time>2016-10-09T19:34:04Z</time>
      </trkpt>
      <trkpt lat="50.59609" lon="5.46214">
        <ele>68</ele>
        <time>2016-10-09T19:36:04Z</time>
      </trkpt>
      <trkpt lat="50.59542" lon="5.4603">
        <ele>69</ele>
        <time>2016-10-09T19:38:04Z</time>
      </trkpt>
      <trkpt lat="50.59513" lon="5.4605">
        <ele>70</ele>
        <time>2016-10-09T19:40:04Z</time>
      </trkpt>
      <trkpt lat="50.5945" lon="5.46077">
        <ele>69</ele>
        <time>2016-10-09T19:42:04Z</time>
      </trkpt>
      <trkpt lat="50.59404" lon="5.46079">
        <ele>67</ele>
        <time>2016-10-09T19:44:04Z</time>
      </trkpt>
      <trkpt lat="50.59382" lon="5.46066">
        <ele>66</ele>
        <time>2016-10-09T19:46:04Z</time>
      </trkpt>
      <trkpt lat="50.59372" lon="5.4607">
        <ele>66</ele>
        <time>2016-10-09T19:48:04Z</time>
      </trkpt>
      <trkpt lat="50.59366" lon="5.46082">
        <ele>66</ele>
        <time>2016-10-09T19:50:04Z</time>
      </trkpt>
      <trkpt lat="50.59346" lon="5.46093">
        <ele>65</ele>
        <time>2016-10-09T19:52:04Z</time>
      </trkpt>
      <trkpt lat="50.59147" lon="5.46154">
        <ele>63</ele>
        <time>2016-10-09T19:54:04Z</time>
      </trkpt>
      <trkpt lat="50.59083" lon="5.46167">
        <ele>65</ele>
        <time>2016-10-09T19:56:04Z</time>
      </trkpt>
      <trkpt lat="50.5906" lon="5.46166">
        <ele>66</ele>
        <time>2016-10-09T19:58:04Z</time>
      </trkpt>
      <trkpt lat="50.59008" lon="5.46185">
        <ele>68</ele>
        <time>2016-10-09T20:00:04Z</time>
      </trkpt>
      <trkpt lat="50.58937" lon="5.46261">
        <ele>68</ele>
        <time>2016-10-09T20:02:04Z</time>
      </trkpt>
      <trkpt lat="50.58864" lon="5.46353">
        <ele>69</ele>
        <time>2016-10-09T20:04:04Z</time>
      </trkpt>
      <trkpt lat="50.58832" lon="5.46383">
        <ele>70</ele>
        <time>2016-10-09T20:06:04Z</time>
      </trkpt>
      <trkpt lat="50.58847" lon="5.46423">
        <ele>71</ele>
        <time>2016-10-09T20:08:04Z</time>
      </trkpt>
      <trkpt lat="50.58884" lon="5.46492">
        <ele>70</ele>
        <time>2016-10-09T20:10:04Z</time>
      </trkpt>
      <trkpt lat="50.58934" lon="5.46639">
        <ele>69</ele>
        <time>2016-10-09T20:12:04Z</time>
      </trkpt>
      <trkpt lat="50.58935" lon="5.46727">
        <ele>71</ele>
        <time>2016-10-09T20:14:04Z</time>
      </trkpt>
      <trkpt lat="50.58969" lon="5.46911">
        <ele>78</ele>
        <time>2016-10-09T20:16:04Z</time>
      </trkpt>
      <trkpt lat="50.58835" lon="5.46658">
        <ele>84</ele>
        <time>2016-10-09T20:18:04Z</time>
      </trkpt>
      <trkpt lat="50.58652" lon="5.4646">
        <ele>96</ele>
        <time>2016-10-09T20:20:04Z</time>
      </trkpt>
      <trkpt lat="50.58546" lon="5.46456">
        <ele>105</ele>
        <time>2016-10-09T20:22:04Z</time>
      </trkpt>
      <trkpt lat="50.58362" lon="5.46352">
        <ele>115</ele>
        <time>2016-10-09T20:24:04Z</time>
      </trkpt>
      <trkpt lat="50.58152" lon="5.46227">
        <ele>130</ele>
        <time>2016-10-09T20:26:04Z</time>
      </trkpt>
      <trkpt lat="50.58088" lon="5.46186">
        <ele>137</ele>
        <time>2016-10-09T20:28:04Z</time>
      </trkpt>
      <trkpt lat="50.57985" lon="5.4604">
        <ele>146</ele>
        <time>2016-10-09T20:30:04Z</time>
      </trkpt>
      <trkpt lat="50.57919" lon="5.45923">
        <ele>149</ele>
        <time>2016-10-09T20:32:04Z</time>
      </trkpt>
      <trkpt lat="50.57904" lon="5.45908">
        <ele>148</ele>
        <time>2016-10-09T20:34:04Z</time>
      </trkpt>
      <trkpt lat="50.57886" lon="5.45899">
        <ele>148</ele>
        <time>2016-10-09T20:36:04Z</time>
      </trkpt>
      <trkpt lat="50.57853" lon="5.45899">
        <ele>151</ele>
        <time>2016-10-09T20:38:04Z</time>
      </trkpt>
      <trkpt lat="50.57785" lon="5.4593">
        <ele>160</ele>
        <time>2016-10-09T20:40:04Z</time>
      </trkpt>
      <trkpt lat="50.57748" lon="5.45954">
        <ele>163</ele>
        <time>2016-10-09T20:42:04Z</time>
      </trkpt>
      <trkpt lat="50.57737" lon="5.45967">
        <ele>165</ele>
        <time>2016-10-09T20:44:04Z</time>
      </trkpt>
      <trkpt lat="50.57731" lon="5.45987">
        <ele>166</ele>
        <time>2016-10-09T20:46:04Z</time>
      </trkpt>
      <trkpt lat="50.57727" lon="5.46046">
        <ele>171</ele>
        <time>2016-10-09T20:48:04Z</time>
      </trkpt>
      <trkpt lat="50.57716" lon="5.46063">
        <ele>173</ele>
        <time>2016-10-09T20:50:04Z</time>
      </trkpt>
      <trkpt lat="50.57698" lon="5.46067">
        <ele>174</ele>
        <time>2016-10-09T20:52:04Z</time>
      </trkpt>
      <trkpt lat="50.57688" lon="5.46064">
        <ele>175</ele>
        <time>2016-10-09T20:54:04Z</time>
      </trkpt>
      <trkpt lat="50.57671" lon="5.46049">
        <ele>175</ele>
        <time>2016-10-09T20:56:04Z</time>
      </trkpt>
      <trkpt lat="50.57603" lon="5.45947">
        <ele>177</ele>
        <time>2016-10-09T20:58:04Z</time>
      </trkpt>
      <trkpt lat="50.57581" lon="5.45925">
        <ele>178</ele>
        <time>2016-10-09T21:00:04Z</time>
      </trkpt>
      <trkpt lat="50.57568" lon="5.45919">
        <ele>179</ele>
        <time>2016-10-09T21:02:04Z</time>
      </trkpt>
      <trkpt lat="50.57524" lon="5.45917">
        <ele>183</ele>
        <time>2016-10-09T21:04:04Z</time>
      </trkpt>
      <trkpt lat="50.57359" lon="5.45952">
        <ele>195</ele>
        <time>2016-10-09T21:06:04Z</time>
      </trkpt>
      <trkpt lat="50.57305" lon="5.45949">
        <ele>198</ele>
        <time>2016-10-09T21:08:04Z</time>
      </trkpt>
      <trkpt lat="50.57256" lon="5.45934">
        <ele>201</ele>
        <time>2016-10-09T21:10:04Z</time>
      </trkpt>
      <trkpt lat="50.57194" lon="5.45905">
        <ele>205</ele>
        <time>2016-10-09T21:12:04Z</time>
      </trkpt>
      <trkpt lat="50.57031" lon="5.45775">
        <ele>211</ele>
        <time>2016-10-09T21:14:04Z</time>
      </trkpt>
      <trkpt lat="50.57004" lon="5.45761">
        <ele>211</ele>
        <time>2016-10-09T21:16:04Z</time>
      </trkpt>
      <trkpt lat="50.56983" lon="5.45757">
        <ele>212</ele>
        <time>2016-10-09T21:18:04Z</time>
      </trkpt>
      <trkpt lat="50.56917" lon="5.45765">
        <ele>214</ele>
        <time>2016-10-09T21:20:04Z</time>
      </trkpt>
      <trkpt lat="50.56697" lon="5.45825">
        <ele>223</ele>
        <time>2016-10-09T21:22:04Z</time>
      </trkpt>
      <trkpt lat="50.56647" lon="5.45835">
        <ele>225</ele>
        <time>2016-10-09T21:24:04Z</time>
      </trkpt>
      <trkpt lat="50.56609" lon="5.45834">
        <ele>226</ele>
        <time>2016-10-09T21:26:04Z</time>
      </trkpt>
      <trkpt lat="50.56559" lon="5.45809">
        <ele>226</ele>
        <time>2016-10-09T21:28:04Z</time>
      </trkpt>
      <trkpt lat="50.5637" lon="5.45679">
        <ele>228</ele>
        <time>2016-10-09T21:30:04Z</time>
      </trkpt>
      <trkpt lat="50.55786" lon="5.45306">
        <ele>235</ele>
        <time>2016-10-09T21:32:04Z</time>
      </trkpt>
      <trkpt lat="50.55347" lon="5.45132">
        <ele>233</ele>
        <time>2016-10-09T21:34:04Z</time>
      </trkpt>
      <trkpt lat="50.55244" lon="5.45119">
        <ele>228</ele>
        <time>2016-10-09T21:36:04Z</time>
      </trkpt>
      <trkpt lat="50.5524" lon="5.45164">
        <ele>227</ele>
        <time>2016-10-09T21:38:04Z</time>
      </trkpt>
      <trkpt lat="50.55233" lon="5.45173">
        <ele>227</ele>
        <time>2016-10-09T21:40:04Z</time>
      </trkpt>
      <trkpt lat="50.55157" lon="5.45217">
        <ele>223</ele>
        <time>2016-10-09T21:42:04Z</time>
      </trkpt>
      <trkpt lat="50.55127" lon="5.45227">
        <ele>221</ele>
        <time>2016-10-09T21:44:04Z</time>
      </trkpt>
      <trkpt lat="50.55067" lon="5.45219">
        <ele>217</ele>
        <time>2016-10-09T21:46:04Z</time>
      </trkpt>
      <trkpt lat="50.55055" lon="5.45222">
        <ele>216</ele>
        <time>2016-10-09T21:48:04Z</time>
      </trkpt>
      <trkpt lat="50.5504" lon="5.45243">
        <ele>215</ele>
        <time>2016-10-09T21:50:04Z</time>
      </trkpt>
      <trkpt lat="50.54739" lon="5.45519">
        <ele>223</ele>
        <time>2016-10-09T21:52:04Z</time>
      </trkpt>
      <trkpt lat="50.54553" lon="5.45682">
        <ele>237</ele>
        <time>2016-10-09T21:54:04Z</time>
      </trkpt>
      <trkpt lat="50.54247" lon="5.45962">
        <ele>252</ele>
        <time>2016-10-09T21:56:04Z</time>
      </trkpt>
      <trkpt lat="50.5418" lon="5.46014">
        <ele>253</ele>
        <time>2016-10-09T21:58:04Z</time>
      </trkpt>
      <trkpt lat="50.54154" lon="5.46045">
        <ele>253</ele>
        <time>2016-10-09T22:00:04Z</time>
      </trkpt>
      <trkpt lat="50.5412" lon="5.46129">
        <ele>254</ele>
        <time>2016-10-09T22:02:04Z</time>
      </trkpt>
      <trkpt lat="50.54113" lon="5.46132">
        <ele>255</ele>
        <time>2016-10-09T22:04:04Z</time>
      </trkpt>
      <trkpt lat="50.54075" lon="5.46191">
        <ele>255</ele>
        <time>2016-10-09T22:06:04Z</time>
      </trkpt>
      <trkpt lat="50.5406" lon="5.46228">
        <ele>255</ele>
        <time>2016-10-09T22:08:04Z</time>
      </trkpt>
      <trkpt lat="50.54055" lon="5.46257">
        <ele>255</ele>
        <time>2016-10-09T22:10:04Z</time>
      </trkpt>
      <trkpt lat="50.54057" lon="5.46269">
        <ele>255</ele>
        <time>2016-10-09T22:12:04Z</time>
      </trkpt>
      <trkpt lat="50.54048" lon="5.4636">
        <ele>255</ele>
        <time>2016-10-09T22:14:04Z</time>
      </trkpt>
      <trkpt lat="50.53998" lon="5.46555">
        <ele>257</ele>
        <time>2016-10-09T22:16:04Z</time>
      </trkpt>
      <trkpt lat="50.53962" lon="5.4675">
        <ele>262</ele>
        <time>2016-10-09T22:18:04Z</time>
      </trkpt>
      <trkpt lat="50.53894" lon="5.4717">
        <ele>270</ele>
        <time>2016-10-09T22:20:04Z</time>
      </trkpt>
      <trkpt lat="50.53882" lon="5.47234">
        <ele>270</ele>
        <time>2016-10-09T22:22:04Z</time>
      </trkpt>
      <trkpt lat="50.53856" lon="5.47313">
        <ele>269</ele>
        <time>2016-10-09T22:24:04Z</time>
      </trkpt>
      <trkpt lat="50.53846" lon="5.47362">
        <ele>268</ele>
        <time>2016-10-09T22:26:04Z</time>
        <extensions>
          <visugpx:TrkExtension xmlns:visugpx="https://www.visugpx.com/editgpx/">
            <visugpx:node>2</visugpx:node>
            </visugpx:TrkExtension>
        </extensions>
      </trkpt>
      <trkpt lat="50.53834" lon="5.47398">
        <ele>268</ele>
        <extensions>
          <visugpx:TrkExtension xmlns:visugpx="https://www.visugpx.com/editgpx/">
            <visugpx:node>3</visugpx:node>
            </visugpx:TrkExtension>
        </extensions>
      </trkpt>
      <trkpt lat="50.53838" lon="5.47409">
        <ele>268</ele>
      </trkpt>
      <trkpt lat="50.53837" lon="5.47413">
        <ele>268</ele>
      </trkpt>
      <trkpt lat="50.53806" lon="5.47594">
        <ele>265</ele>
      </trkpt>
      <trkpt lat="50.53801" lon="5.47629">
        <ele>264.4</ele>
      </trkpt>
      <trkpt lat="50.53798" lon="5.4767">
        <ele>263.9</ele>
      </trkpt>
      <trkpt lat="50.53801" lon="5.47747">
        <ele>262.3</ele>
      </trkpt>
      <trkpt lat="50.53808" lon="5.4782">
        <ele>261.1</ele>
      </trkpt>
      <trkpt lat="50.53829" lon="5.47945">
        <ele>261.8</ele>
      </trkpt>
      <trkpt lat="50.53834" lon="5.4797">
        <ele>262</ele>
      </trkpt>
      <trkpt lat="50.5379" lon="5.47979">
        <ele>260.4</ele>
      </trkpt>
      <trkpt lat="50.53751" lon="5.47988">
        <ele>259</ele>
      </trkpt>
      <trkpt lat="50.53678" lon="5.48026">
        <ele>260.6</ele>
      </trkpt>
      <trkpt lat="50.53659" lon="5.48035">
        <ele>261.6</ele>
      </trkpt>
      <trkpt lat="50.53611" lon="5.48045">
        <ele>264.4</ele>
      </trkpt>
      <trkpt lat="50.53598" lon="5.48047">
        <ele>265.1</ele>
      </trkpt>
      <trkpt lat="50.53588" lon="5.48051">
        <ele>265.7</ele>
      </trkpt>
      <trkpt lat="50.5356" lon="5.48059">
        <ele>266.8</ele>
      </trkpt>
      <trkpt lat="50.53541" lon="5.48065">
        <ele>267</ele>
      </trkpt>
      <trkpt lat="50.53505" lon="5.48076">
        <ele>267.2</ele>
      </trkpt>
      <trkpt lat="50.53499" lon="5.48082">
        <ele>267</ele>
      </trkpt>
      <trkpt lat="50.53495" lon="5.48085">
        <ele>267</ele>
      </trkpt>
      <trkpt lat="50.53451" lon="5.48139">
        <ele>265.2</ele>
      </trkpt>
      <trkpt lat="50.53449" lon="5.48143">
        <ele>265.2</ele>
      </trkpt>
      <trkpt lat="50.53444" lon="5.48152">
        <ele>265</ele>
      </trkpt>
      <trkpt lat="50.5344" lon="5.48161">
        <ele>264.9</ele>
      </trkpt>
      <trkpt lat="50.53429" lon="5.48144">
        <ele>264.9</ele>
      </trkpt>
      <trkpt lat="50.53418" lon="5.48126">
        <ele>265</ele>
      </trkpt>
      <trkpt lat="50.53406" lon="5.48102">
        <ele>264.5</ele>
      </trkpt>
      <trkpt lat="50.53384" lon="5.48059">
        <ele>263.7</ele>
      </trkpt>
      <trkpt lat="50.53368" lon="5.4804">
        <ele>263.8</ele>
      </trkpt>
      <trkpt lat="50.5336" lon="5.4803">
        <ele>263.9</ele>
      </trkpt>
      <trkpt lat="50.53346" lon="5.48013">
        <ele>264.2</ele>
      </trkpt>
      <trkpt lat="50.53314" lon="5.47978">
        <ele>263.5</ele>
      </trkpt>
      <trkpt lat="50.53291" lon="5.47963">
        <ele>263</ele>
      </trkpt>
      <trkpt lat="50.53278" lon="5.47955">
        <ele>262.6</ele>
      </trkpt>
      <trkpt lat="50.53238" lon="5.47923">
        <ele>261</ele>
      </trkpt>
      <trkpt lat="50.53225" lon="5.47911">
        <ele>260.4</ele>
      </trkpt>
      <trkpt lat="50.53212" lon="5.47899">
        <ele>259.9</ele>
        <extensions>
          <visugpx:TrkExtension xmlns:visugpx="https://www.visugpx.com/editgpx/">
            <visugpx:node>4</visugpx:node>
            </visugpx:TrkExtension>
        </extensions>
      </trkpt>
      <trkpt lat="50.53208" lon="5.47895">
        <ele>259.8</ele>
      </trkpt>
      <trkpt lat="50.53159" lon="5.47844">
        <ele>257.9</ele>
      </trkpt>
      <trkpt lat="50.53107" lon="5.47805">
        <ele>254.7</ele>
      </trkpt>
      <trkpt lat="50.53052" lon="5.47778">
        <ele>251.7</ele>
      </trkpt>
      <trkpt lat="50.53037" lon="5.47767">
        <ele>251.1</ele>
      </trkpt>
      <trkpt lat="50.53023" lon="5.4775">
        <ele>250.5</ele>
      </trkpt>
      <trkpt lat="50.53" lon="5.47724">
        <ele>248.9</ele>
      </trkpt>
      <trkpt lat="50.52966" lon="5.47692">
        <ele>246.8</ele>
      </trkpt>
      <trkpt lat="50.52935" lon="5.47673">
        <ele>244.8</ele>
      </trkpt>
      <trkpt lat="50.52914" lon="5.47663">
        <ele>243.3</ele>
      </trkpt>
      <trkpt lat="50.529" lon="5.47657">
        <ele>243</ele>
      </trkpt>
      <trkpt lat="50.52881" lon="5.47654">
        <ele>242.2</ele>
      </trkpt>
      <trkpt lat="50.52861" lon="5.47658">
        <ele>241.3</ele>
      </trkpt>
      <trkpt lat="50.52842" lon="5.47662">
        <ele>240.5</ele>
      </trkpt>
      <trkpt lat="50.52827" lon="5.47673">
        <ele>239.7</ele>
      </trkpt>
      <trkpt lat="50.52801" lon="5.4769">
        <ele>238.4</ele>
      </trkpt>
      <trkpt lat="50.52798" lon="5.47699">
        <ele>238.1</ele>
      </trkpt>
      <trkpt lat="50.52796" lon="5.47711">
        <ele>237.5</ele>
      </trkpt>
      <trkpt lat="50.52795" lon="5.47723">
        <ele>237</ele>
      </trkpt>
      <trkpt lat="50.52797" lon="5.47746">
        <ele>235.6</ele>
      </trkpt>
      <trkpt lat="50.52804" lon="5.47802">
        <ele>232.4</ele>
      </trkpt>
      <trkpt lat="50.52803" lon="5.47833">
        <ele>231.4</ele>
      </trkpt>
      <trkpt lat="50.52793" lon="5.47903">
        <ele>227.8</ele>
      </trkpt>
      <trkpt lat="50.5279" lon="5.47948">
        <ele>225.6</ele>
      </trkpt>
      <trkpt lat="50.52796" lon="5.47993">
        <ele>223.1</ele>
      </trkpt>
      <trkpt lat="50.52798" lon="5.48022">
        <ele>222.8</ele>
      </trkpt>
      <trkpt lat="50.5279" lon="5.48041">
        <ele>221</ele>
      </trkpt>
      <trkpt lat="50.52766" lon="5.48045">
        <ele>219.5</ele>
      </trkpt>
      <trkpt lat="50.52742" lon="5.48038">
        <ele>219.7</ele>
      </trkpt>
      <trkpt lat="50.52719" lon="5.4805">
        <ele>216.3</ele>
      </trkpt>
      <trkpt lat="50.52657" lon="5.48056">
        <ele>214.3</ele>
      </trkpt>
      <trkpt lat="50.52645" lon="5.48068">
        <ele>213</ele>
      </trkpt>
      <trkpt lat="50.52622" lon="5.48116">
        <ele>209.9</ele>
      </trkpt>
      <trkpt lat="50.52605" lon="5.48143">
        <ele>208.8</ele>
      </trkpt>
      <trkpt lat="50.52509" lon="5.48242">
        <ele>199.8</ele>
      </trkpt>
      <trkpt lat="50.52425" lon="5.48371">
        <ele>193.1</ele>
      </trkpt>
      <trkpt lat="50.52418" lon="5.48387">
        <ele>192.9</ele>
      </trkpt>
      <trkpt lat="50.52411" lon="5.48406">
        <ele>192.2</ele>
      </trkpt>
      <trkpt lat="50.5241" lon="5.48431">
        <ele>191.2</ele>
      </trkpt>
      <trkpt lat="50.52418" lon="5.48513">
        <ele>188.2</ele>
      </trkpt>
      <trkpt lat="50.52418" lon="5.48527">
        <ele>187.6</ele>
      </trkpt>
      <trkpt lat="50.52402" lon="5.48591">
        <ele>184</ele>
      </trkpt>
      <trkpt lat="50.52378" lon="5.48668">
        <ele>182.3</ele>
      </trkpt>
      <trkpt lat="50.52364" lon="5.48696">
        <ele>180.6</ele>
      </trkpt>
      <trkpt lat="50.52354" lon="5.48707">
        <ele>179.2</ele>
      </trkpt>
      <trkpt lat="50.52337" lon="5.4871">
        <ele>178.1</ele>
      </trkpt>
      <trkpt lat="50.52323" lon="5.48704">
        <ele>177</ele>
      </trkpt>
      <trkpt lat="50.52311" lon="5.48692">
        <ele>175.9</ele>
      </trkpt>
      <trkpt lat="50.52301" lon="5.48664">
        <ele>174.5</ele>
      </trkpt>
      <trkpt lat="50.5229" lon="5.48615">
        <ele>173.2</ele>
      </trkpt>
      <trkpt lat="50.52275" lon="5.48562">
        <ele>171.8</ele>
      </trkpt>
      <trkpt lat="50.52259" lon="5.48524">
        <ele>170.1</ele>
      </trkpt>
      <trkpt lat="50.52243" lon="5.48491">
        <ele>168.8</ele>
      </trkpt>
      <trkpt lat="50.52217" lon="5.48452">
        <ele>165.9</ele>
      </trkpt>
      <trkpt lat="50.5219" lon="5.48418">
        <ele>164</ele>
      </trkpt>
      <trkpt lat="50.52177" lon="5.48407">
        <ele>163.6</ele>
      </trkpt>
      <trkpt lat="50.52168" lon="5.48401">
        <ele>163.1</ele>
      </trkpt>
      <trkpt lat="50.52159" lon="5.484">
        <ele>162.3</ele>
      </trkpt>
      <trkpt lat="50.5215" lon="5.48403">
        <ele>161.3</ele>
      </trkpt>
      <trkpt lat="50.52141" lon="5.48412">
        <ele>160.2</ele>
      </trkpt>
      <trkpt lat="50.5212" lon="5.48443">
        <ele>159</ele>
      </trkpt>
      <trkpt lat="50.52116" lon="5.48448">
        <ele>159.8</ele>
      </trkpt>
      <trkpt lat="50.52112" lon="5.48451">
        <ele>160.6</ele>
      </trkpt>
      <trkpt lat="50.52105" lon="5.48456">
        <ele>161.8</ele>
      </trkpt>
      <trkpt lat="50.52095" lon="5.48458">
        <ele>162.9</ele>
      </trkpt>
      <trkpt lat="50.52083" lon="5.48454">
        <ele>163.4</ele>
      </trkpt>
      <trkpt lat="50.52064" lon="5.48437">
        <ele>163.7</ele>
      </trkpt>
      <trkpt lat="50.51996" lon="5.48354">
        <ele>170.2</ele>
      </trkpt>
      <trkpt lat="50.51952" lon="5.48283">
        <ele>173.5</ele>
      </trkpt>
      <trkpt lat="50.5193" lon="5.48231">
        <ele>176</ele>
      </trkpt>
      <trkpt lat="50.51922" lon="5.48208">
        <ele>176.9</ele>
      </trkpt>
      <trkpt lat="50.51917" lon="5.48201">
        <ele>178.1</ele>
      </trkpt>
      <trkpt lat="50.51913" lon="5.48203">
        <ele>179.6</ele>
      </trkpt>
      <trkpt lat="50.5191" lon="5.4821">
        <ele>181</ele>
      </trkpt>
      <trkpt lat="50.51911" lon="5.48219">
        <ele>180.9</ele>
      </trkpt>
      <trkpt lat="50.51921" lon="5.48255">
        <ele>181</ele>
      </trkpt>
      <trkpt lat="50.51927" lon="5.48312">
        <ele>183.2</ele>
      </trkpt>
      <trkpt lat="50.51951" lon="5.48407">
        <ele>186.9</ele>
      </trkpt>
      <trkpt lat="50.51952" lon="5.48428">
        <ele>188.2</ele>
      </trkpt>
      <trkpt lat="50.51953" lon="5.48447">
        <ele>189.2</ele>
      </trkpt>
      <trkpt lat="50.51953" lon="5.48467">
        <ele>190.1</ele>
      </trkpt>
      <trkpt lat="50.51951" lon="5.4848">
        <ele>190.9</ele>
      </trkpt>
      <trkpt lat="50.51949" lon="5.48491">
        <ele>191.5</ele>
      </trkpt>
      <trkpt lat="50.51943" lon="5.48502">
        <ele>192.1</ele>
      </trkpt>
      <trkpt lat="50.51923" lon="5.48522">
        <ele>192.8</ele>
      </trkpt>
      <trkpt lat="50.51907" lon="5.48483">
        <ele>192.5</ele>
      </trkpt>
      <trkpt lat="50.51889" lon="5.48436">
        <ele>193</ele>
      </trkpt>
      <trkpt lat="50.51848" lon="5.48295">
        <ele>192.2</ele>
      </trkpt>
      <trkpt lat="50.51817" lon="5.48186">
        <ele>193.3</ele>
        <extensions>
          <visugpx:TrkExtension xmlns:visugpx="https://www.visugpx.com/editgpx/">
            <visugpx:node>5</visugpx:node>
            </visugpx:TrkExtension>
        </extensions>
      </trkpt>
      <trkpt lat="50.51788" lon="5.48083">
        <ele>193.6</ele>
      </trkpt>
      <trkpt lat="50.51783" lon="5.48062">
        <ele>193.8</ele>
      </trkpt>
      <trkpt lat="50.51778" lon="5.47991">
        <ele>194</ele>
      </trkpt>
      <trkpt lat="50.51774" lon="5.47965">
        <ele>194.4</ele>
      </trkpt>
      <trkpt lat="50.51768" lon="5.47935">
        <ele>195.8</ele>
      </trkpt>
      <trkpt lat="50.51753" lon="5.47863">
        <ele>197</ele>
      </trkpt>
      <trkpt lat="50.51732" lon="5.47818">
        <ele>198.2</ele>
      </trkpt>
      <trkpt lat="50.51699" lon="5.47759">
        <ele>199.8</ele>
      </trkpt>
      <trkpt lat="50.51692" lon="5.47736">
        <ele>200</ele>
      </trkpt>
      <trkpt lat="50.51652" lon="5.47543">
        <ele>205.2</ele>
      </trkpt>
      <trkpt lat="50.51631" lon="5.47483">
        <ele>205.8</ele>
      </trkpt>
      <trkpt lat="50.51589" lon="5.47369">
        <ele>205.9</ele>
      </trkpt>
      <trkpt lat="50.51487" lon="5.47094">
        <ele>204.5</ele>
      </trkpt>
      <trkpt lat="50.51446" lon="5.46883">
        <ele>208.2</ele>
      </trkpt>
      <trkpt lat="50.51431" lon="5.46833">
        <ele>209</ele>
      </trkpt>
      <trkpt lat="50.51425" lon="5.46817">
        <ele>209.6</ele>
      </trkpt>
      <trkpt lat="50.51366" lon="5.46653">
        <ele>213.6</ele>
      </trkpt>
      <trkpt lat="50.51358" lon="5.46632">
        <ele>214.1</ele>
      </trkpt>
      <trkpt lat="50.51345" lon="5.4664">
        <ele>213.4</ele>
      </trkpt>
      <trkpt lat="50.51302" lon="5.46948">
        <ele>201.6</ele>
      </trkpt>
      <trkpt lat="50.51289" lon="5.47045">
        <ele>198.6</ele>
      </trkpt>
      <trkpt lat="50.51287" lon="5.47058">
        <ele>198.3</ele>
      </trkpt>
      <trkpt lat="50.51281" lon="5.47092">
        <ele>197.2</ele>
      </trkpt>
      <trkpt lat="50.51269" lon="5.47127">
        <ele>196.4</ele>
      </trkpt>
      <trkpt lat="50.5126" lon="5.47144">
        <ele>195.7</ele>
      </trkpt>
      <trkpt lat="50.5125" lon="5.47158">
        <ele>195</ele>
        <extensions>
          <visugpx:TrkExtension xmlns:visugpx="https://www.visugpx.com/editgpx/">
            <visugpx:node>6</visugpx:node>
            </visugpx:TrkExtension>
        </extensions>
      </trkpt>
      <trkpt lat="50.51241" lon="5.4717">
        <ele>193.9</ele>
      </trkpt>
      <trkpt lat="50.51086" lon="5.47349">
        <ele>184.6</ele>
      </trkpt>
      <trkpt lat="50.51076" lon="5.4736">
        <ele>184.2</ele>
      </trkpt>
      <trkpt lat="50.51009" lon="5.47441">
        <ele>183.3</ele>
      </trkpt>
      <trkpt lat="50.50923" lon="5.47541">
        <ele>180.2</ele>
      </trkpt>
      <trkpt lat="50.50716" lon="5.47781">
        <ele>171.7</ele>
      </trkpt>
      <trkpt lat="50.50667" lon="5.47838">
        <ele>173.1</ele>
      </trkpt>
      <trkpt lat="50.5066" lon="5.47847">
        <ele>174.1</ele>
      </trkpt>
      <trkpt lat="50.50653" lon="5.47856">
        <ele>175.5</ele>
      </trkpt>
      <trkpt lat="50.50643" lon="5.4784">
        <ele>174.7</ele>
      </trkpt>
      <trkpt lat="50.50558" lon="5.47712">
        <ele>174.5</ele>
      </trkpt>
      <trkpt lat="50.50539" lon="5.47693">
        <ele>175.7</ele>
      </trkpt>
      <trkpt lat="50.50522" lon="5.47683">
        <ele>176.3</ele>
      </trkpt>
      <trkpt lat="50.50506" lon="5.47677">
        <ele>176.8</ele>
      </trkpt>
      <trkpt lat="50.50483" lon="5.4768">
        <ele>176.7</ele>
      </trkpt>
      <trkpt lat="50.50401" lon="5.47722">
        <ele>177</ele>
      </trkpt>
      <trkpt lat="50.50363" lon="5.47728">
        <ele>178.1</ele>
      </trkpt>
      <trkpt lat="50.50224" lon="5.47735">
        <ele>181.9</ele>
      </trkpt>
      <trkpt lat="50.50204" lon="5.47744">
        <ele>181.7</ele>
      </trkpt>
      <trkpt lat="50.5018" lon="5.47771">
        <ele>183.7</ele>
      </trkpt>
      <trkpt lat="50.50157" lon="5.47808">
        <ele>182.7</ele>
      </trkpt>
      <trkpt lat="50.50148" lon="5.47821">
        <ele>182.5</ele>
      </trkpt>
      <trkpt lat="50.5015" lon="5.47827">
        <ele>182.7</ele>
      </trkpt>
      <trkpt lat="50.50163" lon="5.47859">
        <ele>184.1</ele>
      </trkpt>
      <trkpt lat="50.5017" lon="5.47889">
        <ele>186.1</ele>
      </trkpt>
      <trkpt lat="50.50179" lon="5.47945">
        <ele>188.9</ele>
      </trkpt>
      <trkpt lat="50.50181" lon="5.47952">
        <ele>189.3</ele>
      </trkpt>
      <trkpt lat="50.50187" lon="5.47981">
        <ele>190.5</ele>
        <extensions>
          <visugpx:TrkExtension xmlns:visugpx="https://www.visugpx.com/editgpx/">
            <visugpx:node>7</visugpx:node>
            </visugpx:TrkExtension>
        </extensions>
      </trkpt>
      <trkpt lat="50.50189" lon="5.4799">
        <ele>190.9</ele>
      </trkpt>
      <trkpt lat="50.50217" lon="5.48087">
        <ele>197.3</ele>
      </trkpt>
      <trkpt lat="50.50246" lon="5.48175">
        <ele>201</ele>
      </trkpt>
      <trkpt lat="50.50284" lon="5.48279">
        <ele>207.2</ele>
      </trkpt>
      <trkpt lat="50.50301" lon="5.4833">
        <ele>209.5</ele>
      </trkpt>
      <trkpt lat="50.50361" lon="5.48481">
        <ele>215</ele>
      </trkpt>
      <trkpt lat="50.5037" lon="5.48506">
        <ele>216.5</ele>
      </trkpt>
      <trkpt lat="50.50388" lon="5.48557">
        <ele>218</ele>
      </trkpt>
      <trkpt lat="50.50407" lon="5.48598">
        <ele>220.1</ele>
      </trkpt>
      <trkpt lat="50.5042" lon="5.48623">
        <ele>221.3</ele>
      </trkpt>
      <trkpt lat="50.5045" lon="5.48681">
        <ele>223.8</ele>
      </trkpt>
      <trkpt lat="50.50476" lon="5.48734">
        <ele>225</ele>
      </trkpt>
      <trkpt lat="50.50498" lon="5.4878">
        <ele>226.7</ele>
      </trkpt>
      <trkpt lat="50.50509" lon="5.488">
        <ele>227.1</ele>
      </trkpt>
      <trkpt lat="50.50523" lon="5.48824">
        <ele>228.5</ele>
      </trkpt>
      <trkpt lat="50.50548" lon="5.48886">
        <ele>229.3</ele>
      </trkpt>
      <trkpt lat="50.50623" lon="5.49084">
        <ele>232.9</ele>
      </trkpt>
      <trkpt lat="50.50666" lon="5.49187">
        <ele>235</ele>
      </trkpt>
      <trkpt lat="50.50673" lon="5.49206">
        <ele>235.2</ele>
      </trkpt>
      <trkpt lat="50.50734" lon="5.49348">
        <ele>237.7</ele>
      </trkpt>
      <trkpt lat="50.50784" lon="5.49463">
        <ele>239.9</ele>
      </trkpt>
      <trkpt lat="50.50792" lon="5.4948">
        <ele>240.5</ele>
      </trkpt>
      <trkpt lat="50.50794" lon="5.49485">
        <ele>240.6</ele>
      </trkpt>
      <trkpt lat="50.508" lon="5.49499">
        <ele>240.8</ele>
      </trkpt>
      <trkpt lat="50.50802" lon="5.4951">
        <ele>240.9</ele>
      </trkpt>
      <trkpt lat="50.50804" lon="5.49522">
        <ele>241</ele>
      </trkpt>
      <trkpt lat="50.50805" lon="5.49536">
        <ele>241</ele>
      </trkpt>
      <trkpt lat="50.50804" lon="5.4957">
        <ele>241</ele>
      </trkpt>
      <trkpt lat="50.50797" lon="5.49616">
        <ele>240.2</ele>
      </trkpt>
      <trkpt lat="50.50763" lon="5.49754">
        <ele>242.6</ele>
      </trkpt>
      <trkpt lat="50.50756" lon="5.49794">
        <ele>244.2</ele>
      </trkpt>
      <trkpt lat="50.50756" lon="5.49818">
        <ele>244.9</ele>
      </trkpt>
      <trkpt lat="50.50759" lon="5.49859">
        <ele>246.9</ele>
      </trkpt>
      <trkpt lat="50.50758" lon="5.49895">
        <ele>248.4</ele>
      </trkpt>
      <trkpt lat="50.50755" lon="5.49917">
        <ele>249.7</ele>
      </trkpt>
      <trkpt lat="50.50721" lon="5.50006">
        <ele>257.4</ele>
      </trkpt>
      <trkpt lat="50.50698" lon="5.50141">
        <ele>267.9</ele>
      </trkpt>
      <trkpt lat="50.50693" lon="5.5016">
        <ele>268.9</ele>
      </trkpt>
      <trkpt lat="50.50684" lon="5.50178">
        <ele>270.2</ele>
      </trkpt>
      <trkpt lat="50.50642" lon="5.50254">
        <ele>273.9</ele>
      </trkpt>
      <trkpt lat="50.50633" lon="5.50278">
        <ele>273.8</ele>
      </trkpt>
      <trkpt lat="50.50632" lon="5.50281">
        <ele>273.8</ele>
      </trkpt>
      <trkpt lat="50.50608" lon="5.50359">
        <ele>273</ele>
      </trkpt>
      <trkpt lat="50.50586" lon="5.50435">
        <ele>271.1</ele>
      </trkpt>
      <trkpt lat="50.50582" lon="5.50458">
        <ele>271</ele>
      </trkpt>
      <trkpt lat="50.5058" lon="5.50473">
        <ele>270.9</ele>
      </trkpt>
      <trkpt lat="50.50576" lon="5.50513">
        <ele>271.5</ele>
      </trkpt>
      <trkpt lat="50.50574" lon="5.50523">
        <ele>271.8</ele>
      </trkpt>
      <trkpt lat="50.50565" lon="5.50533">
        <ele>272.1</ele>
      </trkpt>
      <trkpt lat="50.50529" lon="5.50561">
        <ele>273.2</ele>
      </trkpt>
      <trkpt lat="50.50496" lon="5.50587">
        <ele>273.1</ele>
      </trkpt>
      <trkpt lat="50.50442" lon="5.5063">
        <ele>272.6</ele>
      </trkpt>
      <trkpt lat="50.50413" lon="5.50644">
        <ele>272.1</ele>
      </trkpt>
      <trkpt lat="50.50311" lon="5.50678">
        <ele>269.9</ele>
      </trkpt>
      <trkpt lat="50.50299" lon="5.50682">
        <ele>270</ele>
      </trkpt>
      <trkpt lat="50.50272" lon="5.50691">
        <ele>269.6</ele>
      </trkpt>
      <trkpt lat="50.5024" lon="5.50701">
        <ele>269.7</ele>
      </trkpt>
      <trkpt lat="50.502" lon="5.50717">
        <ele>269.2</ele>
      </trkpt>
      <trkpt lat="50.50151" lon="5.50757">
        <ele>267.7</ele>
      </trkpt>
      <trkpt lat="50.50131" lon="5.50776">
        <ele>267.4</ele>
      </trkpt>
      <trkpt lat="50.50113" lon="5.50794">
        <ele>267.3</ele>
      </trkpt>
      <trkpt lat="50.50098" lon="5.50809">
        <ele>267.2</ele>
      </trkpt>
      <trkpt lat="50.50074" lon="5.50829">
        <ele>267.4</ele>
      </trkpt>
      <trkpt lat="50.50008" lon="5.50882">
        <ele>265</ele>
      </trkpt>
      <trkpt lat="50.49969" lon="5.50925">
        <ele>262.6</ele>
      </trkpt>
      <trkpt lat="50.49859" lon="5.51014">
        <ele>260.5</ele>
      </trkpt>
      <trkpt lat="50.49822" lon="5.51045">
        <ele>261.2</ele>
        <extensions>
          <visugpx:TrkExtension xmlns:visugpx="https://www.visugpx.com/editgpx/">
            <visugpx:node>8</visugpx:node>
            </visugpx:TrkExtension>
        </extensions>
      </trkpt>
      <trkpt lat="50.4979" lon="5.5107">
        <ele>261</ele>
      </trkpt>
      <trkpt lat="50.49694" lon="5.51144">
        <ele>260.8</ele>
      </trkpt>
      <trkpt lat="50.49684" lon="5.51121">
        <ele>262.4</ele>
      </trkpt>
      <trkpt lat="50.49676" lon="5.51096">
        <ele>263</ele>
      </trkpt>
      <trkpt lat="50.49671" lon="5.51084">
        <ele>263</ele>
      </trkpt>
      <trkpt lat="50.49658" lon="5.51044">
        <ele>263.6</ele>
      </trkpt>
      <trkpt lat="50.49642" lon="5.51008">
        <ele>263.9</ele>
      </trkpt>
      <trkpt lat="50.49633" lon="5.50988">
        <ele>264.2</ele>
      </trkpt>
      <trkpt lat="50.49606" lon="5.50927">
        <ele>264</ele>
      </trkpt>
      <trkpt lat="50.49591" lon="5.50904">
        <ele>263.5</ele>
      </trkpt>
      <trkpt lat="50.49578" lon="5.50883">
        <ele>262.8</ele>
      </trkpt>
      <trkpt lat="50.49551" lon="5.50843">
        <ele>261.3</ele>
      </trkpt>
      <trkpt lat="50.49483" lon="5.50743">
        <ele>260.9</ele>
      </trkpt>
      <trkpt lat="50.49461" lon="5.50709">
        <ele>261.2</ele>
      </trkpt>
      <trkpt lat="50.49446" lon="5.50685">
        <ele>261</ele>
      </trkpt>
      <trkpt lat="50.49373" lon="5.50568">
        <ele>259</ele>
      </trkpt>
      <trkpt lat="50.49163" lon="5.50334">
        <ele>261.3</ele>
      </trkpt>
      <trkpt lat="50.49128" lon="5.50298">
        <ele>262</ele>
      </trkpt>
      <trkpt lat="50.49062" lon="5.50248">
        <ele>263.8</ele>
      </trkpt>
      <trkpt lat="50.49023" lon="5.50216">
        <ele>265.3</ele>
      </trkpt>
      <trkpt lat="50.4899" lon="5.50178">
        <ele>265.7</ele>
      </trkpt>
      <trkpt lat="50.4894" lon="5.50116">
        <ele>265.2</ele>
      </trkpt>
      <trkpt lat="50.48931" lon="5.50103">
        <ele>264.9</ele>
      </trkpt>
      <trkpt lat="50.48928" lon="5.50088">
        <ele>264</ele>
      </trkpt>
      <trkpt lat="50.48918" lon="5.50081">
        <ele>263.9</ele>
      </trkpt>
      <trkpt lat="50.48883" lon="5.50038">
        <ele>265.5</ele>
      </trkpt>
      <trkpt lat="50.48872" lon="5.50028">
        <ele>265.8</ele>
      </trkpt>
      <trkpt lat="50.48864" lon="5.50025">
        <ele>266.6</ele>
      </trkpt>
      <trkpt lat="50.48849" lon="5.50026">
        <ele>267.4</ele>
      </trkpt>
      <trkpt lat="50.48837" lon="5.50034">
        <ele>268.2</ele>
      </trkpt>
      <trkpt lat="50.48832" lon="5.50041">
        <ele>268.5</ele>
      </trkpt>
      <trkpt lat="50.48806" lon="5.50096">
        <ele>270.5</ele>
      </trkpt>
      <trkpt lat="50.48799" lon="5.50106">
        <ele>270.8</ele>
      </trkpt>
      <trkpt lat="50.48788" lon="5.50116">
        <ele>271.4</ele>
      </trkpt>
      <trkpt lat="50.48774" lon="5.50122">
        <ele>272</ele>
      </trkpt>
      <trkpt lat="50.48765" lon="5.50124">
        <ele>272.6</ele>
      </trkpt>
      <trkpt lat="50.48748" lon="5.50122">
        <ele>273.3</ele>
      </trkpt>
      <trkpt lat="50.48736" lon="5.50124">
        <ele>273.9</ele>
      </trkpt>
      <trkpt lat="50.48728" lon="5.50125">
        <ele>274.3</ele>
      </trkpt>
      <trkpt lat="50.48721" lon="5.50131">
        <ele>274.8</ele>
      </trkpt>
      <trkpt lat="50.48713" lon="5.50143">
        <ele>276.2</ele>
      </trkpt>
      <trkpt lat="50.48696" lon="5.50217">
        <ele>278.2</ele>
      </trkpt>
      <trkpt lat="50.48691" lon="5.50262">
        <ele>279.2</ele>
      </trkpt>
      <trkpt lat="50.48688" lon="5.50291">
        <ele>279.9</ele>
      </trkpt>
      <trkpt lat="50.48687" lon="5.50302">
        <ele>280.4</ele>
      </trkpt>
      <trkpt lat="50.48684" lon="5.50316">
        <ele>280.8</ele>
      </trkpt>
      <trkpt lat="50.48683" lon="5.50323">
        <ele>280.8</ele>
      </trkpt>
      <trkpt lat="50.48678" lon="5.50339">
        <ele>280.3</ele>
      </trkpt>
      <trkpt lat="50.48669" lon="5.50356">
        <ele>279.3</ele>
      </trkpt>
      <trkpt lat="50.48664" lon="5.50361">
        <ele>278.9</ele>
      </trkpt>
      <trkpt lat="50.48657" lon="5.50366">
        <ele>278.8</ele>
      </trkpt>
      <trkpt lat="50.48647" lon="5.50371">
        <ele>278.4</ele>
      </trkpt>
      <trkpt lat="50.4864" lon="5.50371">
        <ele>278.1</ele>
      </trkpt>
      <trkpt lat="50.48631" lon="5.5037">
        <ele>277.7</ele>
      </trkpt>
      <trkpt lat="50.48628" lon="5.50369">
        <ele>277.6</ele>
        <extensions>
          <visugpx:TrkExtension xmlns:visugpx="https://www.visugpx.com/editgpx/">
            <visugpx:node>9</visugpx:node>
            </visugpx:TrkExtension>
        </extensions>
      </trkpt>
      <trkpt lat="50.48625" lon="5.50367">
        <ele>277.5</ele>
      </trkpt>
      <trkpt lat="50.48606" lon="5.50344">
        <ele>276.7</ele>
      </trkpt>
      <trkpt lat="50.48566" lon="5.50273">
        <ele>276.4</ele>
      </trkpt>
      <trkpt lat="50.48505" lon="5.50203">
        <ele>275</ele>
      </trkpt>
      <trkpt lat="50.48443" lon="5.50137">
        <ele>275</ele>
      </trkpt>
      <trkpt lat="50.48424" lon="5.50111">
        <ele>275.1</ele>
      </trkpt>
      <trkpt lat="50.48402" lon="5.5007">
        <ele>274.9</ele>
      </trkpt>
      <trkpt lat="50.48394" lon="5.50052">
        <ele>274.8</ele>
      </trkpt>
      <trkpt lat="50.4837" lon="5.49998">
        <ele>274.3</ele>
      </trkpt>
      <trkpt lat="50.4822" lon="5.49754">
        <ele>281.8</ele>
      </trkpt>
      <trkpt lat="50.48066" lon="5.49516">
        <ele>289.8</ele>
      </trkpt>
      <trkpt lat="50.47973" lon="5.4933">
        <ele>292</ele>
      </trkpt>
      <trkpt lat="50.47893" lon="5.49166">
        <ele>291.2</ele>
      </trkpt>
      <trkpt lat="50.47875" lon="5.49133">
        <ele>291.5</ele>
      </trkpt>
      <trkpt lat="50.47871" lon="5.49125">
        <ele>291.4</ele>
      </trkpt>
      <trkpt lat="50.47863" lon="5.49119">
        <ele>291.1</ele>
      </trkpt>
      <trkpt lat="50.4786" lon="5.49104">
        <ele>291</ele>
      </trkpt>
      <trkpt lat="50.4781" lon="5.4902">
        <ele>291.4</ele>
      </trkpt>
      <trkpt lat="50.47757" lon="5.48926">
        <ele>292</ele>
      </trkpt>
      <trkpt lat="50.47727" lon="5.48867">
        <ele>292</ele>
      </trkpt>
      <trkpt lat="50.47715" lon="5.48828">
        <ele>292</ele>
      </trkpt>
      <trkpt lat="50.4758" lon="5.4847">
        <ele>294</ele>
      </trkpt>
      <trkpt lat="50.475" lon="5.48295">
        <ele>293</ele>
      </trkpt>
      <trkpt lat="50.47467" lon="5.48223">
        <ele>292.8</ele>
      </trkpt>
      <trkpt lat="50.47359" lon="5.47989">
        <ele>288.9</ele>
      </trkpt>
      <trkpt lat="50.47295" lon="5.47848">
        <ele>287.2</ele>
        <extensions>
          <visugpx:TrkExtension xmlns:visugpx="https://www.visugpx.com/editgpx/">
            <visugpx:node>10</visugpx:node>
            </visugpx:TrkExtension>
        </extensions>
      </trkpt>
      <trkpt lat="50.47264" lon="5.4778">
        <ele>286.5</ele>
      </trkpt>
      <trkpt lat="50.47201" lon="5.47602">
        <ele>286</ele>
      </trkpt>
      <trkpt lat="50.47115" lon="5.47366">
        <ele>287.7</ele>
      </trkpt>
      <trkpt lat="50.46971" lon="5.46967">
        <ele>291</ele>
      </trkpt>
      <trkpt lat="50.46898" lon="5.46772">
        <ele>290.5</ele>
      </trkpt>
      <trkpt lat="50.46865" lon="5.46638">
        <ele>291.1</ele>
      </trkpt>
      <trkpt lat="50.46829" lon="5.46465">
        <ele>291.2</ele>
      </trkpt>
      <trkpt lat="50.46825" lon="5.46423">
        <ele>291.3</ele>
      </trkpt>
      <trkpt lat="50.46822" lon="5.46384">
        <ele>291.3</ele>
      </trkpt>
      <trkpt lat="50.4682" lon="5.46339">
        <ele>291</ele>
      </trkpt>
      <trkpt lat="50.4679" lon="5.4634">
        <ele>291</ele>
      </trkpt>
      <trkpt lat="50.46742" lon="5.46339">
        <ele>290</ele>
      </trkpt>
      <trkpt lat="50.46689" lon="5.46325">
        <ele>290</ele>
      </trkpt>
      <trkpt lat="50.46662" lon="5.46319">
        <ele>290</ele>
        <extensions>
          <visugpx:TrkExtension xmlns:visugpx="https://www.visugpx.com/editgpx/">
            <visugpx:node>11</visugpx:node>
            </visugpx:TrkExtension>
        </extensions>
      </trkpt>
      <trkpt lat="50.46631" lon="5.46312">
        <ele>290</ele>
      </trkpt>
      <trkpt lat="50.46504" lon="5.46297">
        <ele>288.4</ele>
      </trkpt>
      <trkpt lat="50.46463" lon="5.46303">
        <ele>287.8</ele>
      </trkpt>
      <trkpt lat="50.46354" lon="5.463">
        <ele>287.2</ele>
      </trkpt>
      <trkpt lat="50.46248" lon="5.46319">
        <ele>289</ele>
      </trkpt>
      <trkpt lat="50.4611" lon="5.46329">
        <ele>285.1</ele>
      </trkpt>
      <trkpt lat="50.461" lon="5.46328">
        <ele>284.4</ele>
      </trkpt>
      <trkpt lat="50.46075" lon="5.46318">
        <ele>282.5</ele>
      </trkpt>
      <trkpt lat="50.46054" lon="5.463">
        <ele>280</ele>
      </trkpt>
      <trkpt lat="50.46033" lon="5.4629">
        <ele>277.3</ele>
      </trkpt>
      <trkpt lat="50.46026" lon="5.46283">
        <ele>276.5</ele>
      </trkpt>
      <trkpt lat="50.46004" lon="5.46244">
        <ele>273.3</ele>
      </trkpt>
      <trkpt lat="50.45996" lon="5.46242">
        <ele>272</ele>
      </trkpt>
      <trkpt lat="50.45988" lon="5.46246">
        <ele>270.5</ele>
      </trkpt>
      <trkpt lat="50.45983" lon="5.46253">
        <ele>269.5</ele>
      </trkpt>
      <trkpt lat="50.45976" lon="5.46268">
        <ele>268</ele>
      </trkpt>
      <trkpt lat="50.45969" lon="5.4628">
        <ele>266.3</ele>
      </trkpt>
      <trkpt lat="50.4596" lon="5.46286">
        <ele>264.6</ele>
      </trkpt>
      <trkpt lat="50.45825" lon="5.46326">
        <ele>251.5</ele>
      </trkpt>
      <trkpt lat="50.45758" lon="5.46342">
        <ele>243.8</ele>
      </trkpt>
      <trkpt lat="50.4576" lon="5.46396">
        <ele>244.5</ele>
      </trkpt>
      <trkpt lat="50.45766" lon="5.46451">
        <ele>244.4</ele>
      </trkpt>
      <trkpt lat="50.4577" lon="5.46472">
        <ele>243.6</ele>
      </trkpt>
      <trkpt lat="50.45781" lon="5.46506">
        <ele>243.8</ele>
      </trkpt>
      <trkpt lat="50.45846" lon="5.4669">
        <ele>236.7</ele>
      </trkpt>
      <trkpt lat="50.45853" lon="5.46714">
        <ele>235.7</ele>
      </trkpt>
      <trkpt lat="50.45855" lon="5.46725">
        <ele>235.1</ele>
        <extensions>
          <visugpx:TrkExtension xmlns:visugpx="https://www.visugpx.com/editgpx/">
            <visugpx:node>12</visugpx:node>
            </visugpx:TrkExtension>
        </extensions>
      </trkpt>
      <trkpt lat="50.45856" lon="5.46733">
        <ele>234.7</ele>
      </trkpt>
      <trkpt lat="50.45858" lon="5.46776">
        <ele>232.7</ele>
      </trkpt>
      <trkpt lat="50.45852" lon="5.4682">
        <ele>231.7</ele>
      </trkpt>
      <trkpt lat="50.45846" lon="5.46842">
        <ele>231.5</ele>
      </trkpt>
      <trkpt lat="50.45823" lon="5.46883">
        <ele>228.1</ele>
      </trkpt>
      <trkpt lat="50.45749" lon="5.46964">
        <ele>224</ele>
      </trkpt>
      <trkpt lat="50.45737" lon="5.46972">
        <ele>224.5</ele>
      </trkpt>
      <trkpt lat="50.45714" lon="5.46979">
        <ele>226.7</ele>
      </trkpt>
      <trkpt lat="50.45704" lon="5.46977">
        <ele>227.4</ele>
      </trkpt>
      <trkpt lat="50.45656" lon="5.46955">
        <ele>230.9</ele>
      </trkpt>
      <trkpt lat="50.45646" lon="5.46954">
        <ele>231.7</ele>
      </trkpt>
      <trkpt lat="50.45637" lon="5.46959">
        <ele>232.7</ele>
      </trkpt>
      <trkpt lat="50.45629" lon="5.4697">
        <ele>234</ele>
      </trkpt>
      <trkpt lat="50.45626" lon="5.4698">
        <ele>234.7</ele>
      </trkpt>
      <trkpt lat="50.45622" lon="5.46993">
        <ele>235.6</ele>
      </trkpt>
      <trkpt lat="50.45619" lon="5.47015">
        <ele>236.1</ele>
      </trkpt>
      <trkpt lat="50.45611" lon="5.47083">
        <ele>237</ele>
      </trkpt>
      <trkpt lat="50.45592" lon="5.47222">
        <ele>242.4</ele>
      </trkpt>
      <trkpt lat="50.45579" lon="5.47296">
        <ele>245.6</ele>
      </trkpt>
      <trkpt lat="50.45545" lon="5.4746">
        <ele>244.1</ele>
      </trkpt>
      <trkpt lat="50.45542" lon="5.47474">
        <ele>243.4</ele>
      </trkpt>
      <trkpt lat="50.45595" lon="5.47521">
        <ele>243.7</ele>
      </trkpt>
      <trkpt lat="50.45556" lon="5.47655">
        <ele>235.4</ele>
      </trkpt>
      <trkpt lat="50.45483" lon="5.47892">
        <ele>241.9</ele>
      </trkpt>
      <trkpt lat="50.45395" lon="5.48181">
        <ele>259.6</ele>
      </trkpt>
      <trkpt lat="50.45395" lon="5.4818">
        <ele>259.6</ele>
        <extensions>
          <visugpx:TrkExtension xmlns:visugpx="https://www.visugpx.com/editgpx/">
            <visugpx:node>13</visugpx:node>
            </visugpx:TrkExtension>
        </extensions>
      </trkpt>
      <trkpt lat="50.45385" lon="5.48166">
        <ele>260.1</ele>
      </trkpt>
      <trkpt lat="50.45373" lon="5.48142">
        <ele>260.2</ele>
      </trkpt>
      <trkpt lat="50.45334" lon="5.48048">
        <ele>261.7</ele>
      </trkpt>
      <trkpt lat="50.45304" lon="5.4799">
        <ele>262.7</ele>
      </trkpt>
      <trkpt lat="50.45196" lon="5.4781">
        <ele>265.9</ele>
      </trkpt>
      <trkpt lat="50.45146" lon="5.47755">
        <ele>267.7</ele>
      </trkpt>
      <trkpt lat="50.45105" lon="5.47697">
        <ele>268.3</ele>
      </trkpt>
      <trkpt lat="50.4506" lon="5.47671">
        <ele>268.9</ele>
      </trkpt>
      <trkpt lat="50.44998" lon="5.47627">
        <ele>269</ele>
      </trkpt>
      <trkpt lat="50.44953" lon="5.47587">
        <ele>269</ele>
      </trkpt>
      <trkpt lat="50.44922" lon="5.4756">
        <ele>269</ele>
        <extensions>
          <visugpx:TrkExtension xmlns:visugpx="https://www.visugpx.com/editgpx/">
            <visugpx:node>14</visugpx:node>
            </visugpx:TrkExtension>
        </extensions>
      </trkpt>
      <trkpt lat="50.44907" lon="5.47546">
        <ele>269.1</ele>
      </trkpt>
      <trkpt lat="50.44892" lon="5.47529">
        <ele>269.8</ele>
      </trkpt>
      <trkpt lat="50.44876" lon="5.47509">
        <ele>269.8</ele>
      </trkpt>
      <trkpt lat="50.44839" lon="5.47454">
        <ele>270</ele>
      </trkpt>
      <trkpt lat="50.4458" lon="5.47072">
        <ele>275.1</ele>
      </trkpt>
      <trkpt lat="50.44534" lon="5.47008">
        <ele>276.2</ele>
      </trkpt>
      <trkpt lat="50.44501" lon="5.46965">
        <ele>277.3</ele>
      </trkpt>
      <trkpt lat="50.44464" lon="5.46917">
        <ele>279</ele>
      </trkpt>
      <trkpt lat="50.4444" lon="5.46887">
        <ele>279.1</ele>
      </trkpt>
      <trkpt lat="50.44419" lon="5.46853">
        <ele>279.4</ele>
      </trkpt>
      <trkpt lat="50.44372" lon="5.4676">
        <ele>279.8</ele>
      </trkpt>
      <trkpt lat="50.44346" lon="5.46707">
        <ele>280</ele>
      </trkpt>
      <trkpt lat="50.44326" lon="5.46668">
        <ele>280.7</ele>
        <extensions>
          <visugpx:TrkExtension xmlns:visugpx="https://www.visugpx.com/editgpx/">
            <visugpx:node>15</visugpx:node>
            </visugpx:TrkExtension>
        </extensions>
      </trkpt>
      <trkpt lat="50.4431" lon="5.46637">
        <ele>281</ele>
      </trkpt>
      <trkpt lat="50.4421" lon="5.46403">
        <ele>282.2</ele>
      </trkpt>
      <trkpt lat="50.44209" lon="5.46397">
        <ele>282.1</ele>
      </trkpt>
      <trkpt lat="50.44208" lon="5.46391">
        <ele>282</ele>
      </trkpt>
      <trkpt lat="50.44211" lon="5.4638">
        <ele>281.8</ele>
      </trkpt>
      <trkpt lat="50.44162" lon="5.4634">
        <ele>283.4</ele>
      </trkpt>
      <trkpt lat="50.4414" lon="5.46323">
        <ele>283.9</ele>
      </trkpt>
      <trkpt lat="50.4413" lon="5.46317">
        <ele>284.3</ele>
      </trkpt>
      <trkpt lat="50.44125" lon="5.46316">
        <ele>284.5</ele>
      </trkpt>
      <trkpt lat="50.44119" lon="5.46315">
        <ele>284.7</ele>
      </trkpt>
      <trkpt lat="50.44115" lon="5.46314">
        <ele>284.9</ele>
      </trkpt>
      <trkpt lat="50.44106" lon="5.46314">
        <ele>284.9</ele>
      </trkpt>
      <trkpt lat="50.44094" lon="5.46314">
        <ele>284.8</ele>
      </trkpt>
      <trkpt lat="50.44095" lon="5.46287">
        <ele>285</ele>
      </trkpt>
      <trkpt lat="50.44095" lon="5.46281">
        <ele>285</ele>
      </trkpt>
      <trkpt lat="50.44095" lon="5.46267">
        <ele>285</ele>
      </trkpt>
      <trkpt lat="50.44096" lon="5.46255">
        <ele>285</ele>
      </trkpt>
      <trkpt lat="50.44098" lon="5.46227">
        <ele>285.4</ele>
      </trkpt>
      <trkpt lat="50.44102" lon="5.46116">
        <ele>285.9</ele>
      </trkpt>
      <trkpt lat="50.44091" lon="5.46113">
        <ele>286</ele>
      </trkpt>
      <trkpt lat="50.44037" lon="5.46078">
        <ele>287.7</ele>
      </trkpt>
      <trkpt lat="50.44018" lon="5.46063">
        <ele>288</ele>
      </trkpt>
      <trkpt lat="50.44005" lon="5.46049">
        <ele>288</ele>
      </trkpt>
      <trkpt lat="50.43992" lon="5.46032">
        <ele>288</ele>
      </trkpt>
      <trkpt lat="50.43961" lon="5.45993">
        <ele>288</ele>
      </trkpt>
      <trkpt lat="50.43939" lon="5.45965">
        <ele>288</ele>
      </trkpt>
      <trkpt lat="50.43924" lon="5.45944">
        <ele>288</ele>
      </trkpt>
      <trkpt lat="50.43901" lon="5.45901">
        <ele>288.2</ele>
      </trkpt>
      <trkpt lat="50.439" lon="5.45897">
        <ele>288.2</ele>
      </trkpt>
      <trkpt lat="50.43887" lon="5.45868">
        <ele>288</ele>
      </trkpt>
      <trkpt lat="50.43888" lon="5.45889">
        <ele>288</ele>
      </trkpt>
      <trkpt lat="50.43893" lon="5.45902">
        <ele>288.4</ele>
        <extensions>
          <visugpx:TrkExtension xmlns:visugpx="https://www.visugpx.com/editgpx/">
            <visugpx:node>16</visugpx:node>
            </visugpx:TrkExtension>
        </extensions>
      </trkpt>
      <trkpt lat="50.43888" lon="5.45889">
        <ele>288</ele>
      </trkpt>
      <trkpt lat="50.43887" lon="5.45868">
        <ele>288</ele>
      </trkpt>
      <trkpt lat="50.4386" lon="5.45781">
        <ele>288</ele>
      </trkpt>
      <trkpt lat="50.43841" lon="5.45722">
        <ele>287</ele>
      </trkpt>
      <trkpt lat="50.4383" lon="5.45687">
        <ele>286.7</ele>
      </trkpt>
      <trkpt lat="50.43833" lon="5.45663">
        <ele>285.9</ele>
      </trkpt>
      <trkpt lat="50.43878" lon="5.45412">
        <ele>281.6</ele>
      </trkpt>
      <trkpt lat="50.43883" lon="5.45377">
        <ele>281.5</ele>
      </trkpt>
      <trkpt lat="50.43886" lon="5.45338">
        <ele>281</ele>
      </trkpt>
      <trkpt lat="50.43887" lon="5.45309">
        <ele>281</ele>
      </trkpt>
      <trkpt lat="50.43885" lon="5.4528">
        <ele>281</ele>
      </trkpt>
      <trkpt lat="50.43867" lon="5.45194">
        <ele>281</ele>
      </trkpt>
      <trkpt lat="50.4383" lon="5.45038">
        <ele>282</ele>
      </trkpt>
      <trkpt lat="50.43805" lon="5.44941">
        <ele>282</ele>
      </trkpt>
      <trkpt lat="50.4378" lon="5.44841">
        <ele>282.7</ele>
      </trkpt>
      <trkpt lat="50.43776" lon="5.44832">
        <ele>282.9</ele>
      </trkpt>
      <trkpt lat="50.43746" lon="5.4475">
        <ele>282.9</ele>
      </trkpt>
      <trkpt lat="50.43686" lon="5.44602">
        <ele>281.8</ele>
      </trkpt>
      <trkpt lat="50.43669" lon="5.44555">
        <ele>281.2</ele>
      </trkpt>
      <trkpt lat="50.43645" lon="5.44468">
        <ele>281.2</ele>
      </trkpt>
      <trkpt lat="50.43611" lon="5.44357">
        <ele>280</ele>
      </trkpt>
      <trkpt lat="50.43589" lon="5.44271">
        <ele>278.2</ele>
      </trkpt>
      <trkpt lat="50.43576" lon="5.44197">
        <ele>277.7</ele>
      </trkpt>
      <trkpt lat="50.43538" lon="5.44023">
        <ele>275.4</ele>
      </trkpt>
      <trkpt lat="50.4349" lon="5.43874">
        <ele>272.8</ele>
      </trkpt>
      <trkpt lat="50.43454" lon="5.43792">
        <ele>271.2</ele>
      </trkpt>
      <trkpt lat="50.43432" lon="5.43743">
        <ele>270.7</ele>
      </trkpt>
      <trkpt lat="50.43424" lon="5.43729">
        <ele>270.2</ele>
      </trkpt>
      <trkpt lat="50.43403" lon="5.43691">
        <ele>269.9</ele>
      </trkpt>
      <trkpt lat="50.434" lon="5.43686">
        <ele>269.7</ele>
      </trkpt>
      <trkpt lat="50.43393" lon="5.43674">
        <ele>269.3</ele>
      </trkpt>
      <trkpt lat="50.43356" lon="5.43617">
        <ele>267.9</ele>
      </trkpt>
      <trkpt lat="50.43329" lon="5.43571">
        <ele>266.9</ele>
      </trkpt>
      <trkpt lat="50.43281" lon="5.43503">
        <ele>265.1</ele>
      </trkpt>
      <trkpt lat="50.43211" lon="5.43399">
        <ele>262.2</ele>
      </trkpt>
      <trkpt lat="50.43132" lon="5.43261">
        <ele>257.3</ele>
      </trkpt>
      <trkpt lat="50.43108" lon="5.43215">
        <ele>254.9</ele>
      </trkpt>
      <trkpt lat="50.43077" lon="5.43187">
        <ele>252.5</ele>
      </trkpt>
      <trkpt lat="50.4303" lon="5.43157">
        <ele>248.8</ele>
      </trkpt>
      <trkpt lat="50.42967" lon="5.4311">
        <ele>246</ele>
      </trkpt>
      <trkpt lat="50.42946" lon="5.43078">
        <ele>244.8</ele>
      </trkpt>
      <trkpt lat="50.42918" lon="5.43016">
        <ele>243.1</ele>
      </trkpt>
      <trkpt lat="50.42875" lon="5.42926">
        <ele>241</ele>
      </trkpt>
      <trkpt lat="50.42837" lon="5.42829">
        <ele>239.4</ele>
      </trkpt>
      <trkpt lat="50.42811" lon="5.4276">
        <ele>238.8</ele>
      </trkpt>
      <trkpt lat="50.42763" lon="5.42598">
        <ele>236.1</ele>
      </trkpt>
      <trkpt lat="50.42749" lon="5.42561">
        <ele>235.5</ele>
      </trkpt>
      <trkpt lat="50.42726" lon="5.42516">
        <ele>233.9</ele>
      </trkpt>
      <trkpt lat="50.42721" lon="5.42506">
        <ele>233.5</ele>
      </trkpt>
      <trkpt lat="50.42694" lon="5.42452">
        <ele>231.6</ele>
      </trkpt>
      <trkpt lat="50.42657" lon="5.42392">
        <ele>230.7</ele>
      </trkpt>
      <trkpt lat="50.42637" lon="5.42363">
        <ele>228.5</ele>
      </trkpt>
      <trkpt lat="50.42625" lon="5.42333">
        <ele>228</ele>
      </trkpt>
      <trkpt lat="50.426" lon="5.4214">
        <ele>232.2</ele>
      </trkpt>
      <trkpt lat="50.42585" lon="5.42103">
        <ele>233.8</ele>
      </trkpt>
      <trkpt lat="50.42515" lon="5.41988">
        <ele>238.2</ele>
      </trkpt>
      <trkpt lat="50.42482" lon="5.41934">
        <ele>239.8</ele>
      </trkpt>
      <trkpt lat="50.42506" lon="5.41947">
        <ele>238.8</ele>
      </trkpt>
      <trkpt lat="50.42569" lon="5.41991">
        <ele>234.2</ele>
        <extensions>
          <visugpx:TrkExtension xmlns:visugpx="https://www.visugpx.com/editgpx/">
            <visugpx:node>17</visugpx:node>
            </visugpx:TrkExtension>
        </extensions>
      </trkpt>
      <trkpt lat="50.4266" lon="5.42054">
        <ele>230.9</ele>
      </trkpt>
      <trkpt lat="50.42793" lon="5.42116">
        <ele>240.5</ele>
      </trkpt>
      <trkpt lat="50.42835" lon="5.42132">
        <ele>243.1</ele>
      </trkpt>
      <trkpt lat="50.42862" lon="5.42136">
        <ele>244.2</ele>
      </trkpt>
      <trkpt lat="50.429" lon="5.42139">
        <ele>246.4</ele>
      </trkpt>
      <trkpt lat="50.42969" lon="5.42132">
        <ele>251.9</ele>
      </trkpt>
      <trkpt lat="50.43001" lon="5.42142">
        <ele>255</ele>
      </trkpt>
      <trkpt lat="50.43019" lon="5.42153">
        <ele>256.5</ele>
      </trkpt>
      <trkpt lat="50.43058" lon="5.42199">
        <ele>259</ele>
      </trkpt>
      <trkpt lat="50.43069" lon="5.42205">
        <ele>259.6</ele>
      </trkpt>
      <trkpt lat="50.43072" lon="5.42195">
        <ele>260.2</ele>
      </trkpt>
      <trkpt lat="50.43264" lon="5.42063">
        <ele>272.2</ele>
      </trkpt>
      <trkpt lat="50.43402" lon="5.4194">
        <ele>281.5</ele>
      </trkpt>
      <trkpt lat="50.43476" lon="5.41862">
        <ele>284</ele>
      </trkpt>
      <trkpt lat="50.43602" lon="5.41713">
        <ele>280.9</ele>
      </trkpt>
      <trkpt lat="50.43649" lon="5.41665">
        <ele>278.9</ele>
      </trkpt>
      <trkpt lat="50.43697" lon="5.41603">
        <ele>277.7</ele>
      </trkpt>
      <trkpt lat="50.43739" lon="5.41542">
        <ele>276.5</ele>
      </trkpt>
      <trkpt lat="50.43795" lon="5.41454">
        <ele>273.3</ele>
      </trkpt>
      <trkpt lat="50.43829" lon="5.41436">
        <ele>270.1</ele>
      </trkpt>
      <trkpt lat="50.43867" lon="5.41407">
        <ele>267</ele>
      </trkpt>
      <trkpt lat="50.43896" lon="5.41376">
        <ele>265.5</ele>
      </trkpt>
      <trkpt lat="50.43976" lon="5.41259">
        <ele>269.2</ele>
      </trkpt>
      <trkpt lat="50.43979" lon="5.41238">
        <ele>269.9</ele>
      </trkpt>
      <trkpt lat="50.43975" lon="5.4105">
        <ele>276.3</ele>
      </trkpt>
      <trkpt lat="50.43971" lon="5.40991">
        <ele>277.3</ele>
      </trkpt>
      <trkpt lat="50.4397" lon="5.40983">
        <ele>277.5</ele>
        <extensions>
          <visugpx:TrkExtension xmlns:visugpx="https://www.visugpx.com/editgpx/">
            <visugpx:node>18</visugpx:node>
            </visugpx:TrkExtension>
        </extensions>
      </trkpt>
      <trkpt lat="50.4396" lon="5.40934">
        <ele>277.6</ele>
      </trkpt>
      <trkpt lat="50.43942" lon="5.40874">
        <ele>275.4</ele>
      </trkpt>
      <trkpt lat="50.43918" lon="5.40814">
        <ele>272.4</ele>
      </trkpt>
      <trkpt lat="50.43891" lon="5.40762">
        <ele>269.7</ele>
      </trkpt>
      <trkpt lat="50.43853" lon="5.40676">
        <ele>266.9</ele>
      </trkpt>
      <trkpt lat="50.43869" lon="5.40653">
        <ele>268.1</ele>
      </trkpt>
      <trkpt lat="50.439" lon="5.40612">
        <ele>269.2</ele>
      </trkpt>
      <trkpt lat="50.43942" lon="5.40561">
        <ele>269.4</ele>
      </trkpt>
      <trkpt lat="50.4398" lon="5.40508">
        <ele>272.7</ele>
      </trkpt>
      <trkpt lat="50.43984" lon="5.40486">
        <ele>273.8</ele>
      </trkpt>
      <trkpt lat="50.43985" lon="5.40408">
        <ele>273.9</ele>
      </trkpt>
      <trkpt lat="50.43998" lon="5.4036">
        <ele>273.9</ele>
      </trkpt>
      <trkpt lat="50.4401" lon="5.40333">
        <ele>274.7</ele>
      </trkpt>
      <trkpt lat="50.44016" lon="5.40313">
        <ele>275.3</ele>
      </trkpt>
      <trkpt lat="50.44021" lon="5.40243">
        <ele>277.9</ele>
      </trkpt>
      <trkpt lat="50.4402" lon="5.40222">
        <ele>278.5</ele>
      </trkpt>
      <trkpt lat="50.44052" lon="5.40223">
        <ele>281.6</ele>
      </trkpt>
      <trkpt lat="50.44086" lon="5.40219">
        <ele>285.5</ele>
      </trkpt>
      <trkpt lat="50.44094" lon="5.40215">
        <ele>286.7</ele>
      </trkpt>
      <trkpt lat="50.44108" lon="5.40203">
        <ele>288.6</ele>
      </trkpt>
      <trkpt lat="50.44143" lon="5.40172">
        <ele>293.2</ele>
      </trkpt>
      <trkpt lat="50.44164" lon="5.40154">
        <ele>295.3</ele>
      </trkpt>
      <trkpt lat="50.44176" lon="5.4014">
        <ele>296.3</ele>
      </trkpt>
      <trkpt lat="50.44184" lon="5.40127">
        <ele>296.6</ele>
      </trkpt>
      <trkpt lat="50.44196" lon="5.4011">
        <ele>297</ele>
      </trkpt>
      <trkpt lat="50.44198" lon="5.40106">
        <ele>296.8</ele>
      </trkpt>
      <trkpt lat="50.44192" lon="5.40079">
        <ele>296</ele>
      </trkpt>
      <trkpt lat="50.44186" lon="5.40045">
        <ele>295.4</ele>
      </trkpt>
      <trkpt lat="50.44206" lon="5.40025">
        <ele>294.3</ele>
      </trkpt>
      <trkpt lat="50.44234" lon="5.39994">
        <ele>292.7</ele>
      </trkpt>
      <trkpt lat="50.44269" lon="5.39964">
        <ele>289.4</ele>
        <extensions>
          <visugpx:TrkExtension xmlns:visugpx="https://www.visugpx.com/editgpx/">
            <visugpx:node>19</visugpx:node>
            </visugpx:TrkExtension>
        </extensions>
      </trkpt>
      <trkpt lat="50.44269" lon="5.39964">
        <ele>289.4</ele>
      </trkpt>
      <trkpt lat="50.44288" lon="5.39875">
        <ele>285.1</ele>
      </trkpt>
      <trkpt lat="50.44331" lon="5.39637">
        <ele>277.2</ele>
      </trkpt>
      <trkpt lat="50.4434" lon="5.39593">
        <ele>276.8</ele>
      </trkpt>
      <trkpt lat="50.44341" lon="5.39551">
        <ele>276.6</ele>
        <extensions>
          <visugpx:TrkExtension xmlns:visugpx="https://www.visugpx.com/editgpx/">
            <visugpx:node>20</visugpx:node>
            </visugpx:TrkExtension>
        </extensions>
      </trkpt>
      <trkpt lat="50.44341" lon="5.39541">
        <ele>276.3</ele>
        <extensions>
          <visugpx:TrkExtension xmlns:visugpx="https://www.visugpx.com/editgpx/">
            <visugpx:node>21</visugpx:node>
            </visugpx:TrkExtension>
        </extensions>
      </trkpt>
      <trkpt lat="50.44334" lon="5.39">
        <ele>265</ele>
      </trkpt>
      <trkpt lat="50.44331" lon="5.3896">
        <ele>264.5</ele>
      </trkpt>
      <trkpt lat="50.4427" lon="5.38659">
        <ele>264</ele>
      </trkpt>
      <trkpt lat="50.44262" lon="5.38631">
        <ele>263.6</ele>
      </trkpt>
      <trkpt lat="50.44002" lon="5.38079">
        <ele>266.8</ele>
      </trkpt>
      <trkpt lat="50.43708" lon="5.37453">
        <ele>249.8</ele>
      </trkpt>
      <trkpt lat="50.43592" lon="5.37202">
        <ele>243.8</ele>
      </trkpt>
      <trkpt lat="50.43412" lon="5.36819">
        <ele>258.1</ele>
      </trkpt>
      <trkpt lat="50.4338" lon="5.36752">
        <ele>259</ele>
      </trkpt>
      <trkpt lat="50.43323" lon="5.36636">
        <ele>260</ele>
        <extensions>
          <visugpx:TrkExtension xmlns:visugpx="https://www.visugpx.com/editgpx/">
            <visugpx:node>22</visugpx:node>
            </visugpx:TrkExtension>
        </extensions>
      </trkpt>
      <trkpt lat="50.43321" lon="5.36633">
        <ele>260.1</ele>
      </trkpt>
      <trkpt lat="50.43221" lon="5.36417">
        <ele>263</ele>
      </trkpt>
      <trkpt lat="50.43213" lon="5.36401">
        <ele>263</ele>
      </trkpt>
      <trkpt lat="50.43185" lon="5.3634">
        <ele>263.8</ele>
      </trkpt>
      <trkpt lat="50.4314" lon="5.36244">
        <ele>264</ele>
      </trkpt>
      <trkpt lat="50.43134" lon="5.36232">
        <ele>264.3</ele>
      </trkpt>
      <trkpt lat="50.43004" lon="5.35957">
        <ele>265.9</ele>
      </trkpt>
      <trkpt lat="50.42972" lon="5.35889">
        <ele>265</ele>
      </trkpt>
      <trkpt lat="50.42835" lon="5.35598">
        <ele>262.5</ele>
      </trkpt>
      <trkpt lat="50.42821" lon="5.35555">
        <ele>262</ele>
      </trkpt>
      <trkpt lat="50.42811" lon="5.35512">
        <ele>261.5</ele>
      </trkpt>
      <trkpt lat="50.428" lon="5.35474">
        <ele>261</ele>
      </trkpt>
      <trkpt lat="50.42752" lon="5.35325">
        <ele>260.1</ele>
      </trkpt>
      <trkpt lat="50.42744" lon="5.35302">
        <ele>259.5</ele>
      </trkpt>
      <trkpt lat="50.42722" lon="5.3539">
        <ele>260</ele>
        <extensions>
          <visugpx:TrkExtension xmlns:visugpx="https://www.visugpx.com/editgpx/">
            <visugpx:node>23</visugpx:node>
            </visugpx:TrkExtension>
        </extensions>
      </trkpt>
      <trkpt lat="50.42642" lon="5.35722">
        <ele>263</ele>
      </trkpt>
      <trkpt lat="50.42631" lon="5.35705">
        <ele>263.2</ele>
      </trkpt>
      <trkpt lat="50.42621" lon="5.3569">
        <ele>263.6</ele>
      </trkpt>
      <trkpt lat="50.42612" lon="5.35672">
        <ele>263.2</ele>
      </trkpt>
      <trkpt lat="50.4253" lon="5.35454">
        <ele>264.9</ele>
      </trkpt>
      <trkpt lat="50.42504" lon="5.35386">
        <ele>265.6</ele>
      </trkpt>
      <trkpt lat="50.4249" lon="5.35355">
        <ele>265.6</ele>
      </trkpt>
      <trkpt lat="50.42474" lon="5.35331">
        <ele>265.9</ele>
      </trkpt>
      <trkpt lat="50.4234" lon="5.35207">
        <ele>269.4</ele>
      </trkpt>
      <trkpt lat="50.42293" lon="5.35166">
        <ele>271.3</ele>
      </trkpt>
      <trkpt lat="50.42274" lon="5.35146">
        <ele>272.5</ele>
      </trkpt>
      <trkpt lat="50.42239" lon="5.351">
        <ele>273.1</ele>
      </trkpt>
      <trkpt lat="50.42201" lon="5.35056">
        <ele>273.8</ele>
      </trkpt>
      <trkpt lat="50.42085" lon="5.34938">
        <ele>275.9</ele>
      </trkpt>
      <trkpt lat="50.42045" lon="5.34891">
        <ele>276.4</ele>
      </trkpt>
      <trkpt lat="50.41833" lon="5.34467">
        <ele>270</ele>
        <extensions>
          <visugpx:TrkExtension xmlns:visugpx="https://www.visugpx.com/editgpx/">
            <visugpx:node>24</visugpx:node>
            </visugpx:TrkExtension>
        </extensions>
      </trkpt>
      <trkpt lat="50.41786" lon="5.34404">
        <ele>274.5</ele>
      </trkpt>
      <trkpt lat="50.41798" lon="5.34347">
        <ele>269.3</ele>
      </trkpt>
      <trkpt lat="50.41078" lon="5.34244">
        <ele>273.2</ele>
      </trkpt>
      <trkpt lat="50.41018" lon="5.34245">
        <ele>274.8</ele>
      </trkpt>
      <trkpt lat="50.41006" lon="5.34246">
        <ele>274.8</ele>
      </trkpt>
      <trkpt lat="50.40995" lon="5.34249">
        <ele>275</ele>
      </trkpt>
      <trkpt lat="50.40984" lon="5.34246">
        <ele>274.8</ele>
      </trkpt>
      <trkpt lat="50.40957" lon="5.34244">
        <ele>274.9</ele>
      </trkpt>
      <trkpt lat="50.40068" lon="5.34097">
        <ele>312.5</ele>
      </trkpt>
      <trkpt lat="50.39967" lon="5.34077">
        <ele>315</ele>
      </trkpt>
      <trkpt lat="50.39967" lon="5.3407">
        <ele>315.1</ele>
      </trkpt>
      <trkpt lat="50.39964" lon="5.34055">
        <ele>315.3</ele>
      </trkpt>
      <trkpt lat="50.39933" lon="5.33965">
        <ele>314.8</ele>
      </trkpt>
      <trkpt lat="50.39917" lon="5.33894">
        <ele>313.2</ele>
      </trkpt>
      <trkpt lat="50.39909" lon="5.3387">
        <ele>313.5</ele>
      </trkpt>
      <trkpt lat="50.39891" lon="5.33822">
        <ele>313.9</ele>
        <extensions>
          <visugpx:TrkExtension xmlns:visugpx="https://www.visugpx.com/editgpx/">
            <visugpx:node>25</visugpx:node>
            </visugpx:TrkExtension>
        </extensions>
      </trkpt>
      <trkpt lat="50.39861" lon="5.33752">
        <ele>315</ele>
      </trkpt>
      <trkpt lat="50.39829" lon="5.33683">
        <ele>315.3</ele>
      </trkpt>
      <trkpt lat="50.39806" lon="5.33629">
        <ele>316</ele>
      </trkpt>
      <trkpt lat="50.3978" lon="5.33584">
        <ele>316</ele>
      </trkpt>
      <trkpt lat="50.39726" lon="5.335">
        <ele>318</ele>
      </trkpt>
      <trkpt lat="50.39707" lon="5.33466">
        <ele>318</ele>
      </trkpt>
      <trkpt lat="50.39689" lon="5.33426">
        <ele>318.6</ele>
        <extensions>
          <visugpx:TrkExtension xmlns:visugpx="https://www.visugpx.com/editgpx/">
            <visugpx:node>26</visugpx:node>
            </visugpx:TrkExtension>
        </extensions>
      </trkpt>
      <trkpt lat="50.39686" lon="5.33424">
        <ele>318.7</ele>
        <extensions>
          <visugpx:TrkExtension xmlns:visugpx="https://www.visugpx.com/editgpx/">
            <visugpx:node>27</visugpx:node>
            </visugpx:TrkExtension>
        </extensions>
      </trkpt>
      <trkpt lat="50.39659" lon="5.33335">
        <ele>319</ele>
      </trkpt>
      <trkpt lat="50.39645" lon="5.33294">
        <ele>319</ele>
      </trkpt>
      <trkpt lat="50.39641" lon="5.33282">
        <ele>319</ele>
      </trkpt>
      <trkpt lat="50.39622" lon="5.33242">
        <ele>319.6</ele>
      </trkpt>
      <trkpt lat="50.3958" lon="5.3316">
        <ele>320</ele>
      </trkpt>
      <trkpt lat="50.39548" lon="5.33099">
        <ele>320</ele>
      </trkpt>
      <trkpt lat="50.395" lon="5.33006">
        <ele>320</ele>
      </trkpt>
      <trkpt lat="50.39429" lon="5.3287">
        <ele>320</ele>
      </trkpt>
      <trkpt lat="50.39369" lon="5.32751">
        <ele>319.7</ele>
      </trkpt>
      <trkpt lat="50.39322" lon="5.32665">
        <ele>319</ele>
      </trkpt>
      <trkpt lat="50.39241" lon="5.32508">
        <ele>317.1</ele>
      </trkpt>
      <trkpt lat="50.39199" lon="5.32449">
        <ele>317</ele>
      </trkpt>
      <trkpt lat="50.3918" lon="5.32422">
        <ele>316.7</ele>
      </trkpt>
      <trkpt lat="50.39167" lon="5.32402">
        <ele>316.5</ele>
      </trkpt>
      <trkpt lat="50.39153" lon="5.32383">
        <ele>316.4</ele>
      </trkpt>
      <trkpt lat="50.39142" lon="5.3237">
        <ele>316.3</ele>
      </trkpt>
      <trkpt lat="50.39129" lon="5.32356">
        <ele>315.8</ele>
      </trkpt>
      <trkpt lat="50.39117" lon="5.3235">
        <ele>315.6</ele>
      </trkpt>
      <trkpt lat="50.39108" lon="5.32346">
        <ele>315.4</ele>
      </trkpt>
      <trkpt lat="50.39098" lon="5.32342">
        <ele>315.2</ele>
      </trkpt>
      <trkpt lat="50.39034" lon="5.32316">
        <ele>313.5</ele>
      </trkpt>
      <trkpt lat="50.38981" lon="5.32293">
        <ele>311.7</ele>
      </trkpt>
      <trkpt lat="50.38935" lon="5.32281">
        <ele>308.3</ele>
      </trkpt>
      <trkpt lat="50.38926" lon="5.32274">
        <ele>307.8</ele>
      </trkpt>
      <trkpt lat="50.38911" lon="5.3225">
        <ele>307.6</ele>
      </trkpt>
      <trkpt lat="50.38892" lon="5.32219">
        <ele>306.5</ele>
      </trkpt>
      <trkpt lat="50.3887" lon="5.32176">
        <ele>307</ele>
      </trkpt>
      <trkpt lat="50.38853" lon="5.32135">
        <ele>306.2</ele>
      </trkpt>
      <trkpt lat="50.3885" lon="5.32124">
        <ele>306</ele>
      </trkpt>
      <trkpt lat="50.38836" lon="5.32072">
        <ele>305.2</ele>
      </trkpt>
      <trkpt lat="50.38825" lon="5.32029">
        <ele>304.7</ele>
      </trkpt>
      <trkpt lat="50.38817" lon="5.31998">
        <ele>303.4</ele>
      </trkpt>
      <trkpt lat="50.38768" lon="5.31792">
        <ele>303.5</ele>
      </trkpt>
      <trkpt lat="50.38758" lon="5.31754">
        <ele>303.6</ele>
      </trkpt>
      <trkpt lat="50.38709" lon="5.31572">
        <ele>302</ele>
      </trkpt>
      <trkpt lat="50.38684" lon="5.3149">
        <ele>298.9</ele>
      </trkpt>
      <trkpt lat="50.38674" lon="5.31451">
        <ele>297.5</ele>
      </trkpt>
      <trkpt lat="50.38667" lon="5.31417">
        <ele>296</ele>
      </trkpt>
      <trkpt lat="50.38656" lon="5.31305">
        <ele>296.8</ele>
      </trkpt>
      <trkpt lat="50.38649" lon="5.31242">
        <ele>296.3</ele>
      </trkpt>
      <trkpt lat="50.38645" lon="5.312">
        <ele>296.6</ele>
      </trkpt>
      <trkpt lat="50.38604" lon="5.30968">
        <ele>298.6</ele>
      </trkpt>
      <trkpt lat="50.38598" lon="5.30928">
        <ele>299.1</ele>
      </trkpt>
      <trkpt lat="50.38585" lon="5.30854">
        <ele>297.2</ele>
      </trkpt>
      <trkpt lat="50.38571" lon="5.30771">
        <ele>297.1</ele>
      </trkpt>
      <trkpt lat="50.38568" lon="5.30755">
        <ele>296.9</ele>
      </trkpt>
      <trkpt lat="50.38568" lon="5.30737">
        <ele>296.9</ele>
      </trkpt>
      <trkpt lat="50.38574" lon="5.30705">
        <ele>297.3</ele>
      </trkpt>
      <trkpt lat="50.38577" lon="5.30695">
        <ele>297.5</ele>
      </trkpt>
      <trkpt lat="50.38577" lon="5.30695">
        <ele>297.5</ele>
      </trkpt>
      <trkpt lat="50.38591" lon="5.3069">
        <ele>298.4</ele>
      </trkpt>
      <trkpt lat="50.3863" lon="5.3066">
        <ele>299.5</ele>
      </trkpt>
      <trkpt lat="50.38642" lon="5.30648">
        <ele>299.4</ele>
      </trkpt>
      <trkpt lat="50.38664" lon="5.30615">
        <ele>299.1</ele>
      </trkpt>
      <trkpt lat="50.38672" lon="5.30608">
        <ele>298.8</ele>
      </trkpt>
      <trkpt lat="50.38678" lon="5.30605">
        <ele>298.6</ele>
      </trkpt>
      <trkpt lat="50.38687" lon="5.30606">
        <ele>298.3</ele>
      </trkpt>
      <trkpt lat="50.38697" lon="5.30615">
        <ele>298.3</ele>
      </trkpt>
      <trkpt lat="50.38725" lon="5.30655">
        <ele>298.4</ele>
      </trkpt>
      <trkpt lat="50.38759" lon="5.30717">
        <ele>296.4</ele>
      </trkpt>
      <trkpt lat="50.38764" lon="5.30724">
        <ele>296</ele>
      </trkpt>
      <trkpt lat="50.38774" lon="5.30736">
        <ele>294.5</ele>
      </trkpt>
      <trkpt lat="50.38786" lon="5.30747">
        <ele>293</ele>
      </trkpt>
      <trkpt lat="50.38797" lon="5.30756">
        <ele>292.4</ele>
      </trkpt>
      <trkpt lat="50.38815" lon="5.30764">
        <ele>291</ele>
      </trkpt>
      <trkpt lat="50.39182" lon="5.30984">
        <ele>271.1</ele>
      </trkpt>
      <trkpt lat="50.39189" lon="5.30989">
        <ele>270.9</ele>
      </trkpt>
      <trkpt lat="50.39424" lon="5.31131">
        <ele>269.3</ele>
      </trkpt>
      <trkpt lat="50.39792" lon="5.31351">
        <ele>277.2</ele>
      </trkpt>
      <trkpt lat="50.39914" lon="5.31424">
        <ele>272.2</ele>
      </trkpt>
      <trkpt lat="50.39914" lon="5.31424">
        <ele>272.2</ele>
      </trkpt>
      <trkpt lat="50.3996" lon="5.31424">
        <ele>270.8</ele>
      </trkpt>
      <trkpt lat="50.39985" lon="5.31423">
        <ele>269.5</ele>
      </trkpt>
      <trkpt lat="50.40051" lon="5.31402">
        <ele>268.1</ele>
      </trkpt>
      <trkpt lat="50.40207" lon="5.31312">
        <ele>265</ele>
      </trkpt>
      <trkpt lat="50.40275" lon="5.3127">
        <ele>264.6</ele>
      </trkpt>
      <trkpt lat="50.40525" lon="5.31039">
        <ele>271.9</ele>
      </trkpt>
      <trkpt lat="50.40636" lon="5.30922">
        <ele>276</ele>
      </trkpt>
      <trkpt lat="50.40666" lon="5.30888">
        <ele>276</ele>
      </trkpt>
      <trkpt lat="50.40685" lon="5.30864">
        <ele>276</ele>
      </trkpt>
      <trkpt lat="50.40716" lon="5.30817">
        <ele>273.8</ele>
      </trkpt>
      <trkpt lat="50.40751" lon="5.30775">
        <ele>270.1</ele>
      </trkpt>
      <trkpt lat="50.40819" lon="5.30662">
        <ele>265.8</ele>
      </trkpt>
      <trkpt lat="50.40832" lon="5.30645">
        <ele>265.2</ele>
      </trkpt>
      <trkpt lat="50.4088" lon="5.30605">
        <ele>266</ele>
      </trkpt>
      <trkpt lat="50.40927" lon="5.30572">
        <ele>264.6</ele>
      </trkpt>
      <trkpt lat="50.4098" lon="5.30511">
        <ele>262.4</ele>
      </trkpt>
      <trkpt lat="50.41014" lon="5.30457">
        <ele>259.4</ele>
      </trkpt>
      <trkpt lat="50.4105" lon="5.30377">
        <ele>255.1</ele>
      </trkpt>
      <trkpt lat="50.41058" lon="5.30361">
        <ele>254</ele>
      </trkpt>
      <trkpt lat="50.41068" lon="5.30345">
        <ele>253.2</ele>
      </trkpt>
      <trkpt lat="50.41097" lon="5.30319">
        <ele>251.5</ele>
      </trkpt>
      <trkpt lat="50.41114" lon="5.30307">
        <ele>251.1</ele>
      </trkpt>
      <trkpt lat="50.41131" lon="5.30296">
        <ele>250.7</ele>
      </trkpt>
      <trkpt lat="50.41164" lon="5.3028">
        <ele>249.2</ele>
      </trkpt>
      <trkpt lat="50.41181" lon="5.30267">
        <ele>248.8</ele>
      </trkpt>
      <trkpt lat="50.41196" lon="5.30251">
        <ele>248</ele>
      </trkpt>
      <trkpt lat="50.41215" lon="5.30225">
        <ele>247.3</ele>
      </trkpt>
      <trkpt lat="50.41233" lon="5.30195">
        <ele>246</ele>
      </trkpt>
      <trkpt lat="50.41274" lon="5.30121">
        <ele>245</ele>
      </trkpt>
      <trkpt lat="50.41279" lon="5.30113">
        <ele>244.9</ele>
      </trkpt>
      <trkpt lat="50.41289" lon="5.301">
        <ele>244.2</ele>
      </trkpt>
      <trkpt lat="50.41291" lon="5.30105">
        <ele>244</ele>
        <extensions>
          <visugpx:TrkExtension xmlns:visugpx="https://www.visugpx.com/editgpx/">
            <visugpx:node>29</visugpx:node>
            </visugpx:TrkExtension>
        </extensions>
      </trkpt>
      <trkpt lat="50.4131" lon="5.30143">
        <ele>244.7</ele>
      </trkpt>
      <trkpt lat="50.41319" lon="5.30156">
        <ele>244.3</ele>
      </trkpt>
      <trkpt lat="50.41405" lon="5.3025">
        <ele>244.4</ele>
      </trkpt>
      <trkpt lat="50.4149" lon="5.30344">
        <ele>244.7</ele>
      </trkpt>
      <trkpt lat="50.41559" lon="5.30411">
        <ele>244.7</ele>
      </trkpt>
      <trkpt lat="50.41699" lon="5.30541">
        <ele>242.4</ele>
      </trkpt>
      <trkpt lat="50.41874" lon="5.30668">
        <ele>245.1</ele>
      </trkpt>
      <trkpt lat="50.4188" lon="5.30676">
        <ele>245.4</ele>
      </trkpt>
      <trkpt lat="50.41886" lon="5.30686">
        <ele>245.8</ele>
      </trkpt>
      <trkpt lat="50.41895" lon="5.30706">
        <ele>246.3</ele>
      </trkpt>
      <trkpt lat="50.41953" lon="5.30877">
        <ele>248</ele>
      </trkpt>
      <trkpt lat="50.41959" lon="5.30889">
        <ele>248.5</ele>
      </trkpt>
      <trkpt lat="50.41964" lon="5.30899">
        <ele>248.4</ele>
      </trkpt>
      <trkpt lat="50.41977" lon="5.30917">
        <ele>248</ele>
      </trkpt>
      <trkpt lat="50.42031" lon="5.31">
        <ele>248.9</ele>
      </trkpt>
      <trkpt lat="50.42042" lon="5.31012">
        <ele>248.7</ele>
      </trkpt>
      <trkpt lat="50.42045" lon="5.31023">
        <ele>248.9</ele>
      </trkpt>
      <trkpt lat="50.42043" lon="5.31031">
        <ele>249.1</ele>
      </trkpt>
      <trkpt lat="50.42041" lon="5.31036">
        <ele>249.2</ele>
      </trkpt>
      <trkpt lat="50.42035" lon="5.31045">
        <ele>249.5</ele>
      </trkpt>
      <trkpt lat="50.42024" lon="5.31059">
        <ele>250</ele>
      </trkpt>
      <trkpt lat="50.4202" lon="5.31071">
        <ele>250</ele>
      </trkpt>
      <trkpt lat="50.42022" lon="5.31084">
        <ele>250</ele>
      </trkpt>
      <trkpt lat="50.42075" lon="5.31236">
        <ele>250.6</ele>
      </trkpt>
      <trkpt lat="50.42087" lon="5.31262">
        <ele>250.9</ele>
      </trkpt>
      <trkpt lat="50.42167" lon="5.31439">
        <ele>251</ele>
      </trkpt>
      <trkpt lat="50.42221" lon="5.31551">
        <ele>249.2</ele>
      </trkpt>
      <trkpt lat="50.4224" lon="5.31595">
        <ele>249</ele>
      </trkpt>
      <trkpt lat="50.42261" lon="5.31655">
        <ele>248.6</ele>
      </trkpt>
      <trkpt lat="50.42273" lon="5.31676">
        <ele>248.5</ele>
      </trkpt>
      <trkpt lat="50.42319" lon="5.3174">
        <ele>248.5</ele>
      </trkpt>
      <trkpt lat="50.42348" lon="5.31767">
        <ele>248.3</ele>
      </trkpt>
      <trkpt lat="50.42374" lon="5.31819">
        <ele>247.8</ele>
      </trkpt>
      <trkpt lat="50.42391" lon="5.3186">
        <ele>247.1</ele>
      </trkpt>
      <trkpt lat="50.42403" lon="5.31887">
        <ele>246.6</ele>
      </trkpt>
      <trkpt lat="50.42425" lon="5.31922">
        <ele>245.5</ele>
      </trkpt>
      <trkpt lat="50.42494" lon="5.32016">
        <ele>245.4</ele>
      </trkpt>
      <trkpt lat="50.42543" lon="5.32074">
        <ele>246.5</ele>
      </trkpt>
      <trkpt lat="50.42616" lon="5.32146">
        <ele>247.3</ele>
      </trkpt>
      <trkpt lat="50.42625" lon="5.32164">
        <ele>247.9</ele>
      </trkpt>
      <trkpt lat="50.42622" lon="5.32167">
        <ele>248</ele>
      </trkpt>
      <trkpt lat="50.4262" lon="5.32178">
        <ele>248</ele>
      </trkpt>
      <trkpt lat="50.42621" lon="5.32184">
        <ele>248</ele>
      </trkpt>
      <trkpt lat="50.42623" lon="5.32188">
        <ele>248</ele>
      </trkpt>
      <trkpt lat="50.42626" lon="5.3219">
        <ele>248</ele>
      </trkpt>
      <trkpt lat="50.42629" lon="5.32191">
        <ele>248</ele>
      </trkpt>
      <trkpt lat="50.42632" lon="5.32191">
        <ele>248</ele>
      </trkpt>
      <trkpt lat="50.42635" lon="5.32188">
        <ele>248</ele>
      </trkpt>
      <trkpt lat="50.42637" lon="5.32184">
        <ele>248</ele>
      </trkpt>
      <trkpt lat="50.42638" lon="5.32179">
        <ele>248</ele>
      </trkpt>
      <trkpt lat="50.42665" lon="5.3219">
        <ele>247.1</ele>
      </trkpt>
      <trkpt lat="50.42678" lon="5.32197">
        <ele>247.1</ele>
      </trkpt>
      <trkpt lat="50.42685" lon="5.32205">
        <ele>247.1</ele>
      </trkpt>
      <trkpt lat="50.42692" lon="5.32218">
        <ele>247.1</ele>
      </trkpt>
      <trkpt lat="50.42706" lon="5.32255">
        <ele>247.1</ele>
      </trkpt>
      <trkpt lat="50.42719" lon="5.3227">
        <ele>247.1</ele>
      </trkpt>
      <trkpt lat="50.42729" lon="5.32277">
        <ele>247</ele>
      </trkpt>
      <trkpt lat="50.42752" lon="5.32288">
        <ele>247</ele>
      </trkpt>
      <trkpt lat="50.42761" lon="5.32293">
        <ele>247</ele>
      </trkpt>
      <trkpt lat="50.42778" lon="5.32302">
        <ele>247</ele>
      </trkpt>
      <trkpt lat="50.42793" lon="5.32309">
        <ele>247</ele>
      </trkpt>
      <trkpt lat="50.42804" lon="5.32311">
        <ele>247</ele>
      </trkpt>
      <trkpt lat="50.4282" lon="5.32307">
        <ele>247</ele>
      </trkpt>
      <trkpt lat="50.42838" lon="5.32301">
        <ele>247</ele>
      </trkpt>
      <trkpt lat="50.42845" lon="5.32299">
        <ele>247</ele>
      </trkpt>
      <trkpt lat="50.42922" lon="5.32273">
        <ele>248</ele>
      </trkpt>
      <trkpt lat="50.42935" lon="5.32271">
        <ele>248</ele>
      </trkpt>
      <trkpt lat="50.42942" lon="5.32272">
        <ele>248</ele>
      </trkpt>
      <trkpt lat="50.42947" lon="5.32276">
        <ele>248.1</ele>
      </trkpt>
      <trkpt lat="50.42955" lon="5.32288">
        <ele>248.6</ele>
      </trkpt>
      <trkpt lat="50.42963" lon="5.323">
        <ele>248.9</ele>
      </trkpt>
      <trkpt lat="50.42998" lon="5.32359">
        <ele>250</ele>
      </trkpt>
      <trkpt lat="50.43189" lon="5.32713">
        <ele>250.9</ele>
      </trkpt>
      <trkpt lat="50.43231" lon="5.32796">
        <ele>251.3</ele>
      </trkpt>
      <trkpt lat="50.43253" lon="5.32841">
        <ele>251</ele>
      </trkpt>
      <trkpt lat="50.43301" lon="5.32946">
        <ele>249.3</ele>
      </trkpt>
      <trkpt lat="50.4331" lon="5.32961">
        <ele>249</ele>
      </trkpt>
      <trkpt lat="50.43312" lon="5.32953">
        <ele>249</ele>
        <extensions>
          <visugpx:TrkExtension xmlns:visugpx="https://www.visugpx.com/editgpx/">
            <visugpx:node>30</visugpx:node>
            </visugpx:TrkExtension>
        </extensions>
      </trkpt>
      <trkpt lat="50.43393" lon="5.32622">
        <ele>241.7</ele>
      </trkpt>
      <trkpt lat="50.43464" lon="5.32328">
        <ele>241.5</ele>
      </trkpt>
      <trkpt lat="50.43617" lon="5.31698">
        <ele>246</ele>
      </trkpt>
      <trkpt lat="50.43737" lon="5.312">
        <ele>238.7</ele>
      </trkpt>
      <trkpt lat="50.43785" lon="5.31">
        <ele>238.3</ele>
      </trkpt>
      <trkpt lat="50.43788" lon="5.30989">
        <ele>238.2</ele>
      </trkpt>
      <trkpt lat="50.43815" lon="5.30875">
        <ele>237</ele>
      </trkpt>
      <trkpt lat="50.43839" lon="5.30779">
        <ele>236</ele>
      </trkpt>
      <trkpt lat="50.43933" lon="5.30391">
        <ele>237</ele>
      </trkpt>
      <trkpt lat="50.44001" lon="5.30111">
        <ele>237</ele>
      </trkpt>
      <trkpt lat="50.44009" lon="5.30078">
        <ele>237.7</ele>
      </trkpt>
      <trkpt lat="50.44019" lon="5.30044">
        <ele>237.6</ele>
      </trkpt>
      <trkpt lat="50.4403" lon="5.30017">
        <ele>237.3</ele>
      </trkpt>
      <trkpt lat="50.44044" lon="5.29989">
        <ele>236.2</ele>
      </trkpt>
      <trkpt lat="50.44057" lon="5.29969">
        <ele>237.9</ele>
      </trkpt>
      <trkpt lat="50.44074" lon="5.29945">
        <ele>237.3</ele>
      </trkpt>
      <trkpt lat="50.44093" lon="5.29923">
        <ele>237.8</ele>
      </trkpt>
      <trkpt lat="50.44108" lon="5.29911">
        <ele>238.2</ele>
      </trkpt>
      <trkpt lat="50.44132" lon="5.29889">
        <ele>238.2</ele>
      </trkpt>
      <trkpt lat="50.44129" lon="5.29882">
        <ele>238.5</ele>
        <extensions>
          <visugpx:TrkExtension xmlns:visugpx="https://www.visugpx.com/editgpx/">
            <visugpx:node>31</visugpx:node>
            </visugpx:TrkExtension>
        </extensions>
      </trkpt>
      <trkpt lat="50.44132" lon="5.29889">
        <ele>238.2</ele>
      </trkpt>
      <trkpt lat="50.44192" lon="5.3003">
        <ele>235.6</ele>
      </trkpt>
      <trkpt lat="50.44196" lon="5.30037">
        <ele>235.1</ele>
      </trkpt>
      <trkpt lat="50.44204" lon="5.30046">
        <ele>234.6</ele>
      </trkpt>
      <trkpt lat="50.44216" lon="5.30053">
        <ele>234.8</ele>
        <extensions>
          <visugpx:TrkExtension xmlns:visugpx="https://www.visugpx.com/editgpx/">
            <visugpx:node>32</visugpx:node>
            </visugpx:TrkExtension>
        </extensions>
      </trkpt>
      <trkpt lat="50.44235" lon="5.30064">
        <ele>235.2</ele>
        <extensions>
          <visugpx:TrkExtension xmlns:visugpx="https://www.visugpx.com/editgpx/">
            <visugpx:etape>Le Baratin à Modave</visugpx:etape>
            </visugpx:TrkExtension>
        </extensions>
      </trkpt>
      <trkpt lat="50.4423" lon="5.30032">
        <ele>236.5</ele>
      </trkpt>
      <trkpt lat="50.44211" lon="5.29824">
        <ele>235.1</ele>
      </trkpt>
      <trkpt lat="50.44217" lon="5.29819">
        <ele>234.7</ele>
        <extensions>
          <visugpx:TrkExtension xmlns:visugpx="https://www.visugpx.com/editgpx/">
            <visugpx:node>33</visugpx:node>
            </visugpx:TrkExtension>
        </extensions>
      </trkpt>
      <trkpt lat="50.44265" lon="5.29779">
        <ele>232</ele>
      </trkpt>
      <trkpt lat="50.445" lon="5.29582">
        <ele>235</ele>
      </trkpt>
      <trkpt lat="50.44576" lon="5.29517">
        <ele>233.3</ele>
      </trkpt>
      <trkpt lat="50.4464" lon="5.29464">
        <ele>230.9</ele>
      </trkpt>
      <trkpt lat="50.44714" lon="5.29401">
        <ele>229</ele>
      </trkpt>
      <trkpt lat="50.44716" lon="5.294">
        <ele>228.9</ele>
      </trkpt>
      <trkpt lat="50.4475" lon="5.29373">
        <ele>228.6</ele>
      </trkpt>
      <trkpt lat="50.44788" lon="5.29348">
        <ele>227.1</ele>
      </trkpt>
      <trkpt lat="50.44825" lon="5.29324">
        <ele>225.2</ele>
      </trkpt>
      <trkpt lat="50.4491" lon="5.29275">
        <ele>218.5</ele>
      </trkpt>
      <trkpt lat="50.44919" lon="5.2927">
        <ele>217.8</ele>
      </trkpt>
      <trkpt lat="50.44956" lon="5.29249">
        <ele>215.2</ele>
      </trkpt>
      <trkpt lat="50.45005" lon="5.29221">
        <ele>212.3</ele>
      </trkpt>
      <trkpt lat="50.45021" lon="5.29209">
        <ele>210.8</ele>
      </trkpt>
      <trkpt lat="50.45039" lon="5.29192">
        <ele>210.8</ele>
      </trkpt>
      <trkpt lat="50.45052" lon="5.29176">
        <ele>210.4</ele>
      </trkpt>
      <trkpt lat="50.45065" lon="5.29152">
        <ele>208.3</ele>
      </trkpt>
      <trkpt lat="50.45073" lon="5.29127">
        <ele>206.4</ele>
      </trkpt>
      <trkpt lat="50.45077" lon="5.29103">
        <ele>205.5</ele>
      </trkpt>
      <trkpt lat="50.4508" lon="5.29065">
        <ele>205.1</ele>
      </trkpt>
      <trkpt lat="50.45085" lon="5.28854">
        <ele>197.2</ele>
      </trkpt>
      <trkpt lat="50.45086" lon="5.28804">
        <ele>195.1</ele>
      </trkpt>
      <trkpt lat="50.45088" lon="5.28679">
        <ele>191.1</ele>
      </trkpt>
      <trkpt lat="50.45088" lon="5.28646">
        <ele>189.4</ele>
      </trkpt>
      <trkpt lat="50.45087" lon="5.28623">
        <ele>189.7</ele>
      </trkpt>
      <trkpt lat="50.45088" lon="5.28607">
        <ele>189.4</ele>
      </trkpt>
      <trkpt lat="50.4509" lon="5.28595">
        <ele>187.7</ele>
      </trkpt>
      <trkpt lat="50.45093" lon="5.28582">
        <ele>186.3</ele>
      </trkpt>
      <trkpt lat="50.45097" lon="5.2856">
        <ele>185.6</ele>
      </trkpt>
      <trkpt lat="50.45103" lon="5.28538">
        <ele>185.7</ele>
      </trkpt>
      <trkpt lat="50.45119" lon="5.28495">
        <ele>185.2</ele>
      </trkpt>
      <trkpt lat="50.45128" lon="5.28473">
        <ele>184</ele>
      </trkpt>
      <trkpt lat="50.45137" lon="5.28448">
        <ele>183.1</ele>
      </trkpt>
      <trkpt lat="50.45139" lon="5.28443">
        <ele>183</ele>
      </trkpt>
      <trkpt lat="50.4515" lon="5.28454">
        <ele>181.5</ele>
      </trkpt>
      <trkpt lat="50.45153" lon="5.28457">
        <ele>181.3</ele>
      </trkpt>
      <trkpt lat="50.45167" lon="5.28471">
        <ele>181.8</ele>
      </trkpt>
      <trkpt lat="50.45169" lon="5.28473">
        <ele>182.1</ele>
      </trkpt>
      <trkpt lat="50.45183" lon="5.28486">
        <ele>183.1</ele>
      </trkpt>
      <trkpt lat="50.45186" lon="5.2848">
        <ele>183.4</ele>
      </trkpt>
      <trkpt lat="50.452" lon="5.28445">
        <ele>182.8</ele>
      </trkpt>
      <trkpt lat="50.45201" lon="5.28442">
        <ele>182.7</ele>
      </trkpt>
      <trkpt lat="50.45208" lon="5.2842">
        <ele>182.1</ele>
      </trkpt>
      <trkpt lat="50.45213" lon="5.28396">
        <ele>181.3</ele>
      </trkpt>
      <trkpt lat="50.45213" lon="5.28372">
        <ele>180.6</ele>
      </trkpt>
      <trkpt lat="50.45208" lon="5.28347">
        <ele>181.2</ele>
      </trkpt>
      <trkpt lat="50.45195" lon="5.28316">
        <ele>179.5</ele>
      </trkpt>
      <trkpt lat="50.45157" lon="5.28268">
        <ele>179.7</ele>
      </trkpt>
      <trkpt lat="50.45152" lon="5.2826">
        <ele>180.4</ele>
      </trkpt>
      <trkpt lat="50.45148" lon="5.2825">
        <ele>180.2</ele>
      </trkpt>
      <trkpt lat="50.45144" lon="5.28241">
        <ele>178.2</ele>
      </trkpt>
      <trkpt lat="50.45141" lon="5.28231">
        <ele>176.4</ele>
      </trkpt>
      <trkpt lat="50.45138" lon="5.28217">
        <ele>174.5</ele>
      </trkpt>
      <trkpt lat="50.45137" lon="5.28202">
        <ele>173.2</ele>
      </trkpt>
      <trkpt lat="50.45139" lon="5.28171">
        <ele>172.2</ele>
      </trkpt>
      <trkpt lat="50.45157" lon="5.2809">
        <ele>171.1</ele>
      </trkpt>
      <trkpt lat="50.45174" lon="5.28024">
        <ele>168.9</ele>
      </trkpt>
      <trkpt lat="50.45184" lon="5.27993">
        <ele>167.7</ele>
      </trkpt>
      <trkpt lat="50.45196" lon="5.27966">
        <ele>167.4</ele>
        <extensions>
          <visugpx:TrkExtension xmlns:visugpx="https://www.visugpx.com/editgpx/">
            <visugpx:node>34</visugpx:node>
            </visugpx:TrkExtension>
        </extensions>
      </trkpt>
      <trkpt lat="50.45176" lon="5.27958">
        <ele>165.3</ele>
      </trkpt>
      <trkpt lat="50.4516" lon="5.27952">
        <ele>165.9</ele>
      </trkpt>
      <trkpt lat="50.45146" lon="5.27946">
        <ele>168.6</ele>
      </trkpt>
      <trkpt lat="50.45142" lon="5.27935">
        <ele>169.4</ele>
      </trkpt>
      <trkpt lat="50.45141" lon="5.27924">
        <ele>169.6</ele>
      </trkpt>
      <trkpt lat="50.45142" lon="5.27892">
        <ele>169.4</ele>
      </trkpt>
      <trkpt lat="50.4514" lon="5.2787">
        <ele>168.5</ele>
      </trkpt>
      <trkpt lat="50.45138" lon="5.27857">
        <ele>169.1</ele>
      </trkpt>
      <trkpt lat="50.45137" lon="5.27853">
        <ele>170.1</ele>
      </trkpt>
      <trkpt lat="50.45133" lon="5.27836">
        <ele>173.2</ele>
      </trkpt>
      <trkpt lat="50.45112" lon="5.27775">
        <ele>167.5</ele>
      </trkpt>
      <trkpt lat="50.45087" lon="5.27698">
        <ele>169.6</ele>
      </trkpt>
      <trkpt lat="50.45066" lon="5.27649">
        <ele>171</ele>
      </trkpt>
      <trkpt lat="50.45" lon="5.27546">
        <ele>172.7</ele>
      </trkpt>
      <trkpt lat="50.44977" lon="5.27499">
        <ele>174.5</ele>
      </trkpt>
      <trkpt lat="50.4491" lon="5.27313">
        <ele>182.2</ele>
      </trkpt>
      <trkpt lat="50.44889" lon="5.27264">
        <ele>182</ele>
      </trkpt>
      <trkpt lat="50.44829" lon="5.27178">
        <ele>185.8</ele>
      </trkpt>
      <trkpt lat="50.44814" lon="5.27164">
        <ele>185.9</ele>
      </trkpt>
      <trkpt lat="50.44774" lon="5.27138">
        <ele>186.8</ele>
      </trkpt>
      <trkpt lat="50.44742" lon="5.27103">
        <ele>188.4</ele>
      </trkpt>
      <trkpt lat="50.44716" lon="5.27059">
        <ele>189.2</ele>
      </trkpt>
      <trkpt lat="50.44691" lon="5.27002">
        <ele>190.8</ele>
      </trkpt>
      <trkpt lat="50.44682" lon="5.26973">
        <ele>190.8</ele>
      </trkpt>
      <trkpt lat="50.44668" lon="5.26907">
        <ele>191.3</ele>
      </trkpt>
      <trkpt lat="50.44667" lon="5.26892">
        <ele>191.1</ele>
      </trkpt>
      <trkpt lat="50.44667" lon="5.2687">
        <ele>191.1</ele>
      </trkpt>
      <trkpt lat="50.44666" lon="5.26858">
        <ele>191.1</ele>
      </trkpt>
      <trkpt lat="50.44666" lon="5.26804">
        <ele>193.1</ele>
      </trkpt>
      <trkpt lat="50.44663" lon="5.26781">
        <ele>194.7</ele>
      </trkpt>
      <trkpt lat="50.44633" lon="5.26724">
        <ele>197.7</ele>
      </trkpt>
      <trkpt lat="50.44632" lon="5.26709">
        <ele>198.2</ele>
      </trkpt>
      <trkpt lat="50.44637" lon="5.26693">
        <ele>199</ele>
      </trkpt>
      <trkpt lat="50.44644" lon="5.2668">
        <ele>199.5</ele>
      </trkpt>
      <trkpt lat="50.44638" lon="5.26662">
        <ele>200.5</ele>
      </trkpt>
      <trkpt lat="50.44632" lon="5.26648">
        <ele>201.7</ele>
      </trkpt>
      <trkpt lat="50.44589" lon="5.26579">
        <ele>203.7</ele>
      </trkpt>
      <trkpt lat="50.44564" lon="5.26534">
        <ele>203.1</ele>
      </trkpt>
      <trkpt lat="50.44562" lon="5.26531">
        <ele>203.1</ele>
      </trkpt>
      <trkpt lat="50.44555" lon="5.26519">
        <ele>203.3</ele>
      </trkpt>
      <trkpt lat="50.44525" lon="5.26464">
        <ele>204.5</ele>
      </trkpt>
      <trkpt lat="50.44522" lon="5.26458">
        <ele>204.7</ele>
      </trkpt>
      <trkpt lat="50.44505" lon="5.26414">
        <ele>205.4</ele>
      </trkpt>
      <trkpt lat="50.44484" lon="5.26367">
        <ele>205.6</ele>
      </trkpt>
      <trkpt lat="50.4446" lon="5.26326">
        <ele>205.9</ele>
      </trkpt>
      <trkpt lat="50.44419" lon="5.26264">
        <ele>203.8</ele>
      </trkpt>
      <trkpt lat="50.44416" lon="5.26234">
        <ele>204.5</ele>
      </trkpt>
      <trkpt lat="50.4443" lon="5.26176">
        <ele>205.6</ele>
      </trkpt>
      <trkpt lat="50.44432" lon="5.26173">
        <ele>205.7</ele>
      </trkpt>
      <trkpt lat="50.44444" lon="5.26156">
        <ele>205.6</ele>
      </trkpt>
      <trkpt lat="50.4446" lon="5.26146">
        <ele>205.3</ele>
      </trkpt>
      <trkpt lat="50.44457" lon="5.26127">
        <ele>204.4</ele>
      </trkpt>
      <trkpt lat="50.444" lon="5.25841">
        <ele>203.8</ele>
      </trkpt>
      <trkpt lat="50.44376" lon="5.2578">
        <ele>206.4</ele>
      </trkpt>
      <trkpt lat="50.44352" lon="5.2573">
        <ele>208</ele>
      </trkpt>
      <trkpt lat="50.44329" lon="5.25667">
        <ele>210.2</ele>
      </trkpt>
      <trkpt lat="50.44315" lon="5.25613">
        <ele>211.6</ele>
      </trkpt>
      <trkpt lat="50.44294" lon="5.25515">
        <ele>214.7</ele>
      </trkpt>
      <trkpt lat="50.44269" lon="5.25472">
        <ele>217</ele>
        <extensions>
          <visugpx:TrkExtension xmlns:visugpx="https://www.visugpx.com/editgpx/">
            <visugpx:node>35</visugpx:node>
            </visugpx:TrkExtension>
        </extensions>
      </trkpt>
      <trkpt lat="50.44257" lon="5.2545">
        <ele>218.6</ele>
      </trkpt>
      <trkpt lat="50.43852" lon="5.24883">
        <ele>225</ele>
      </trkpt>
      <trkpt lat="50.4389" lon="5.24823">
        <ele>229.4</ele>
      </trkpt>
      <trkpt lat="50.4394" lon="5.2474">
        <ele>233.2</ele>
      </trkpt>
      <trkpt lat="50.43947" lon="5.24729">
        <ele>233.8</ele>
      </trkpt>
      <trkpt lat="50.44014" lon="5.24614">
        <ele>237.5</ele>
      </trkpt>
      <trkpt lat="50.44068" lon="5.24532">
        <ele>240.3</ele>
      </trkpt>
      <trkpt lat="50.44367" lon="5.24188">
        <ele>244.2</ele>
      </trkpt>
      <trkpt lat="50.44387" lon="5.24166">
        <ele>245</ele>
      </trkpt>
      <trkpt lat="50.44404" lon="5.24152">
        <ele>246.3</ele>
      </trkpt>
      <trkpt lat="50.44424" lon="5.24137">
        <ele>247</ele>
      </trkpt>
      <trkpt lat="50.44497" lon="5.24094">
        <ele>249.5</ele>
      </trkpt>
      <trkpt lat="50.44515" lon="5.24079">
        <ele>250.1</ele>
      </trkpt>
      <trkpt lat="50.44529" lon="5.24064">
        <ele>250.8</ele>
      </trkpt>
      <trkpt lat="50.44546" lon="5.24047">
        <ele>251.7</ele>
      </trkpt>
      <trkpt lat="50.44626" lon="5.2396">
        <ele>257.1</ele>
        <extensions>
          <visugpx:TrkExtension xmlns:visugpx="https://www.visugpx.com/editgpx/">
            <visugpx:node>36</visugpx:node>
            </visugpx:TrkExtension>
        </extensions>
      </trkpt>
      <trkpt lat="50.44631" lon="5.23954">
        <ele>257.4</ele>
      </trkpt>
      <trkpt lat="50.44652" lon="5.23932">
        <ele>259.2</ele>
      </trkpt>
      <trkpt lat="50.44687" lon="5.23893">
        <ele>260.1</ele>
      </trkpt>
      <trkpt lat="50.4476" lon="5.24059">
        <ele>261</ele>
      </trkpt>
      <trkpt lat="50.44779" lon="5.241">
        <ele>262</ele>
      </trkpt>
      <trkpt lat="50.44858" lon="5.24041">
        <ele>259.5</ele>
      </trkpt>
      <trkpt lat="50.44867" lon="5.24032">
        <ele>258.9</ele>
        <extensions>
          <visugpx:TrkExtension xmlns:visugpx="https://www.visugpx.com/editgpx/">
            <visugpx:node>37</visugpx:node>
            </visugpx:TrkExtension>
        </extensions>
      </trkpt>
      <trkpt lat="50.44891" lon="5.24008">
        <ele>256.4</ele>
      </trkpt>
      <trkpt lat="50.44902" lon="5.23992">
        <ele>254.6</ele>
      </trkpt>
      <trkpt lat="50.44908" lon="5.23977">
        <ele>253.2</ele>
      </trkpt>
      <trkpt lat="50.44909" lon="5.23959">
        <ele>252.2</ele>
      </trkpt>
      <trkpt lat="50.44897" lon="5.23891">
        <ele>248.3</ele>
      </trkpt>
      <trkpt lat="50.44846" lon="5.23639">
        <ele>236.7</ele>
      </trkpt>
      <trkpt lat="50.44843" lon="5.23615">
        <ele>235.8</ele>
      </trkpt>
      <trkpt lat="50.44837" lon="5.23558">
        <ele>232.8</ele>
      </trkpt>
      <trkpt lat="50.44832" lon="5.23538">
        <ele>232.5</ele>
      </trkpt>
      <trkpt lat="50.44826" lon="5.23519">
        <ele>232.2</ele>
      </trkpt>
      <trkpt lat="50.44819" lon="5.2349">
        <ele>230.8</ele>
      </trkpt>
      <trkpt lat="50.44819" lon="5.23477">
        <ele>229.9</ele>
      </trkpt>
      <trkpt lat="50.44822" lon="5.23463">
        <ele>229</ele>
      </trkpt>
      <trkpt lat="50.4486" lon="5.23396">
        <ele>223.6</ele>
      </trkpt>
      <trkpt lat="50.44876" lon="5.23366">
        <ele>221.6</ele>
      </trkpt>
      <trkpt lat="50.4488" lon="5.23359">
        <ele>220.9</ele>
      </trkpt>
      <trkpt lat="50.44911" lon="5.23306">
        <ele>217.4</ele>
      </trkpt>
      <trkpt lat="50.44959" lon="5.23231">
        <ele>211.6</ele>
      </trkpt>
      <trkpt lat="50.44991" lon="5.23187">
        <ele>207.1</ele>
      </trkpt>
      <trkpt lat="50.45013" lon="5.23169">
        <ele>204.2</ele>
      </trkpt>
      <trkpt lat="50.45038" lon="5.23159">
        <ele>201.7</ele>
      </trkpt>
      <trkpt lat="50.4505" lon="5.23154">
        <ele>200.5</ele>
      </trkpt>
      <trkpt lat="50.45057" lon="5.23152">
        <ele>200.1</ele>
      </trkpt>
      <trkpt lat="50.45065" lon="5.23149">
        <ele>200.4</ele>
      </trkpt>
      <trkpt lat="50.45079" lon="5.23146">
        <ele>201.3</ele>
      </trkpt>
      <trkpt lat="50.45134" lon="5.23152">
        <ele>206.8</ele>
      </trkpt>
      <trkpt lat="50.45154" lon="5.23154">
        <ele>208.9</ele>
      </trkpt>
      <trkpt lat="50.45161" lon="5.23145">
        <ele>209.4</ele>
      </trkpt>
      <trkpt lat="50.45172" lon="5.23114">
        <ele>209.7</ele>
      </trkpt>
      <trkpt lat="50.4518" lon="5.23104">
        <ele>210.4</ele>
      </trkpt>
      <trkpt lat="50.45188" lon="5.23098">
        <ele>211.6</ele>
      </trkpt>
      <trkpt lat="50.45195" lon="5.23096">
        <ele>212.6</ele>
      </trkpt>
      <trkpt lat="50.45242" lon="5.23103">
        <ele>215.2</ele>
      </trkpt>
      <trkpt lat="50.45279" lon="5.231">
        <ele>216.6</ele>
      </trkpt>
      <trkpt lat="50.45314" lon="5.23081">
        <ele>216.9</ele>
      </trkpt>
      <trkpt lat="50.45343" lon="5.23055">
        <ele>217.3</ele>
      </trkpt>
      <trkpt lat="50.45366" lon="5.23036">
        <ele>218.2</ele>
      </trkpt>
      <trkpt lat="50.45365" lon="5.23033">
        <ele>218.1</ele>
        <extensions>
          <visugpx:TrkExtension xmlns:visugpx="https://www.visugpx.com/editgpx/">
            <visugpx:node>38</visugpx:node>
            </visugpx:TrkExtension>
        </extensions>
      </trkpt>
      <trkpt lat="50.45366" lon="5.23036">
        <ele>218.2</ele>
      </trkpt>
      <trkpt lat="50.45374" lon="5.23037">
        <ele>218.5</ele>
      </trkpt>
      <trkpt lat="50.45383" lon="5.23041">
        <ele>218.8</ele>
      </trkpt>
      <trkpt lat="50.45455" lon="5.23089">
        <ele>221.5</ele>
      </trkpt>
      <trkpt lat="50.45484" lon="5.23103">
        <ele>221.4</ele>
      </trkpt>
      <trkpt lat="50.45666" lon="5.23132">
        <ele>213</ele>
      </trkpt>
      <trkpt lat="50.4568" lon="5.23137">
        <ele>213</ele>
      </trkpt>
      <trkpt lat="50.45695" lon="5.23147">
        <ele>212.7</ele>
      </trkpt>
      <trkpt lat="50.45707" lon="5.23157">
        <ele>213.1</ele>
      </trkpt>
      <trkpt lat="50.45723" lon="5.23177">
        <ele>214</ele>
      </trkpt>
      <trkpt lat="50.45733" lon="5.23199">
        <ele>214.3</ele>
      </trkpt>
      <trkpt lat="50.45744" lon="5.23231">
        <ele>214.7</ele>
      </trkpt>
      <trkpt lat="50.45752" lon="5.23251">
        <ele>216</ele>
      </trkpt>
      <trkpt lat="50.45765" lon="5.23272">
        <ele>216.6</ele>
      </trkpt>
      <trkpt lat="50.45778" lon="5.23289">
        <ele>217.6</ele>
      </trkpt>
      <trkpt lat="50.45807" lon="5.23311">
        <ele>221.1</ele>
      </trkpt>
      <trkpt lat="50.45821" lon="5.23319">
        <ele>222.1</ele>
      </trkpt>
      <trkpt lat="50.45843" lon="5.23329">
        <ele>223.3</ele>
      </trkpt>
      <trkpt lat="50.45854" lon="5.23333">
        <ele>223.7</ele>
      </trkpt>
      <trkpt lat="50.45881" lon="5.23331">
        <ele>224.8</ele>
      </trkpt>
      <trkpt lat="50.45917" lon="5.2332">
        <ele>227</ele>
      </trkpt>
      <trkpt lat="50.45936" lon="5.23335">
        <ele>227.6</ele>
      </trkpt>
      <trkpt lat="50.46" lon="5.23387">
        <ele>229.1</ele>
      </trkpt>
      <trkpt lat="50.46026" lon="5.23415">
        <ele>230.9</ele>
      </trkpt>
      <trkpt lat="50.46076" lon="5.23479">
        <ele>233.7</ele>
      </trkpt>
      <trkpt lat="50.46101" lon="5.23517">
        <ele>236.4</ele>
      </trkpt>
      <trkpt lat="50.46127" lon="5.23563">
        <ele>239.3</ele>
      </trkpt>
      <trkpt lat="50.46174" lon="5.23655">
        <ele>242.4</ele>
      </trkpt>
      <trkpt lat="50.46196" lon="5.23704">
        <ele>243.6</ele>
      </trkpt>
      <trkpt lat="50.46207" lon="5.23731">
        <ele>243.8</ele>
      </trkpt>
      <trkpt lat="50.46217" lon="5.23763">
        <ele>243.7</ele>
      </trkpt>
      <trkpt lat="50.46235" lon="5.23818">
        <ele>244.2</ele>
      </trkpt>
      <trkpt lat="50.46259" lon="5.23893">
        <ele>243.7</ele>
      </trkpt>
      <trkpt lat="50.46273" lon="5.23949">
        <ele>242.9</ele>
      </trkpt>
      <trkpt lat="50.46279" lon="5.23978">
        <ele>242.6</ele>
      </trkpt>
      <trkpt lat="50.46282" lon="5.23986">
        <ele>242.2</ele>
      </trkpt>
      <trkpt lat="50.46292" lon="5.24005">
        <ele>242.3</ele>
      </trkpt>
      <trkpt lat="50.46323" lon="5.24052">
        <ele>245.1</ele>
      </trkpt>
      <trkpt lat="50.46338" lon="5.24071">
        <ele>246.7</ele>
      </trkpt>
      <trkpt lat="50.46348" lon="5.2408">
        <ele>247.7</ele>
      </trkpt>
      <trkpt lat="50.46371" lon="5.24092">
        <ele>250.7</ele>
      </trkpt>
      <trkpt lat="50.46391" lon="5.24134">
        <ele>252.4</ele>
      </trkpt>
      <trkpt lat="50.464" lon="5.24142">
        <ele>253</ele>
      </trkpt>
      <trkpt lat="50.4641" lon="5.24141">
        <ele>254.2</ele>
      </trkpt>
      <trkpt lat="50.46422" lon="5.24135">
        <ele>255.8</ele>
      </trkpt>
      <trkpt lat="50.46439" lon="5.24142">
        <ele>257.2</ele>
      </trkpt>
      <trkpt lat="50.46447" lon="5.24156">
        <ele>257</ele>
      </trkpt>
      <trkpt lat="50.46458" lon="5.24168">
        <ele>257.4</ele>
      </trkpt>
      <trkpt lat="50.46467" lon="5.24175">
        <ele>257.9</ele>
      </trkpt>
      <trkpt lat="50.4648" lon="5.2418">
        <ele>258.5</ele>
      </trkpt>
      <trkpt lat="50.46491" lon="5.24175">
        <ele>259.3</ele>
      </trkpt>
      <trkpt lat="50.465" lon="5.24171">
        <ele>259.8</ele>
      </trkpt>
      <trkpt lat="50.465" lon="5.24171">
        <ele>259.8</ele>
      </trkpt>
      <trkpt lat="50.46488" lon="5.24118">
        <ele>262.9</ele>
      </trkpt>
      <trkpt lat="50.46472" lon="5.24051">
        <ele>264.1</ele>
      </trkpt>
      <trkpt lat="50.46459" lon="5.24005">
        <ele>264.4</ele>
      </trkpt>
      <trkpt lat="50.46442" lon="5.23951">
        <ele>263.8</ele>
      </trkpt>
      <trkpt lat="50.46437" lon="5.23936">
        <ele>263.8</ele>
      </trkpt>
      <trkpt lat="50.46433" lon="5.23917">
        <ele>264.2</ele>
      </trkpt>
      <trkpt lat="50.46431" lon="5.23893">
        <ele>264.9</ele>
      </trkpt>
      <trkpt lat="50.46432" lon="5.23885">
        <ele>265.2</ele>
      </trkpt>
      <trkpt lat="50.46433" lon="5.23878">
        <ele>265.3</ele>
      </trkpt>
      <trkpt lat="50.46437" lon="5.23867">
        <ele>265.7</ele>
      </trkpt>
      <trkpt lat="50.46446" lon="5.23854">
        <ele>266.1</ele>
      </trkpt>
      <trkpt lat="50.46479" lon="5.23814">
        <ele>268.2</ele>
      </trkpt>
      <trkpt lat="50.46492" lon="5.23793">
        <ele>268.4</ele>
      </trkpt>
      <trkpt lat="50.46466" lon="5.23703">
        <ele>269.5</ele>
      </trkpt>
      <trkpt lat="50.4652" lon="5.23663">
        <ele>269.3</ele>
      </trkpt>
      <trkpt lat="50.46592" lon="5.23605">
        <ele>267.6</ele>
      </trkpt>
      <trkpt lat="50.466" lon="5.23593">
        <ele>267</ele>
      </trkpt>
      <trkpt lat="50.46625" lon="5.23518">
        <ele>263.6</ele>
      </trkpt>
      <trkpt lat="50.46643" lon="5.23448">
        <ele>259.7</ele>
      </trkpt>
      <trkpt lat="50.46712" lon="5.23204">
        <ele>240.7</ele>
      </trkpt>
      <trkpt lat="50.4673" lon="5.23153">
        <ele>235.8</ele>
      </trkpt>
      <trkpt lat="50.46894" lon="5.22771">
        <ele>215.8</ele>
      </trkpt>
      <trkpt lat="50.46898" lon="5.22764">
        <ele>215.7</ele>
        <extensions>
          <visugpx:TrkExtension xmlns:visugpx="https://www.visugpx.com/editgpx/">
            <visugpx:node>40</visugpx:node>
            </visugpx:TrkExtension>
        </extensions>
      </trkpt>
      <trkpt lat="50.46905" lon="5.2275">
        <ele>215.4</ele>
      </trkpt>
      <trkpt lat="50.4692" lon="5.2275">
        <ele>214.9</ele>
      </trkpt>
      <trkpt lat="50.47253" lon="5.22662">
        <ele>208.1</ele>
      </trkpt>
      <trkpt lat="50.47282" lon="5.22657">
        <ele>207.3</ele>
      </trkpt>
      <trkpt lat="50.47298" lon="5.22657">
        <ele>207.3</ele>
      </trkpt>
      <trkpt lat="50.47325" lon="5.22661">
        <ele>206.6</ele>
      </trkpt>
      <trkpt lat="50.47344" lon="5.22666">
        <ele>206</ele>
      </trkpt>
      <trkpt lat="50.47483" lon="5.22698">
        <ele>207.3</ele>
      </trkpt>
      <trkpt lat="50.47538" lon="5.22705">
        <ele>209.4</ele>
      </trkpt>
      <trkpt lat="50.47568" lon="5.22704">
        <ele>211.6</ele>
      </trkpt>
      <trkpt lat="50.47605" lon="5.22703">
        <ele>215</ele>
      </trkpt>
      <trkpt lat="50.47641" lon="5.22695">
        <ele>218.1</ele>
      </trkpt>
      <trkpt lat="50.47641" lon="5.22695">
        <ele>218.1</ele>
      </trkpt>
      <trkpt lat="50.47635" lon="5.22643">
        <ele>219.3</ele>
      </trkpt>
      <trkpt lat="50.47625" lon="5.22526">
        <ele>222.1</ele>
      </trkpt>
      <trkpt lat="50.47617" lon="5.22451">
        <ele>225.4</ele>
      </trkpt>
      <trkpt lat="50.47601" lon="5.2239">
        <ele>227.6</ele>
      </trkpt>
      <trkpt lat="50.47573" lon="5.22295">
        <ele>231</ele>
      </trkpt>
      <trkpt lat="50.47558" lon="5.22236">
        <ele>233.1</ele>
      </trkpt>
      <trkpt lat="50.47546" lon="5.22179">
        <ele>235.4</ele>
      </trkpt>
      <trkpt lat="50.47548" lon="5.22167">
        <ele>236</ele>
      </trkpt>
      <trkpt lat="50.47559" lon="5.22179">
        <ele>235.8</ele>
      </trkpt>
      <trkpt lat="50.47578" lon="5.22206">
        <ele>235.9</ele>
        <extensions>
          <visugpx:TrkExtension xmlns:visugpx="https://www.visugpx.com/editgpx/">
            <visugpx:node>42</visugpx:node>
            </visugpx:TrkExtension>
        </extensions>
      </trkpt>
      <trkpt lat="50.47584" lon="5.22213">
        <ele>235.7</ele>
      </trkpt>
      <trkpt lat="50.47598" lon="5.22227">
        <ele>235.9</ele>
      </trkpt>
      <trkpt lat="50.47853" lon="5.22442">
        <ele>246.2</ele>
      </trkpt>
      <trkpt lat="50.47897" lon="5.22481">
        <ele>248.6</ele>
      </trkpt>
      <trkpt lat="50.47904" lon="5.22485">
        <ele>249.1</ele>
      </trkpt>
      <trkpt lat="50.47911" lon="5.22487">
        <ele>249.6</ele>
      </trkpt>
      <trkpt lat="50.47921" lon="5.22486">
        <ele>250.2</ele>
      </trkpt>
      <trkpt lat="50.47948" lon="5.22483">
        <ele>251.8</ele>
      </trkpt>
      <trkpt lat="50.47975" lon="5.22541">
        <ele>252.2</ele>
      </trkpt>
      <trkpt lat="50.47986" lon="5.22566">
        <ele>252.8</ele>
      </trkpt>
      <trkpt lat="50.47989" lon="5.22576">
        <ele>252.8</ele>
      </trkpt>
      <trkpt lat="50.47986" lon="5.22579">
        <ele>252.6</ele>
      </trkpt>
      <trkpt lat="50.47985" lon="5.22584">
        <ele>252.4</ele>
      </trkpt>
      <trkpt lat="50.47986" lon="5.2259">
        <ele>252.4</ele>
      </trkpt>
      <trkpt lat="50.47987" lon="5.22592">
        <ele>252.4</ele>
      </trkpt>
      <trkpt lat="50.47992" lon="5.22595">
        <ele>252.6</ele>
      </trkpt>
      <trkpt lat="50.47996" lon="5.22591">
        <ele>252.8</ele>
      </trkpt>
      <trkpt lat="50.47997" lon="5.22588">
        <ele>252.9</ele>
      </trkpt>
      <trkpt lat="50.47999" lon="5.22588">
        <ele>253</ele>
        <extensions>
          <visugpx:TrkExtension xmlns:visugpx="https://www.visugpx.com/editgpx/">
            <visugpx:node>43</visugpx:node>
            </visugpx:TrkExtension>
        </extensions>
      </trkpt>
      <trkpt lat="50.48004" lon="5.22589">
        <ele>253.3</ele>
      </trkpt>
      <trkpt lat="50.48016" lon="5.22587">
        <ele>254.1</ele>
      </trkpt>
      <trkpt lat="50.48021" lon="5.22585">
        <ele>254.5</ele>
      </trkpt>
      <trkpt lat="50.48088" lon="5.22565">
        <ele>257.2</ele>
      </trkpt>
      <trkpt lat="50.48121" lon="5.22555">
        <ele>258</ele>
      </trkpt>
      <trkpt lat="50.48147" lon="5.22549">
        <ele>258.5</ele>
      </trkpt>
      <trkpt lat="50.48155" lon="5.22547">
        <ele>258.7</ele>
      </trkpt>
      <trkpt lat="50.48279" lon="5.22512">
        <ele>251.9</ele>
      </trkpt>
      <trkpt lat="50.48286" lon="5.22512">
        <ele>251.3</ele>
      </trkpt>
      <trkpt lat="50.48295" lon="5.22515">
        <ele>250.4</ele>
      </trkpt>
      <trkpt lat="50.48303" lon="5.2252">
        <ele>249.5</ele>
      </trkpt>
      <trkpt lat="50.4831" lon="5.22529">
        <ele>248.8</ele>
      </trkpt>
      <trkpt lat="50.48372" lon="5.22628">
        <ele>244.1</ele>
      </trkpt>
      <trkpt lat="50.4838" lon="5.22636">
        <ele>242.9</ele>
      </trkpt>
      <trkpt lat="50.48397" lon="5.22639">
        <ele>240.4</ele>
      </trkpt>
      <trkpt lat="50.4841" lon="5.22634">
        <ele>239.4</ele>
      </trkpt>
      <trkpt lat="50.48419" lon="5.22626">
        <ele>238.2</ele>
      </trkpt>
      <trkpt lat="50.4848" lon="5.22509">
        <ele>228.8</ele>
      </trkpt>
      <trkpt lat="50.48491" lon="5.22493">
        <ele>227.3</ele>
      </trkpt>
      <trkpt lat="50.48508" lon="5.2248">
        <ele>227.4</ele>
      </trkpt>
      <trkpt lat="50.48518" lon="5.22474">
        <ele>227.9</ele>
      </trkpt>
      <trkpt lat="50.48529" lon="5.22471">
        <ele>227.9</ele>
      </trkpt>
      <trkpt lat="50.48554" lon="5.22477">
        <ele>226.9</ele>
      </trkpt>
      <trkpt lat="50.48582" lon="5.22488">
        <ele>227</ele>
      </trkpt>
      <trkpt lat="50.48582" lon="5.22488">
        <ele>227</ele>
      </trkpt>
      <trkpt lat="50.48581" lon="5.22499">
        <ele>226.9</ele>
      </trkpt>
      <trkpt lat="50.48582" lon="5.22508">
        <ele>226.4</ele>
      </trkpt>
      <trkpt lat="50.48599" lon="5.22567">
        <ele>224.9</ele>
      </trkpt>
      <trkpt lat="50.48624" lon="5.22701">
        <ele>220.1</ele>
      </trkpt>
      <trkpt lat="50.48629" lon="5.22715">
        <ele>219.4</ele>
      </trkpt>
      <trkpt lat="50.4863" lon="5.22717">
        <ele>219.3</ele>
      </trkpt>
      <trkpt lat="50.48636" lon="5.2273">
        <ele>218.8</ele>
      </trkpt>
      <trkpt lat="50.48664" lon="5.22768">
        <ele>217.7</ele>
      </trkpt>
      <trkpt lat="50.48669" lon="5.22777">
        <ele>216.7</ele>
      </trkpt>
      <trkpt lat="50.48671" lon="5.22788">
        <ele>216.7</ele>
      </trkpt>
      <trkpt lat="50.4867" lon="5.22804">
        <ele>215.9</ele>
      </trkpt>
      <trkpt lat="50.48665" lon="5.22842">
        <ele>212.6</ele>
      </trkpt>
      <trkpt lat="50.48664" lon="5.22869">
        <ele>211.1</ele>
      </trkpt>
      <trkpt lat="50.48669" lon="5.22893">
        <ele>210.4</ele>
      </trkpt>
      <trkpt lat="50.48718" lon="5.23031">
        <ele>203.4</ele>
      </trkpt>
      <trkpt lat="50.48725" lon="5.23058">
        <ele>201.8</ele>
      </trkpt>
      <trkpt lat="50.48744" lon="5.23156">
        <ele>198.5</ele>
      </trkpt>
      <trkpt lat="50.48746" lon="5.23173">
        <ele>197.2</ele>
      </trkpt>
      <trkpt lat="50.48752" lon="5.23223">
        <ele>194.5</ele>
      </trkpt>
      <trkpt lat="50.48753" lon="5.23234">
        <ele>194.7</ele>
      </trkpt>
      <trkpt lat="50.48754" lon="5.23244">
        <ele>194.8</ele>
      </trkpt>
      <trkpt lat="50.48759" lon="5.23338">
        <ele>190.1</ele>
      </trkpt>
      <trkpt lat="50.48759" lon="5.23372">
        <ele>186.3</ele>
      </trkpt>
      <trkpt lat="50.48746" lon="5.23438">
        <ele>183</ele>
      </trkpt>
      <trkpt lat="50.48745" lon="5.23466">
        <ele>181.6</ele>
      </trkpt>
      <trkpt lat="50.48754" lon="5.23527">
        <ele>178.2</ele>
      </trkpt>
      <trkpt lat="50.48757" lon="5.23543">
        <ele>177.9</ele>
      </trkpt>
      <trkpt lat="50.48765" lon="5.23569">
        <ele>176.7</ele>
      </trkpt>
      <trkpt lat="50.48774" lon="5.23591">
        <ele>175.3</ele>
      </trkpt>
      <trkpt lat="50.48784" lon="5.23608">
        <ele>173.5</ele>
      </trkpt>
      <trkpt lat="50.48794" lon="5.23624">
        <ele>173.1</ele>
      </trkpt>
      <trkpt lat="50.48814" lon="5.23643">
        <ele>171.5</ele>
      </trkpt>
      <trkpt lat="50.4887" lon="5.23692">
        <ele>166.9</ele>
      </trkpt>
      <trkpt lat="50.48888" lon="5.23705">
        <ele>166.5</ele>
      </trkpt>
      <trkpt lat="50.48951" lon="5.23736">
        <ele>160.7</ele>
      </trkpt>
      <trkpt lat="50.48973" lon="5.2375">
        <ele>157.7</ele>
      </trkpt>
      <trkpt lat="50.48987" lon="5.23765">
        <ele>156.4</ele>
      </trkpt>
      <trkpt lat="50.48995" lon="5.23784">
        <ele>155.9</ele>
      </trkpt>
      <trkpt lat="50.48996" lon="5.23805">
        <ele>155.9</ele>
      </trkpt>
      <trkpt lat="50.48994" lon="5.23843">
        <ele>153.6</ele>
      </trkpt>
      <trkpt lat="50.48995" lon="5.23871">
        <ele>152.2</ele>
      </trkpt>
      <trkpt lat="50.49002" lon="5.23914">
        <ele>148.1</ele>
      </trkpt>
      <trkpt lat="50.49055" lon="5.24153">
        <ele>136.8</ele>
      </trkpt>
      <trkpt lat="50.4906" lon="5.24173">
        <ele>136.5</ele>
      </trkpt>
      <trkpt lat="50.49064" lon="5.24163">
        <ele>134.4</ele>
      </trkpt>
      <trkpt lat="50.49062" lon="5.24121">
        <ele>133.5</ele>
        <extensions>
          <visugpx:TrkExtension xmlns:visugpx="https://www.visugpx.com/editgpx/">
            <visugpx:node>45</visugpx:node>
            </visugpx:TrkExtension>
        </extensions>
      </trkpt>
      <trkpt lat="50.49059" lon="5.24044">
        <ele>131.5</ele>
      </trkpt>
      <trkpt lat="50.4906" lon="5.23871">
        <ele>123</ele>
      </trkpt>
      <trkpt lat="50.49061" lon="5.23779">
        <ele>121</ele>
      </trkpt>
      <trkpt lat="50.49071" lon="5.23756">
        <ele>119.6</ele>
      </trkpt>
      <trkpt lat="50.49074" lon="5.23721">
        <ele>120.4</ele>
      </trkpt>
      <trkpt lat="50.49077" lon="5.23702">
        <ele>120.6</ele>
      </trkpt>
      <trkpt lat="50.49087" lon="5.23675">
        <ele>120</ele>
      </trkpt>
      <trkpt lat="50.49089" lon="5.23671">
        <ele>119.7</ele>
      </trkpt>
      <trkpt lat="50.49099" lon="5.23652">
        <ele>119.7</ele>
      </trkpt>
      <trkpt lat="50.49165" lon="5.23572">
        <ele>116.5</ele>
      </trkpt>
      <trkpt lat="50.49182" lon="5.23547">
        <ele>115.8</ele>
      </trkpt>
      <trkpt lat="50.49225" lon="5.23486">
        <ele>112.9</ele>
      </trkpt>
      <trkpt lat="50.49239" lon="5.23473">
        <ele>112.4</ele>
      </trkpt>
      <trkpt lat="50.49312" lon="5.23431">
        <ele>111.3</ele>
      </trkpt>
      <trkpt lat="50.49332" lon="5.23419">
        <ele>111</ele>
      </trkpt>
      <trkpt lat="50.49364" lon="5.23411">
        <ele>111.4</ele>
      </trkpt>
      <trkpt lat="50.49401" lon="5.2341">
        <ele>111.1</ele>
      </trkpt>
      <trkpt lat="50.49491" lon="5.23428">
        <ele>110.6</ele>
      </trkpt>
      <trkpt lat="50.49495" lon="5.2343">
        <ele>110.5</ele>
      </trkpt>
      <trkpt lat="50.49511" lon="5.23442">
        <ele>109.7</ele>
      </trkpt>
      <trkpt lat="50.49539" lon="5.23478">
        <ele>109.2</ele>
        <extensions>
          <visugpx:TrkExtension xmlns:visugpx="https://www.visugpx.com/editgpx/">
            <visugpx:node>46</visugpx:node>
            </visugpx:TrkExtension>
        </extensions>
      </trkpt>
      <trkpt lat="50.49558" lon="5.23502">
        <ele>109</ele>
      </trkpt>
      <trkpt lat="50.49618" lon="5.23586">
        <ele>108.5</ele>
      </trkpt>
      <trkpt lat="50.49644" lon="5.23644">
        <ele>109.8</ele>
      </trkpt>
      <trkpt lat="50.49654" lon="5.23698">
        <ele>110.3</ele>
      </trkpt>
      <trkpt lat="50.49656" lon="5.23735">
        <ele>110</ele>
      </trkpt>
      <trkpt lat="50.49656" lon="5.23774">
        <ele>109.5</ele>
      </trkpt>
      <trkpt lat="50.49645" lon="5.23916">
        <ele>109.6</ele>
      </trkpt>
      <trkpt lat="50.49646" lon="5.23951">
        <ele>109.9</ele>
      </trkpt>
      <trkpt lat="50.49656" lon="5.24006">
        <ele>109.6</ele>
      </trkpt>
      <trkpt lat="50.49672" lon="5.24061">
        <ele>108.5</ele>
      </trkpt>
      <trkpt lat="50.49683" lon="5.2409">
        <ele>107.6</ele>
      </trkpt>
      <trkpt lat="50.49697" lon="5.24116">
        <ele>105.1</ele>
      </trkpt>
      <trkpt lat="50.49718" lon="5.24144">
        <ele>103.7</ele>
      </trkpt>
      <trkpt lat="50.4975" lon="5.24172">
        <ele>102</ele>
      </trkpt>
      <trkpt lat="50.49778" lon="5.2418">
        <ele>101.7</ele>
      </trkpt>
      <trkpt lat="50.49814" lon="5.24178">
        <ele>102.6</ele>
      </trkpt>
      <trkpt lat="50.49833" lon="5.24165">
        <ele>101.6</ele>
      </trkpt>
      <trkpt lat="50.49883" lon="5.24106">
        <ele>104.9</ele>
      </trkpt>
      <trkpt lat="50.49915" lon="5.24068">
        <ele>103.5</ele>
      </trkpt>
      <trkpt lat="50.50048" lon="5.23918">
        <ele>99.4</ele>
      </trkpt>
      <trkpt lat="50.50178" lon="5.23777">
        <ele>96.4</ele>
        <extensions>
          <visugpx:TrkExtension xmlns:visugpx="https://www.visugpx.com/editgpx/">
            <visugpx:node>47</visugpx:node>
            </visugpx:TrkExtension>
        </extensions>
      </trkpt>
      <trkpt lat="50.50216" lon="5.23738">
        <ele>96.5</ele>
      </trkpt>
      <trkpt lat="50.50233" lon="5.23726">
        <ele>95.5</ele>
      </trkpt>
      <trkpt lat="50.50401" lon="5.23629">
        <ele>93.3</ele>
      </trkpt>
      <trkpt lat="50.50441" lon="5.23604">
        <ele>92.2</ele>
      </trkpt>
      <trkpt lat="50.50509" lon="5.23551">
        <ele>90.6</ele>
        <extensions>
          <visugpx:TrkExtension xmlns:visugpx="https://www.visugpx.com/editgpx/">
            <visugpx:node>48</visugpx:node>
            </visugpx:TrkExtension>
        </extensions>
      </trkpt>
      <trkpt lat="50.50586" lon="5.2349">
        <ele>90.2</ele>
      </trkpt>
      <trkpt lat="50.50597" lon="5.23486">
        <ele>89.5</ele>
      </trkpt>
      <trkpt lat="50.50662" lon="5.23476">
        <ele>87.9</ele>
      </trkpt>
      <trkpt lat="50.5069" lon="5.23465">
        <ele>88.7</ele>
      </trkpt>
      <trkpt lat="50.50801" lon="5.2341">
        <ele>89.6</ele>
      </trkpt>
      <trkpt lat="50.5082" lon="5.23406">
        <ele>91.2</ele>
      </trkpt>
      <trkpt lat="50.50826" lon="5.23407">
        <ele>91.7</ele>
      </trkpt>
      <trkpt lat="50.50836" lon="5.23412">
        <ele>91.8</ele>
      </trkpt>
      <trkpt lat="50.50859" lon="5.2343">
        <ele>92.4</ele>
      </trkpt>
      <trkpt lat="50.50868" lon="5.2344">
        <ele>92</ele>
      </trkpt>
      <trkpt lat="50.50888" lon="5.23456">
        <ele>91.3</ele>
        <extensions>
          <visugpx:TrkExtension xmlns:visugpx="https://www.visugpx.com/editgpx/">
            <visugpx:node>49</visugpx:node>
            </visugpx:TrkExtension>
        </extensions>
      </trkpt>
      <trkpt lat="50.50903" lon="5.2347">
        <ele>92</ele>
      </trkpt>
      <trkpt lat="50.50912" lon="5.2348">
        <ele>90.9</ele>
      </trkpt>
      <trkpt lat="50.50919" lon="5.23491">
        <ele>90.9</ele>
      </trkpt>
      <trkpt lat="50.50932" lon="5.23517">
        <ele>91.8</ele>
      </trkpt>
      <trkpt lat="50.50937" lon="5.23528">
        <ele>91.1</ele>
      </trkpt>
      <trkpt lat="50.5094" lon="5.23545">
        <ele>89.3</ele>
      </trkpt>
      <trkpt lat="50.50943" lon="5.2358">
        <ele>87</ele>
      </trkpt>
      <trkpt lat="50.50943" lon="5.23598">
        <ele>86.4</ele>
      </trkpt>
      <trkpt lat="50.50927" lon="5.23722">
        <ele>87.3</ele>
      </trkpt>
      <trkpt lat="50.50914" lon="5.23852">
        <ele>82</ele>
      </trkpt>
      <trkpt lat="50.50912" lon="5.23907">
        <ele>81.8</ele>
        <extensions>
          <visugpx:TrkExtension xmlns:visugpx="https://www.visugpx.com/editgpx/">
            <visugpx:node>50</visugpx:node>
            </visugpx:TrkExtension>
        </extensions>
      </trkpt>
      <trkpt lat="50.50912" lon="5.23916">
        <ele>81.8</ele>
      </trkpt>
      <trkpt lat="50.50914" lon="5.23923">
        <ele>81.9</ele>
      </trkpt>
      <trkpt lat="50.50923" lon="5.23934">
        <ele>81.9</ele>
      </trkpt>
      <trkpt lat="50.50929" lon="5.23938">
        <ele>81.7</ele>
      </trkpt>
      <trkpt lat="50.50942" lon="5.23942">
        <ele>81.3</ele>
      </trkpt>
      <trkpt lat="50.50967" lon="5.2394">
        <ele>81.6</ele>
      </trkpt>
      <trkpt lat="50.50983" lon="5.23936">
        <ele>81.5</ele>
        <extensions>
          <visugpx:TrkExtension xmlns:visugpx="https://www.visugpx.com/editgpx/">
            <visugpx:node>51</visugpx:node>
            </visugpx:TrkExtension>
        </extensions>
      </trkpt>
      <trkpt lat="50.50986" lon="5.23935">
        <ele>81.5</ele>
        <extensions>
          <visugpx:TrkExtension xmlns:visugpx="https://www.visugpx.com/editgpx/">
            <visugpx:node>52</visugpx:node>
            </visugpx:TrkExtension>
        </extensions>
      </trkpt>
      <trkpt lat="50.50986" lon="5.23934">
        <ele>81.8</ele>
      </trkpt>
      <trkpt lat="50.5103" lon="5.23921">
        <ele>83.9</ele>
      </trkpt>
      <trkpt lat="50.51043" lon="5.2392">
        <ele>82</ele>
      </trkpt>
      <trkpt lat="50.51054" lon="5.23919">
        <ele>80.3</ele>
      </trkpt>
      <trkpt lat="50.51071" lon="5.2392">
        <ele>80.4</ele>
      </trkpt>
      <trkpt lat="50.51095" lon="5.23924">
        <ele>80.1</ele>
      </trkpt>
      <trkpt lat="50.5116" lon="5.2394">
        <ele>79</ele>
      </trkpt>
      <trkpt lat="50.5117" lon="5.23939">
        <ele>79.2</ele>
      </trkpt>
      <trkpt lat="50.51179" lon="5.23939">
        <ele>79.2</ele>
      </trkpt>
      <trkpt lat="50.51239" lon="5.23931">
        <ele>77.6</ele>
      </trkpt>
      <trkpt lat="50.51309" lon="5.2391">
        <ele>78</ele>
      </trkpt>
      <trkpt lat="50.51326" lon="5.23905">
        <ele>78</ele>
      </trkpt>
      <trkpt lat="50.51347" lon="5.23899">
        <ele>77.5</ele>
      </trkpt>
      <trkpt lat="50.51349" lon="5.23898">
        <ele>77.4</ele>
      </trkpt>
      <trkpt lat="50.51404" lon="5.23885">
        <ele>77</ele>
      </trkpt>
      <trkpt lat="50.51444" lon="5.23881">
        <ele>76</ele>
      </trkpt>
      <trkpt lat="50.51453" lon="5.23881">
        <ele>76</ele>
      </trkpt>
      <trkpt lat="50.51495" lon="5.23885">
        <ele>76.2</ele>
      </trkpt>
      <trkpt lat="50.51512" lon="5.23888">
        <ele>75.6</ele>
      </trkpt>
      <trkpt lat="50.51535" lon="5.23892">
        <ele>74.9</ele>
      </trkpt>
      <trkpt lat="50.5154" lon="5.23896">
        <ele>74.7</ele>
      </trkpt>
      <trkpt lat="50.5159" lon="5.23938">
        <ele>74.2</ele>
      </trkpt>
      <trkpt lat="50.51609" lon="5.23956">
        <ele>73.2</ele>
      </trkpt>
      <trkpt lat="50.51621" lon="5.2397">
        <ele>72.8</ele>
      </trkpt>
      <trkpt lat="50.51636" lon="5.23997">
        <ele>73.9</ele>
      </trkpt>
      <trkpt lat="50.51643" lon="5.2401">
        <ele>73.6</ele>
      </trkpt>
      <trkpt lat="50.5165" lon="5.24023">
        <ele>73.2</ele>
      </trkpt>
      <trkpt lat="50.51651" lon="5.24026">
        <ele>73.1</ele>
      </trkpt>
      <trkpt lat="50.51651" lon="5.2403">
        <ele>73</ele>
      </trkpt>
      <trkpt lat="50.51656" lon="5.24041">
        <ele>73</ele>
      </trkpt>
      <trkpt lat="50.51658" lon="5.24042">
        <ele>73</ele>
      </trkpt>
      <trkpt lat="50.51662" lon="5.24043">
        <ele>73</ele>
      </trkpt>
      <trkpt lat="50.51665" lon="5.24041">
        <ele>73</ele>
      </trkpt>
      <trkpt lat="50.51668" lon="5.24038">
        <ele>73</ele>
      </trkpt>
      <trkpt lat="50.51669" lon="5.24035">
        <ele>73</ele>
      </trkpt>
      <trkpt lat="50.5167" lon="5.24032">
        <ele>73</ele>
      </trkpt>
      <trkpt lat="50.51671" lon="5.24028">
        <ele>73</ele>
      </trkpt>
      <trkpt lat="50.51694" lon="5.24027">
        <ele>73</ele>
      </trkpt>
      <trkpt lat="50.51714" lon="5.24027">
        <ele>73</ele>
        <extensions>
          <visugpx:TrkExtension xmlns:visugpx="https://www.visugpx.com/editgpx/">
            <visugpx:node>53</visugpx:node>
            </visugpx:TrkExtension>
        </extensions>
      </trkpt>
      <trkpt lat="50.51723" lon="5.24027">
        <ele>73</ele>
      </trkpt>
      <trkpt lat="50.51728" lon="5.24027">
        <ele>73</ele>
      </trkpt>
      <trkpt lat="50.51739" lon="5.24023">
        <ele>73</ele>
      </trkpt>
      <trkpt lat="50.51743" lon="5.24022">
        <ele>73</ele>
      </trkpt>
      <trkpt lat="50.5176" lon="5.24017">
        <ele>72.6</ele>
      </trkpt>
      <trkpt lat="50.51778" lon="5.24005">
        <ele>72</ele>
      </trkpt>
      <trkpt lat="50.51795" lon="5.23995">
        <ele>72.1</ele>
      </trkpt>
      <trkpt lat="50.51801" lon="5.23992">
        <ele>72</ele>
      </trkpt>
      <trkpt lat="50.51814" lon="5.23985">
        <ele>72</ele>
      </trkpt>
      <trkpt lat="50.51827" lon="5.23977">
        <ele>72</ele>
      </trkpt>
      <trkpt lat="50.51853" lon="5.23965">
        <ele>72.1</ele>
      </trkpt>
      <trkpt lat="50.51868" lon="5.23959">
        <ele>72.4</ele>
      </trkpt>
      <trkpt lat="50.51878" lon="5.23955">
        <ele>72.2</ele>
      </trkpt>
      <trkpt lat="50.51883" lon="5.23953">
        <ele>72.1</ele>
      </trkpt>
      <trkpt lat="50.51891" lon="5.2395">
        <ele>72.1</ele>
      </trkpt>
      <trkpt lat="50.51903" lon="5.23945">
        <ele>72.5</ele>
      </trkpt>
      <trkpt lat="50.51919" lon="5.23934">
        <ele>73.1</ele>
      </trkpt>
      <trkpt lat="50.51932" lon="5.23919">
        <ele>73.6</ele>
      </trkpt>
      <trkpt lat="50.51938" lon="5.23911">
        <ele>73.8</ele>
      </trkpt>
      <trkpt lat="50.51941" lon="5.23904">
        <ele>73.9</ele>
      </trkpt>
      <trkpt lat="50.51954" lon="5.23871">
        <ele>74.7</ele>
      </trkpt>
      <trkpt lat="50.5196" lon="5.23861">
        <ele>75.6</ele>
      </trkpt>
      <trkpt lat="50.51963" lon="5.23862">
        <ele>75.6</ele>
      </trkpt>
      <trkpt lat="50.51966" lon="5.23861">
        <ele>75.8</ele>
      </trkpt>
      <trkpt lat="50.51969" lon="5.23859">
        <ele>75.8</ele>
      </trkpt>
      <trkpt lat="50.51972" lon="5.23853">
        <ele>75.4</ele>
      </trkpt>
      <trkpt lat="50.51972" lon="5.23847">
        <ele>75</ele>
      </trkpt>
      <trkpt lat="50.51972" lon="5.23843">
        <ele>74.7</ele>
      </trkpt>
      <trkpt lat="50.51971" lon="5.23841">
        <ele>74.6</ele>
      </trkpt>
      <trkpt lat="50.51969" lon="5.23835">
        <ele>74.3</ele>
      </trkpt>
      <trkpt lat="50.51971" lon="5.23828">
        <ele>73.3</ele>
      </trkpt>
      <trkpt lat="50.51974" lon="5.23821">
        <ele>72.1</ele>
      </trkpt>
      <trkpt lat="50.51999" lon="5.23761">
        <ele>71</ele>
      </trkpt>
      <trkpt lat="50.52014" lon="5.23725">
        <ele>71</ele>
        <extensions>
          <visugpx:TrkExtension xmlns:visugpx="https://www.visugpx.com/editgpx/">
            <visugpx:node>54</visugpx:node>
            </visugpx:TrkExtension>
        </extensions>
      </trkpt>
      <trkpt lat="50.52044" lon="5.23652">
        <ele>76</ele>
      </trkpt>
      <trkpt lat="50.5208" lon="5.23573">
        <ele>75.8</ele>
      </trkpt>
      <trkpt lat="50.521" lon="5.23528">
        <ele>76</ele>
      </trkpt>
      <trkpt lat="50.52116" lon="5.23485">
        <ele>77.1</ele>
      </trkpt>
      <trkpt lat="50.52122" lon="5.23473">
        <ele>77.4</ele>
      </trkpt>
      <trkpt lat="50.52139" lon="5.23449">
        <ele>78</ele>
      </trkpt>
      <trkpt lat="50.52174" lon="5.23422">
        <ele>80.3</ele>
      </trkpt>
      <trkpt lat="50.52214" lon="5.23385">
        <ele>83.9</ele>
      </trkpt>
      <trkpt lat="50.52246" lon="5.23359">
        <ele>85.3</ele>
        <extensions>
          <visugpx:TrkExtension xmlns:visugpx="https://www.visugpx.com/editgpx/">
            <visugpx:node>55</visugpx:node>
            </visugpx:TrkExtension>
        </extensions>
      </trkpt>
      <trkpt lat="50.52353" lon="5.23269">
        <ele>90.4</ele>
      </trkpt>
      <trkpt lat="50.52388" lon="5.23235">
        <ele>92.5</ele>
      </trkpt>
      <trkpt lat="50.52399" lon="5.23222">
        <ele>93.4</ele>
      </trkpt>
      <trkpt lat="50.52433" lon="5.23172">
        <ele>96.8</ele>
      </trkpt>
      <trkpt lat="50.52533" lon="5.23004">
        <ele>97.1</ele>
      </trkpt>
      <trkpt lat="50.5254" lon="5.22985">
        <ele>97.4</ele>
      </trkpt>
      <trkpt lat="50.52542" lon="5.22987">
        <ele>97.2</ele>
      </trkpt>
      <trkpt lat="50.52546" lon="5.22988">
        <ele>97</ele>
      </trkpt>
      <trkpt lat="50.52553" lon="5.22986">
        <ele>96.6</ele>
      </trkpt>
      <trkpt lat="50.5266" lon="5.22941">
        <ele>102.3</ele>
      </trkpt>
      <trkpt lat="50.52667" lon="5.22939">
        <ele>102.8</ele>
      </trkpt>
      <trkpt lat="50.52712" lon="5.22933">
        <ele>105.5</ele>
        <extensions>
          <visugpx:TrkExtension xmlns:visugpx="https://www.visugpx.com/editgpx/">
            <visugpx:node>56</visugpx:node>
            </visugpx:TrkExtension>
        </extensions>
      </trkpt>
      <trkpt lat="50.52738" lon="5.22937">
        <ele>107.7</ele>
        <extensions>
          <visugpx:TrkExtension xmlns:visugpx="https://www.visugpx.com/editgpx/">
            <visugpx:node>57</visugpx:node>
            </visugpx:TrkExtension>
        </extensions>
      </trkpt>
      <trkpt lat="50.52752" lon="5.22945">
        <ele>107.6</ele>
      </trkpt>
      <trkpt lat="50.52766" lon="5.22959">
        <ele>110.5</ele>
      </trkpt>
      <trkpt lat="50.5278" lon="5.2299">
        <ele>111.4</ele>
      </trkpt>
      <trkpt lat="50.52793" lon="5.23034">
        <ele>115.8</ele>
      </trkpt>
      <trkpt lat="50.52803" lon="5.23077">
        <ele>113.9</ele>
      </trkpt>
      <trkpt lat="50.5283" lon="5.2316">
        <ele>116.2</ele>
      </trkpt>
      <trkpt lat="50.52842" lon="5.23185">
        <ele>117.1</ele>
      </trkpt>
      <trkpt lat="50.53033" lon="5.23607">
        <ele>132.5</ele>
      </trkpt>
      <trkpt lat="50.53079" lon="5.23708">
        <ele>134.5</ele>
      </trkpt>
      <trkpt lat="50.53168" lon="5.2391">
        <ele>140.1</ele>
      </trkpt>
      <trkpt lat="50.53186" lon="5.23951">
        <ele>140.2</ele>
      </trkpt>
      <trkpt lat="50.53192" lon="5.23958">
        <ele>141.2</ele>
      </trkpt>
      <trkpt lat="50.532" lon="5.23968">
        <ele>141.2</ele>
      </trkpt>
      <trkpt lat="50.53211" lon="5.23975">
        <ele>141.6</ele>
      </trkpt>
      <trkpt lat="50.53222" lon="5.23978">
        <ele>142.6</ele>
      </trkpt>
      <trkpt lat="50.53235" lon="5.23976">
        <ele>142.4</ele>
      </trkpt>
      <trkpt lat="50.53267" lon="5.23963">
        <ele>143</ele>
      </trkpt>
      <trkpt lat="50.53283" lon="5.23955">
        <ele>144</ele>
      </trkpt>
      <trkpt lat="50.53291" lon="5.23953">
        <ele>144.6</ele>
      </trkpt>
      <trkpt lat="50.533" lon="5.23954">
        <ele>144.8</ele>
      </trkpt>
      <trkpt lat="50.53315" lon="5.23959">
        <ele>145.4</ele>
      </trkpt>
      <trkpt lat="50.5334" lon="5.23981">
        <ele>146.5</ele>
      </trkpt>
      <trkpt lat="50.53351" lon="5.23996">
        <ele>147.2</ele>
      </trkpt>
      <trkpt lat="50.53391" lon="5.24078">
        <ele>148.3</ele>
      </trkpt>
      <trkpt lat="50.53453" lon="5.24206">
        <ele>149.2</ele>
      </trkpt>
      <trkpt lat="50.53457" lon="5.24218">
        <ele>149.1</ele>
      </trkpt>
      <trkpt lat="50.53596" lon="5.24591">
        <ele>148.5</ele>
      </trkpt>
      <trkpt lat="50.53648" lon="5.24726">
        <ele>146.4</ele>
      </trkpt>
      <trkpt lat="50.53694" lon="5.24845">
        <ele>148.5</ele>
      </trkpt>
      <trkpt lat="50.53741" lon="5.24966">
        <ele>150.5</ele>
      </trkpt>
      <trkpt lat="50.53742" lon="5.24969">
        <ele>150.6</ele>
      </trkpt>
      <trkpt lat="50.53751" lon="5.24992">
        <ele>151</ele>
      </trkpt>
      <trkpt lat="50.53775" lon="5.25055">
        <ele>151.8</ele>
      </trkpt>
      <trkpt lat="50.53792" lon="5.25105">
        <ele>152.5</ele>
      </trkpt>
      <trkpt lat="50.53805" lon="5.25127">
        <ele>153</ele>
      </trkpt>
      <trkpt lat="50.53821" lon="5.25149">
        <ele>153.6</ele>
      </trkpt>
      <trkpt lat="50.5384" lon="5.25174">
        <ele>154.4</ele>
      </trkpt>
      <trkpt lat="50.53841" lon="5.25176">
        <ele>154.5</ele>
      </trkpt>
      <trkpt lat="50.53866" lon="5.2521">
        <ele>155</ele>
        <extensions>
          <visugpx:TrkExtension xmlns:visugpx="https://www.visugpx.com/editgpx/">
            <visugpx:node>58</visugpx:node>
            </visugpx:TrkExtension>
        </extensions>
      </trkpt>
      <trkpt lat="50.5392" lon="5.25285">
        <ele>155.1</ele>
      </trkpt>
      <trkpt lat="50.53964" lon="5.25338">
        <ele>155.8</ele>
      </trkpt>
      <trkpt lat="50.54236" lon="5.25641">
        <ele>168.5</ele>
      </trkpt>
      <trkpt lat="50.54481" lon="5.2591">
        <ele>174.2</ele>
      </trkpt>
      <trkpt lat="50.54664" lon="5.26114">
        <ele>179</ele>
      </trkpt>
      <trkpt lat="50.54703" lon="5.26155">
        <ele>179.9</ele>
      </trkpt>
      <trkpt lat="50.54813" lon="5.26279">
        <ele>183</ele>
      </trkpt>
      <trkpt lat="50.54828" lon="5.26294">
        <ele>183.1</ele>
      </trkpt>
      <trkpt lat="50.54861" lon="5.26322">
        <ele>183.6</ele>
      </trkpt>
      <trkpt lat="50.54886" lon="5.26333">
        <ele>184</ele>
      </trkpt>
      <trkpt lat="50.55022" lon="5.26354">
        <ele>186</ele>
      </trkpt>
      <trkpt lat="50.55132" lon="5.26369">
        <ele>187</ele>
      </trkpt>
      <trkpt lat="50.55176" lon="5.26379">
        <ele>187.4</ele>
      </trkpt>
      <trkpt lat="50.55201" lon="5.26388">
        <ele>187</ele>
      </trkpt>
      <trkpt lat="50.55226" lon="5.26401">
        <ele>186.7</ele>
      </trkpt>
      <trkpt lat="50.55298" lon="5.26449">
        <ele>186.5</ele>
      </trkpt>
      <trkpt lat="50.55333" lon="5.26468">
        <ele>186.3</ele>
      </trkpt>
      <trkpt lat="50.55371" lon="5.26483">
        <ele>187</ele>
      </trkpt>
      <trkpt lat="50.55481" lon="5.26521">
        <ele>187.7</ele>
      </trkpt>
      <trkpt lat="50.55671" lon="5.26583">
        <ele>193.2</ele>
      </trkpt>
      <trkpt lat="50.55687" lon="5.26587">
        <ele>193.6</ele>
      </trkpt>
      <trkpt lat="50.55714" lon="5.26589">
        <ele>193.9</ele>
      </trkpt>
      <trkpt lat="50.55747" lon="5.26587">
        <ele>194.8</ele>
      </trkpt>
      <trkpt lat="50.55778" lon="5.26588">
        <ele>194.7</ele>
      </trkpt>
      <trkpt lat="50.55843" lon="5.26604">
        <ele>196.8</ele>
      </trkpt>
      <trkpt lat="50.55897" lon="5.26625">
        <ele>198.3</ele>
      </trkpt>
      <trkpt lat="50.56004" lon="5.26685">
        <ele>201.1</ele>
      </trkpt>
      <trkpt lat="50.56045" lon="5.26705">
        <ele>201.6</ele>
      </trkpt>
      <trkpt lat="50.56081" lon="5.26718">
        <ele>202.3</ele>
      </trkpt>
      <trkpt lat="50.56094" lon="5.2672">
        <ele>202.2</ele>
      </trkpt>
      <trkpt lat="50.56186" lon="5.26721">
        <ele>203</ele>
      </trkpt>
      <trkpt lat="50.56215" lon="5.26724">
        <ele>203</ele>
      </trkpt>
      <trkpt lat="50.56239" lon="5.26729">
        <ele>202.9</ele>
      </trkpt>
      <trkpt lat="50.56343" lon="5.26763">
        <ele>200.2</ele>
      </trkpt>
      <trkpt lat="50.56373" lon="5.26779">
        <ele>199.4</ele>
      </trkpt>
      <trkpt lat="50.56466" lon="5.26843">
        <ele>195.7</ele>
      </trkpt>
      <trkpt lat="50.5649" lon="5.26864">
        <ele>195.6</ele>
      </trkpt>
      <trkpt lat="50.56515" lon="5.26889">
        <ele>195.5</ele>
      </trkpt>
      <trkpt lat="50.56541" lon="5.26922">
        <ele>194.2</ele>
        <extensions>
          <visugpx:TrkExtension xmlns:visugpx="https://www.visugpx.com/editgpx/">
            <visugpx:node>59</visugpx:node>
            </visugpx:TrkExtension>
        </extensions>
      </trkpt>
      <trkpt lat="50.56573" lon="5.26974">
        <ele>193.5</ele>
      </trkpt>
      <trkpt lat="50.56587" lon="5.26994">
        <ele>193.3</ele>
      </trkpt>
      <trkpt lat="50.56611" lon="5.27019">
        <ele>192.6</ele>
      </trkpt>
      <trkpt lat="50.56621" lon="5.27025">
        <ele>192.2</ele>
      </trkpt>
      <trkpt lat="50.56652" lon="5.27037">
        <ele>191.7</ele>
      </trkpt>
      <trkpt lat="50.56721" lon="5.2706">
        <ele>192</ele>
      </trkpt>
      <trkpt lat="50.56729" lon="5.2706">
        <ele>192.2</ele>
      </trkpt>
      <trkpt lat="50.56741" lon="5.27057">
        <ele>192.7</ele>
      </trkpt>
      <trkpt lat="50.56749" lon="5.27051">
        <ele>193.1</ele>
      </trkpt>
      <trkpt lat="50.56767" lon="5.27026">
        <ele>194</ele>
      </trkpt>
      <trkpt lat="50.5691" lon="5.26778">
        <ele>193.2</ele>
      </trkpt>
      <trkpt lat="50.5696" lon="5.26708">
        <ele>194.5</ele>
      </trkpt>
      <trkpt lat="50.56983" lon="5.26658">
        <ele>195.2</ele>
      </trkpt>
      <trkpt lat="50.57002" lon="5.26621">
        <ele>195</ele>
      </trkpt>
      <trkpt lat="50.57023" lon="5.26593">
        <ele>195.1</ele>
      </trkpt>
      <trkpt lat="50.57182" lon="5.26453">
        <ele>196.3</ele>
      </trkpt>
      <trkpt lat="50.57277" lon="5.26363">
        <ele>196.1</ele>
      </trkpt>
      <trkpt lat="50.57359" lon="5.2629">
        <ele>193.1</ele>
      </trkpt>
      <trkpt lat="50.57503" lon="5.2615">
        <ele>196.1</ele>
        <extensions>
          <visugpx:TrkExtension xmlns:visugpx="https://www.visugpx.com/editgpx/">
            <visugpx:node>60</visugpx:node>
            </visugpx:TrkExtension>
        </extensions>
      </trkpt>
      <trkpt lat="50.57503" lon="5.2615">
        <ele>196.1</ele>
        <extensions>
          <visugpx:TrkExtension xmlns:visugpx="https://www.visugpx.com/editgpx/">
            <visugpx:node>61</visugpx:node>
            </visugpx:TrkExtension>
        </extensions>
      </trkpt>
      <trkpt lat="50.57593" lon="5.26061">
        <ele>198.1</ele>
      </trkpt>
      <trkpt lat="50.57622" lon="5.26037">
        <ele>197.6</ele>
      </trkpt>
      <trkpt lat="50.57622" lon="5.26037">
        <ele>197.6</ele>
      </trkpt>
      <trkpt lat="50.57669" lon="5.2612">
        <ele>198.4</ele>
      </trkpt>
      <trkpt lat="50.57711" lon="5.26204">
        <ele>198.5</ele>
      </trkpt>
      <trkpt lat="50.57757" lon="5.26297">
        <ele>198</ele>
      </trkpt>
      <trkpt lat="50.57798" lon="5.26389">
        <ele>198.3</ele>
      </trkpt>
      <trkpt lat="50.57834" lon="5.26496">
        <ele>198.2</ele>
      </trkpt>
      <trkpt lat="50.57844" lon="5.26527">
        <ele>198.4</ele>
      </trkpt>
      <trkpt lat="50.57872" lon="5.2661">
        <ele>198</ele>
      </trkpt>
      <trkpt lat="50.57876" lon="5.26623">
        <ele>198</ele>
      </trkpt>
      <trkpt lat="50.57888" lon="5.26652">
        <ele>198</ele>
      </trkpt>
      <trkpt lat="50.57889" lon="5.26654">
        <ele>198</ele>
      </trkpt>
      <trkpt lat="50.57917" lon="5.26722">
        <ele>198</ele>
      </trkpt>
      <trkpt lat="50.57951" lon="5.26801">
        <ele>197</ele>
      </trkpt>
      <trkpt lat="50.57967" lon="5.26841">
        <ele>197</ele>
      </trkpt>
      <trkpt lat="50.5799" lon="5.26895">
        <ele>197</ele>
      </trkpt>
      <trkpt lat="50.58041" lon="5.26982">
        <ele>197</ele>
      </trkpt>
      <trkpt lat="50.58055" lon="5.27006">
        <ele>196.8</ele>
      </trkpt>
      <trkpt lat="50.58063" lon="5.27027">
        <ele>196</ele>
      </trkpt>
      <trkpt lat="50.58067" lon="5.2704">
        <ele>196</ele>
      </trkpt>
      <trkpt lat="50.58068" lon="5.27047">
        <ele>196</ele>
      </trkpt>
      <trkpt lat="50.58069" lon="5.27052">
        <ele>196</ele>
      </trkpt>
      <trkpt lat="50.58069" lon="5.27057">
        <ele>196</ele>
      </trkpt>
      <trkpt lat="50.58072" lon="5.27062">
        <ele>196</ele>
      </trkpt>
      <trkpt lat="50.58075" lon="5.27066">
        <ele>196</ele>
      </trkpt>
      <trkpt lat="50.58078" lon="5.27069">
        <ele>196</ele>
      </trkpt>
      <trkpt lat="50.58081" lon="5.27069">
        <ele>196</ele>
      </trkpt>
      <trkpt lat="50.58085" lon="5.27068">
        <ele>195.9</ele>
      </trkpt>
      <trkpt lat="50.58092" lon="5.27076">
        <ele>195.7</ele>
      </trkpt>
      <trkpt lat="50.58098" lon="5.27085">
        <ele>195.5</ele>
      </trkpt>
      <trkpt lat="50.58117" lon="5.27123">
        <ele>195.2</ele>
      </trkpt>
      <trkpt lat="50.58121" lon="5.27137">
        <ele>195.3</ele>
      </trkpt>
      <trkpt lat="50.58123" lon="5.27143">
        <ele>195.1</ele>
        <extensions>
          <visugpx:TrkExtension xmlns:visugpx="https://www.visugpx.com/editgpx/">
            <visugpx:node>1</visugpx:node>
            </visugpx:TrkExtension>
        </extensions>
      </trkpt>
      <trkpt lat="50.58147" lon="5.27229">
        <ele>194</ele>
      </trkpt>
      <trkpt lat="50.58207" lon="5.27451">
        <ele>190.5</ele>
      </trkpt>
      <trkpt lat="50.58221" lon="5.27501">
        <ele>189.1</ele>
      </trkpt>
      <trkpt lat="50.58223" lon="5.27506">
        <ele>189</ele>
      </trkpt>
      <trkpt lat="50.58254" lon="5.27594">
        <ele>189.1</ele>
      </trkpt>
      <trkpt lat="50.58257" lon="5.276">
        <ele>189.1</ele>
      </trkpt>
      <trkpt lat="50.58264" lon="5.27623">
        <ele>189</ele>
      </trkpt>
      <trkpt lat="50.58273" lon="5.27651">
        <ele>188.6</ele>
      </trkpt>
      <trkpt lat="50.58281" lon="5.27691">
        <ele>188</ele>
      </trkpt>
      <trkpt lat="50.58292" lon="5.27836">
        <ele>185.5</ele>
      </trkpt>
      <trkpt lat="50.58303" lon="5.27884">
        <ele>184.2</ele>
      </trkpt>
      <trkpt lat="50.58318" lon="5.27926">
        <ele>183.4</ele>
      </trkpt>
      <trkpt lat="50.58372" lon="5.28031">
        <ele>181.3</ele>
      </trkpt>
      <trkpt lat="50.58424" lon="5.28147">
        <ele>175.6</ele>
      </trkpt>
      <trkpt lat="50.5843" lon="5.2816">
        <ele>174.9</ele>
      </trkpt>
      <trkpt lat="50.58435" lon="5.28174">
        <ele>174.3</ele>
      </trkpt>
      <trkpt lat="50.58443" lon="5.28193">
        <ele>174</ele>
      </trkpt>
      <trkpt lat="50.58469" lon="5.28256">
        <ele>173</ele>
      </trkpt>
      <trkpt lat="50.58496" lon="5.2829">
        <ele>173.5</ele>
      </trkpt>
      <trkpt lat="50.58529" lon="5.28327">
        <ele>174.1</ele>
      </trkpt>
      <trkpt lat="50.58541" lon="5.2835">
        <ele>175</ele>
      </trkpt>
      <trkpt lat="50.58555" lon="5.28384">
        <ele>174.2</ele>
      </trkpt>
      <trkpt lat="50.58577" lon="5.2843">
        <ele>175.2</ele>
      </trkpt>
      <trkpt lat="50.5859" lon="5.28451">
        <ele>175.4</ele>
      </trkpt>
      <trkpt lat="50.58602" lon="5.28469">
        <ele>176</ele>
      </trkpt>
      <trkpt lat="50.58624" lon="5.28497">
        <ele>176.5</ele>
      </trkpt>
      <trkpt lat="50.5866" lon="5.28535">
        <ele>177.8</ele>
      </trkpt>
      <trkpt lat="50.58699" lon="5.2857">
        <ele>179.2</ele>
      </trkpt>
      <trkpt lat="50.58709" lon="5.28581">
        <ele>179.5</ele>
      </trkpt>
      <trkpt lat="50.58752" lon="5.28649">
        <ele>179.7</ele>
      </trkpt>
      <trkpt lat="50.58754" lon="5.28653">
        <ele>179.6</ele>
      </trkpt>
      <trkpt lat="50.58768" lon="5.28675">
        <ele>179.8</ele>
      </trkpt>
      <trkpt lat="50.58786" lon="5.28705">
        <ele>180.2</ele>
      </trkpt>
      <trkpt lat="50.58801" lon="5.28736">
        <ele>180</ele>
      </trkpt>
      <trkpt lat="50.58806" lon="5.28749">
        <ele>180</ele>
      </trkpt>
      <trkpt lat="50.58814" lon="5.28767">
        <ele>180</ele>
      </trkpt>
      <trkpt lat="50.58822" lon="5.28787">
        <ele>180</ele>
      </trkpt>
      <trkpt lat="50.58828" lon="5.28801">
        <ele>180</ele>
      </trkpt>
      <trkpt lat="50.58874" lon="5.28912">
        <ele>180.9</ele>
      </trkpt>
      <trkpt lat="50.58885" lon="5.28941">
        <ele>181</ele>
      </trkpt>
      <trkpt lat="50.58918" lon="5.29023">
        <ele>181</ele>
      </trkpt>
      <trkpt lat="50.58933" lon="5.29059">
        <ele>182</ele>
      </trkpt>
      <trkpt lat="50.58937" lon="5.29064">
        <ele>182</ele>
      </trkpt>
      <trkpt lat="50.59003" lon="5.29202">
        <ele>182</ele>
      </trkpt>
      <trkpt lat="50.5903" lon="5.29262">
        <ele>182.4</ele>
        <extensions>
          <visugpx:TrkExtension xmlns:visugpx="https://www.visugpx.com/editgpx/">
            <visugpx:node>2</visugpx:node>
            </visugpx:TrkExtension>
        </extensions>
      </trkpt>
      <trkpt lat="50.5907" lon="5.29353">
        <ele>182.8</ele>
      </trkpt>
      <trkpt lat="50.59103" lon="5.29437">
        <ele>183.2</ele>
      </trkpt>
      <trkpt lat="50.59113" lon="5.29467">
        <ele>183.8</ele>
      </trkpt>
      <trkpt lat="50.59121" lon="5.29502">
        <ele>184.4</ele>
      </trkpt>
      <trkpt lat="50.59126" lon="5.29551">
        <ele>185</ele>
      </trkpt>
      <trkpt lat="50.59143" lon="5.29822">
        <ele>191.1</ele>
      </trkpt>
      <trkpt lat="50.59149" lon="5.2985">
        <ele>191.7</ele>
      </trkpt>
      <trkpt lat="50.59158" lon="5.29865">
        <ele>192.1</ele>
      </trkpt>
      <trkpt lat="50.59169" lon="5.29877">
        <ele>192.5</ele>
      </trkpt>
      <trkpt lat="50.59181" lon="5.29881">
        <ele>192.3</ele>
      </trkpt>
      <trkpt lat="50.59194" lon="5.2988">
        <ele>192</ele>
      </trkpt>
      <trkpt lat="50.59269" lon="5.29867">
        <ele>190.4</ele>
      </trkpt>
      <trkpt lat="50.59299" lon="5.29861">
        <ele>191.2</ele>
      </trkpt>
      <trkpt lat="50.59321" lon="5.29864">
        <ele>190</ele>
      </trkpt>
      <trkpt lat="50.59337" lon="5.2987">
        <ele>189</ele>
      </trkpt>
      <trkpt lat="50.59351" lon="5.2988">
        <ele>188.2</ele>
      </trkpt>
      <trkpt lat="50.59364" lon="5.2989">
        <ele>187.9</ele>
      </trkpt>
      <trkpt lat="50.59377" lon="5.29907">
        <ele>187.4</ele>
      </trkpt>
      <trkpt lat="50.59405" lon="5.29949">
        <ele>188.1</ele>
      </trkpt>
      <trkpt lat="50.59434" lon="5.30001">
        <ele>188.1</ele>
      </trkpt>
      <trkpt lat="50.59468" lon="5.30078">
        <ele>188.3</ele>
      </trkpt>
      <trkpt lat="50.59508" lon="5.30154">
        <ele>189</ele>
      </trkpt>
      <trkpt lat="50.59634" lon="5.30377">
        <ele>189.5</ele>
      </trkpt>
      <trkpt lat="50.59668" lon="5.30441">
        <ele>188.2</ele>
      </trkpt>
      <trkpt lat="50.59672" lon="5.30432">
        <ele>188.6</ele>
        <extensions>
          <visugpx:TrkExtension xmlns:visugpx="https://www.visugpx.com/editgpx/">
            <visugpx:node>3</visugpx:node>
            </visugpx:TrkExtension>
        </extensions>
      </trkpt>
      <trkpt lat="50.59668" lon="5.30441">
        <ele>188.2</ele>
      </trkpt>
      <trkpt lat="50.59693" lon="5.30508">
        <ele>187.8</ele>
      </trkpt>
      <trkpt lat="50.59734" lon="5.30619">
        <ele>186.6</ele>
      </trkpt>
      <trkpt lat="50.59748" lon="5.30658">
        <ele>186.1</ele>
      </trkpt>
      <trkpt lat="50.59759" lon="5.30685">
        <ele>185.7</ele>
      </trkpt>
      <trkpt lat="50.59769" lon="5.30726">
        <ele>185.3</ele>
      </trkpt>
      <trkpt lat="50.59779" lon="5.30778">
        <ele>185.9</ele>
      </trkpt>
      <trkpt lat="50.59784" lon="5.30812">
        <ele>185.6</ele>
      </trkpt>
      <trkpt lat="50.59798" lon="5.30882">
        <ele>185.3</ele>
      </trkpt>
      <trkpt lat="50.59813" lon="5.30925">
        <ele>185.7</ele>
      </trkpt>
      <trkpt lat="50.59831" lon="5.30964">
        <ele>185.7</ele>
      </trkpt>
      <trkpt lat="50.59947" lon="5.31218">
        <ele>183</ele>
      </trkpt>
      <trkpt lat="50.60036" lon="5.31417">
        <ele>180</ele>
      </trkpt>
      <trkpt lat="50.60093" lon="5.31544">
        <ele>178</ele>
      </trkpt>
      <trkpt lat="50.60161" lon="5.31678">
        <ele>176.9</ele>
      </trkpt>
      <trkpt lat="50.60175" lon="5.31702">
        <ele>176.7</ele>
      </trkpt>
      <trkpt lat="50.60192" lon="5.31729">
        <ele>176.3</ele>
      </trkpt>
      <trkpt lat="50.60198" lon="5.31735">
        <ele>176.4</ele>
      </trkpt>
      <trkpt lat="50.6021" lon="5.31744">
        <ele>176.3</ele>
      </trkpt>
      <trkpt lat="50.60265" lon="5.31731">
        <ele>175.8</ele>
      </trkpt>
      <trkpt lat="50.60307" lon="5.31732">
        <ele>175</ele>
      </trkpt>
      <trkpt lat="50.60389" lon="5.31751">
        <ele>175</ele>
      </trkpt>
      <trkpt lat="50.60416" lon="5.31749">
        <ele>175</ele>
      </trkpt>
      <trkpt lat="50.6043" lon="5.31744">
        <ele>174.6</ele>
      </trkpt>
      <trkpt lat="50.60462" lon="5.3171">
        <ele>174.6</ele>
      </trkpt>
      <trkpt lat="50.60473" lon="5.31708">
        <ele>174.5</ele>
      </trkpt>
      <trkpt lat="50.60615" lon="5.31729">
        <ele>173.9</ele>
      </trkpt>
      <trkpt lat="50.60688" lon="5.31756">
        <ele>172.2</ele>
      </trkpt>
      <trkpt lat="50.60702" lon="5.31765">
        <ele>172.1</ele>
      </trkpt>
      <trkpt lat="50.60696" lon="5.31788">
        <ele>172</ele>
      </trkpt>
      <trkpt lat="50.60685" lon="5.31832">
        <ele>171.4</ele>
      </trkpt>
      <trkpt lat="50.60669" lon="5.31901">
        <ele>170</ele>
      </trkpt>
      <trkpt lat="50.60651" lon="5.32045">
        <ele>171.5</ele>
      </trkpt>
      <trkpt lat="50.60697" lon="5.32032">
        <ele>171.1</ele>
      </trkpt>
      <trkpt lat="50.60739" lon="5.32021">
        <ele>170</ele>
      </trkpt>
      <trkpt lat="50.60841" lon="5.32019">
        <ele>167.9</ele>
      </trkpt>
      <trkpt lat="50.60914" lon="5.32018">
        <ele>168</ele>
      </trkpt>
      <trkpt lat="50.60941" lon="5.32019">
        <ele>168</ele>
      </trkpt>
      <trkpt lat="50.60989" lon="5.32058">
        <ele>168.4</ele>
      </trkpt>
      <trkpt lat="50.60977" lon="5.32156">
        <ele>170.2</ele>
      </trkpt>
      <trkpt lat="50.60978" lon="5.32156">
        <ele>170.3</ele>
        <extensions>
          <visugpx:TrkExtension xmlns:visugpx="https://www.visugpx.com/editgpx/">
            <visugpx:node>6</visugpx:node>
            </visugpx:TrkExtension>
        </extensions>
      </trkpt>
      <trkpt lat="50.61061" lon="5.32158">
        <ele>169.9</ele>
      </trkpt>
      <trkpt lat="50.61108" lon="5.32153">
        <ele>169.1</ele>
      </trkpt>
      <trkpt lat="50.61165" lon="5.32176">
        <ele>169.7</ele>
      </trkpt>
      <trkpt lat="50.61217" lon="5.32181">
        <ele>168.2</ele>
      </trkpt>
      <trkpt lat="50.61318" lon="5.32243">
        <ele>169.2</ele>
      </trkpt>
      <trkpt lat="50.61336" lon="5.32256">
        <ele>168.1</ele>
      </trkpt>
      <trkpt lat="50.61392" lon="5.32298">
        <ele>167.7</ele>
      </trkpt>
      <trkpt lat="50.61523" lon="5.32413">
        <ele>171</ele>
      </trkpt>
      <trkpt lat="50.6158" lon="5.3247">
        <ele>171.1</ele>
      </trkpt>
      <trkpt lat="50.61624" lon="5.32518">
        <ele>170.9</ele>
      </trkpt>
      <trkpt lat="50.6167" lon="5.32591">
        <ele>171</ele>
      </trkpt>
      <trkpt lat="50.6168" lon="5.32606">
        <ele>171</ele>
      </trkpt>
      <trkpt lat="50.61759" lon="5.32644">
        <ele>170</ele>
      </trkpt>
      <trkpt lat="50.61897" lon="5.327">
        <ele>168.9</ele>
      </trkpt>
      <trkpt lat="50.62091" lon="5.32764">
        <ele>164.9</ele>
      </trkpt>
      <trkpt lat="50.62213" lon="5.3276">
        <ele>161.6</ele>
      </trkpt>
      <trkpt lat="50.62415" lon="5.3264">
        <ele>153.1</ele>
      </trkpt>
      <trkpt lat="50.62532" lon="5.32474">
        <ele>160</ele>
      </trkpt>
      <trkpt lat="50.62736" lon="5.33022">
        <ele>159.6</ele>
      </trkpt>
      <trkpt lat="50.62803" lon="5.33024">
        <ele>159.8</ele>
      </trkpt>
      <trkpt lat="50.62936" lon="5.32979">
        <ele>157.6</ele>
      </trkpt>
      <trkpt lat="50.62985" lon="5.32916">
        <ele>155.5</ele>
      </trkpt>
      <trkpt lat="50.63026" lon="5.32972">
        <ele>159</ele>
      </trkpt>
      <trkpt lat="50.6304" lon="5.33172">
        <ele>166.8</ele>
      </trkpt>
      <trkpt lat="50.63091" lon="5.33414">
        <ele>172.6</ele>
      </trkpt>
      <trkpt lat="50.63112" lon="5.33476">
        <ele>174</ele>
      </trkpt>
      <trkpt lat="50.63204" lon="5.33536">
        <ele>175.8</ele>
      </trkpt>
      <trkpt lat="50.63496" lon="5.33609">
        <ele>173</ele>
      </trkpt>
      <trkpt lat="50.63478" lon="5.34127">
        <ele>178.8</ele>
      </trkpt>
      <trkpt lat="50.63351" lon="5.34899">
        <ele>179.4</ele>
      </trkpt>
      <trkpt lat="50.63315" lon="5.35534">
        <ele>174.9</ele>
      </trkpt>
      <trkpt lat="50.6326" lon="5.3606">
        <ele>181.5</ele>
      </trkpt>
      <trkpt lat="50.63293" lon="5.36446">
        <ele>183</ele>
      </trkpt>
      <trkpt lat="50.63304" lon="5.36944">
        <ele>180</ele>
      </trkpt>
      <trkpt lat="50.63364" lon="5.37609">
        <ele>176</ele>
      </trkpt>
      <trkpt lat="50.63441" lon="5.38676">
        <ele>165</ele>
      </trkpt>
      <trkpt lat="50.63513" lon="5.39609">
        <ele>165</ele>
      </trkpt>
      <trkpt lat="50.63433" lon="5.39736">
        <ele>164.1</ele>
      </trkpt>
      <trkpt lat="50.63091" lon="5.40167">
        <ele>157.4</ele>
      </trkpt>
      <trkpt lat="50.62735" lon="5.40633">
        <ele>160.4</ele>
      </trkpt>
      <trkpt lat="50.62499" lon="5.40933">
        <ele>170.6</ele>
      </trkpt>
      <trkpt lat="50.62309" lon="5.41182">
        <ele>176.9</ele>
      </trkpt>
      <trkpt lat="50.6222" lon="5.4109">
        <ele>178.1</ele>
      </trkpt>
      <trkpt lat="50.62065" lon="5.41145">
        <ele>181.7</ele>
      </trkpt>
      <trkpt lat="50.61919" lon="5.41223">
        <ele>183</ele>
      </trkpt>
      <trkpt lat="50.61923" lon="5.41272">
        <ele>183</ele>
      </trkpt>
      <trkpt lat="50.62023" lon="5.41545">
        <ele>186</ele>
      </trkpt>
      <trkpt lat="50.61921" lon="5.41688">
        <ele>187</ele>
      </trkpt>
      <trkpt lat="50.61922" lon="5.41686">
        <ele>187</ele>
      </trkpt>
      <trkpt lat="50.61921" lon="5.41688">
        <ele>187</ele>
      </trkpt>
      <trkpt lat="50.61914" lon="5.41705">
        <ele>187</ele>
      </trkpt>
      <trkpt lat="50.61907" lon="5.41726">
        <ele>187.1</ele>
      </trkpt>
      <trkpt lat="50.61901" lon="5.41766">
        <ele>188</ele>
      </trkpt>
      <trkpt lat="50.61898" lon="5.41811">
        <ele>188</ele>
      </trkpt>
      <trkpt lat="50.6189" lon="5.41902">
        <ele>188</ele>
      </trkpt>
      <trkpt lat="50.61886" lon="5.41965">
        <ele>187.3</ele>
      </trkpt>
      <trkpt lat="50.61893" lon="5.4203">
        <ele>187.1</ele>
      </trkpt>
      <trkpt lat="50.61901" lon="5.42134">
        <ele>187.4</ele>
      </trkpt>
      <trkpt lat="50.61904" lon="5.42249">
        <ele>189.5</ele>
      </trkpt>
      <trkpt lat="50.619" lon="5.42279">
        <ele>190</ele>
      </trkpt>
      <trkpt lat="50.61883" lon="5.42318">
        <ele>190.6</ele>
      </trkpt>
      <trkpt lat="50.61827" lon="5.4245">
        <ele>193.2</ele>
      </trkpt>
      <trkpt lat="50.61814" lon="5.42487">
        <ele>192.9</ele>
      </trkpt>
      <trkpt lat="50.61811" lon="5.42506">
        <ele>192.4</ele>
      </trkpt>
      <trkpt lat="50.61807" lon="5.42542">
        <ele>191.6</ele>
      </trkpt>
      <trkpt lat="50.61807" lon="5.42567">
        <ele>190.8</ele>
      </trkpt>
      <trkpt lat="50.61812" lon="5.42596">
        <ele>190.3</ele>
      </trkpt>
      <trkpt lat="50.61818" lon="5.4263">
        <ele>188.8</ele>
      </trkpt>
      <trkpt lat="50.61817" lon="5.42669">
        <ele>187.1</ele>
      </trkpt>
      <trkpt lat="50.6181" lon="5.42716">
        <ele>185.8</ele>
      </trkpt>
      <trkpt lat="50.61801" lon="5.42753">
        <ele>185.5</ele>
      </trkpt>
      <trkpt lat="50.61793" lon="5.4278">
        <ele>185.4</ele>
      </trkpt>
      <trkpt lat="50.61772" lon="5.42834">
        <ele>188.8</ele>
      </trkpt>
      <trkpt lat="50.61767" lon="5.42855">
        <ele>189.6</ele>
      </trkpt>
      <trkpt lat="50.61766" lon="5.42873">
        <ele>189.7</ele>
      </trkpt>
      <trkpt lat="50.61769" lon="5.4288">
        <ele>190.1</ele>
      </trkpt>
      <trkpt lat="50.61772" lon="5.4289">
        <ele>190.3</ele>
      </trkpt>
      <trkpt lat="50.61789" lon="5.42912">
        <ele>191.4</ele>
      </trkpt>
      <trkpt lat="50.61813" lon="5.42936">
        <ele>192.2</ele>
      </trkpt>
      <trkpt lat="50.61834" lon="5.42957">
        <ele>192.6</ele>
      </trkpt>
      <trkpt lat="50.61956" lon="5.43128">
        <ele>192.6</ele>
      </trkpt>
      <trkpt lat="50.61988" lon="5.43156">
        <ele>193.2</ele>
      </trkpt>
      <trkpt lat="50.6203" lon="5.4318">
        <ele>192.5</ele>
      </trkpt>
      <trkpt lat="50.62061" lon="5.43207">
        <ele>192.2</ele>
      </trkpt>
      <trkpt lat="50.62064" lon="5.4321">
        <ele>192.3</ele>
      </trkpt>
      <trkpt lat="50.62146" lon="5.43301">
        <ele>194.4</ele>
      </trkpt>
      <trkpt lat="50.6215" lon="5.43306">
        <ele>194.4</ele>
      </trkpt>
      <trkpt lat="50.62156" lon="5.43323">
        <ele>193.6</ele>
      </trkpt>
      <trkpt lat="50.62181" lon="5.43389">
        <ele>192</ele>
      </trkpt>
      <trkpt lat="50.62193" lon="5.43423">
        <ele>190.9</ele>
      </trkpt>
      <trkpt lat="50.62199" lon="5.4344">
        <ele>191.2</ele>
      </trkpt>
      <trkpt lat="50.62209" lon="5.43466">
        <ele>191.5</ele>
      </trkpt>
      <trkpt lat="50.62211" lon="5.43472">
        <ele>191.6</ele>
      </trkpt>
      <trkpt lat="50.62208" lon="5.43476">
        <ele>191.3</ele>
      </trkpt>
      <trkpt lat="50.62205" lon="5.43487">
        <ele>190.5</ele>
      </trkpt>
      <trkpt lat="50.62204" lon="5.43493">
        <ele>190.1</ele>
      </trkpt>
      <trkpt lat="50.62205" lon="5.43498">
        <ele>189.9</ele>
      </trkpt>
      <trkpt lat="50.62211" lon="5.4351">
        <ele>190</ele>
      </trkpt>
      <trkpt lat="50.62214" lon="5.43513">
        <ele>190.1</ele>
      </trkpt>
      <trkpt lat="50.62219" lon="5.43514">
        <ele>190.3</ele>
      </trkpt>
      <trkpt lat="50.62223" lon="5.43513">
        <ele>190.5</ele>
      </trkpt>
      <trkpt lat="50.62227" lon="5.4351">
        <ele>190.7</ele>
      </trkpt>
      <trkpt lat="50.62237" lon="5.43539">
        <ele>190.3</ele>
      </trkpt>
      <trkpt lat="50.6225" lon="5.4357">
        <ele>189</ele>
      </trkpt>
      <trkpt lat="50.6226" lon="5.43594">
        <ele>188.2</ele>
      </trkpt>
      <trkpt lat="50.62272" lon="5.43624">
        <ele>186.9</ele>
      </trkpt>
      <trkpt lat="50.62329" lon="5.43781">
        <ele>182.8</ele>
      </trkpt>
      <trkpt lat="50.62371" lon="5.4398">
        <ele>186.1</ele>
      </trkpt>
      <trkpt lat="50.62372" lon="5.43982">
        <ele>186.1</ele>
      </trkpt>
      <trkpt lat="50.62369" lon="5.44004">
        <ele>186.3</ele>
      </trkpt>
      <trkpt lat="50.62368" lon="5.44012">
        <ele>186.2</ele>
      </trkpt>
      <trkpt lat="50.62334" lon="5.44074">
        <ele>186</ele>
      </trkpt>
      <trkpt lat="50.62311" lon="5.44117">
        <ele>186.4</ele>
      </trkpt>
      <trkpt lat="50.62305" lon="5.44139">
        <ele>187</ele>
      </trkpt>
      <trkpt lat="50.62303" lon="5.44149">
        <ele>186.9</ele>
      </trkpt>
      <trkpt lat="50.62306" lon="5.4419">
        <ele>187</ele>
      </trkpt>
      <trkpt lat="50.62307" lon="5.44204">
        <ele>187.4</ele>
      </trkpt>
      <trkpt lat="50.62324" lon="5.44275">
        <ele>189.2</ele>
      </trkpt>
      <trkpt lat="50.62335" lon="5.44334">
        <ele>189.1</ele>
      </trkpt>
      <trkpt lat="50.62347" lon="5.44415">
        <ele>190.4</ele>
      </trkpt>
      <trkpt lat="50.62349" lon="5.44438">
        <ele>190.6</ele>
      </trkpt>
      <trkpt lat="50.62349" lon="5.4445">
        <ele>190.8</ele>
      </trkpt>
      <trkpt lat="50.62353" lon="5.44523">
        <ele>191.7</ele>
      </trkpt>
      <trkpt lat="50.62351" lon="5.44607">
        <ele>192.4</ele>
      </trkpt>
      <trkpt lat="50.62341" lon="5.4469">
        <ele>192</ele>
      </trkpt>
      <trkpt lat="50.62334" lon="5.44762">
        <ele>191</ele>
        <extensions>
          <visugpx:TrkExtension xmlns:visugpx="https://www.visugpx.com/editgpx/">
            <visugpx:node>19</visugpx:node>
            </visugpx:TrkExtension>
        </extensions>
      </trkpt>
    </trkseg>
  </trk>
</gpx>